<?xml version="1.0" encoding="UTF-8" standalone="no" ?>
<gpx xmlns="http://www.topografix.com/GPX/1/1" xmlns:xsi="http://www.w3.org/2001/XMLSchema-instance" xsi:schemaLocation="http://www.topografix.com/GPX/1/1 http://www.topografix.com/GPX/1/1/gpx.xsd" version="1.1" creator="VisuGPX - https://www.visugpx.com">
  <metadata>
    <name>Dommartin Lissieu</name>
  </metadata>
  <trk>
    <name><![CDATA[Enregistré le 12 sept. 2022 16:03:02]]></name>
    <trkseg>
      <trkpt lat="45.83317" lon="4.70949">
        <ele>306.32049</ele>
        <time>2022-09-12T14:03:12.303Z</time>
      </trkpt>
      <trkpt lat="45.83318" lon="4.70958">
        <ele>306.0341</ele>
        <time>2022-09-12T14:03:14.000Z</time>
      </trkpt>
      <trkpt lat="45.83317" lon="4.70962">
        <ele>305.95654</ele>
        <time>2022-09-12T14:03:15.000Z</time>
      </trkpt>
      <trkpt lat="45.83316" lon="4.70966">
        <ele>305.85558</ele>
        <time>2022-09-12T14:03:16.000Z</time>
      </trkpt>
      <trkpt lat="45.83314" lon="4.7097">
        <ele>305.74861</ele>
        <time>2022-09-12T14:03:17.000Z</time>
      </trkpt>
      <trkpt lat="45.83313" lon="4.70973">
        <ele>305.64392</ele>
        <time>2022-09-12T14:03:18.000Z</time>
      </trkpt>
      <trkpt lat="45.83311" lon="4.70978">
        <ele>305.5117</ele>
        <time>2022-09-12T14:03:19.000Z</time>
      </trkpt>
      <trkpt lat="45.8331" lon="4.70983">
        <ele>305.37111</ele>
        <time>2022-09-12T14:03:20.000Z</time>
      </trkpt>
      <trkpt lat="45.83309" lon="4.70986">
        <ele>305.28224</ele>
        <time>2022-09-12T14:03:21.000Z</time>
      </trkpt>
      <trkpt lat="45.83309" lon="4.70989">
        <ele>305.19156</ele>
        <time>2022-09-12T14:03:23.000Z</time>
      </trkpt>
      <trkpt lat="45.8331" lon="4.70993">
        <ele>305.07683</ele>
        <time>2022-09-12T14:03:25.000Z</time>
      </trkpt>
      <trkpt lat="45.83312" lon="4.70995">
        <ele>305.00003</ele>
        <time>2022-09-12T14:03:26.000Z</time>
      </trkpt>
      <trkpt lat="45.83314" lon="4.70997">
        <ele>304.95794</ele>
        <time>2022-09-12T14:03:27.000Z</time>
      </trkpt>
      <trkpt lat="45.83316" lon="4.70998">
        <ele>304.94552</ele>
        <time>2022-09-12T14:03:28.000Z</time>
      </trkpt>
      <trkpt lat="45.83318" lon="4.70999">
        <ele>304.95497</ele>
        <time>2022-09-12T14:03:29.000Z</time>
      </trkpt>
      <trkpt lat="45.8332" lon="4.70999">
        <ele>304.9803</ele>
        <time>2022-09-12T14:03:30.000Z</time>
      </trkpt>
      <trkpt lat="45.83322" lon="4.70999">
        <ele>305.0114</ele>
        <time>2022-09-12T14:03:31.000Z</time>
      </trkpt>
      <trkpt lat="45.83324" lon="4.70998">
        <ele>305.05226</ele>
        <time>2022-09-12T14:03:32.000Z</time>
      </trkpt>
      <trkpt lat="45.83326" lon="4.70998">
        <ele>305.09341</ele>
        <time>2022-09-12T14:03:33.000Z</time>
      </trkpt>
      <trkpt lat="45.83329" lon="4.70997">
        <ele>305.12805</ele>
        <time>2022-09-12T14:03:34.000Z</time>
      </trkpt>
      <trkpt lat="45.83331" lon="4.70996">
        <ele>305.15211</ele>
        <time>2022-09-12T14:03:35.000Z</time>
      </trkpt>
      <trkpt lat="45.83333" lon="4.70996">
        <ele>305.16617</ele>
        <time>2022-09-12T14:03:36.000Z</time>
      </trkpt>
      <trkpt lat="45.83336" lon="4.70995">
        <ele>305.19026</ele>
        <time>2022-09-12T14:03:38.000Z</time>
      </trkpt>
      <trkpt lat="45.83339" lon="4.70995">
        <ele>305.21841</ele>
        <time>2022-09-12T14:03:40.000Z</time>
      </trkpt>
      <trkpt lat="45.83342" lon="4.70995">
        <ele>305.24717</ele>
        <time>2022-09-12T14:03:42.000Z</time>
      </trkpt>
      <trkpt lat="45.83343" lon="4.70997">
        <ele>305.24284</ele>
        <time>2022-09-12T14:03:46.000Z</time>
      </trkpt>
      <trkpt lat="45.83344" lon="4.70999">
        <ele>305.22517</ele>
        <time>2022-09-12T14:03:54.000Z</time>
      </trkpt>
      <trkpt lat="45.83347" lon="4.70999">
        <ele>305.24347</ele>
        <time>2022-09-12T14:03:58.000Z</time>
      </trkpt>
      <trkpt lat="45.8335" lon="4.70999">
        <ele>305.26206</ele>
        <time>2022-09-12T14:03:59.000Z</time>
      </trkpt>
      <trkpt lat="45.83354" lon="4.70999">
        <ele>305.27692</ele>
        <time>2022-09-12T14:04:00.000Z</time>
      </trkpt>
      <trkpt lat="45.83357" lon="4.70999">
        <ele>305.2907</ele>
        <time>2022-09-12T14:04:01.000Z</time>
      </trkpt>
      <trkpt lat="45.8336" lon="4.70999">
        <ele>305.30248</ele>
        <time>2022-09-12T14:04:02.000Z</time>
      </trkpt>
      <trkpt lat="45.83364" lon="4.70999">
        <ele>305.3113</ele>
        <time>2022-09-12T14:04:03.000Z</time>
      </trkpt>
      <trkpt lat="45.83367" lon="4.70999">
        <ele>305.31273</ele>
        <time>2022-09-12T14:04:04.000Z</time>
      </trkpt>
      <trkpt lat="45.8337" lon="4.70999">
        <ele>305.30533</ele>
        <time>2022-09-12T14:04:05.000Z</time>
      </trkpt>
      <trkpt lat="45.83374" lon="4.70999">
        <ele>305.28838</ele>
        <time>2022-09-12T14:04:06.000Z</time>
      </trkpt>
      <trkpt lat="45.83377" lon="4.70999">
        <ele>305.25483</ele>
        <time>2022-09-12T14:04:07.000Z</time>
      </trkpt>
      <trkpt lat="45.83381" lon="4.70998">
        <ele>305.2058</ele>
        <time>2022-09-12T14:04:08.000Z</time>
      </trkpt>
      <trkpt lat="45.83386" lon="4.70998">
        <ele>305.13004</ele>
        <time>2022-09-12T14:04:09.000Z</time>
      </trkpt>
      <trkpt lat="45.8339" lon="4.70998">
        <ele>305.04378</ele>
        <time>2022-09-12T14:04:10.000Z</time>
      </trkpt>
      <trkpt lat="45.83394" lon="4.70998">
        <ele>304.93639</ele>
        <time>2022-09-12T14:04:11.000Z</time>
      </trkpt>
      <trkpt lat="45.83398" lon="4.70998">
        <ele>304.79927</ele>
        <time>2022-09-12T14:04:12.000Z</time>
      </trkpt>
      <trkpt lat="45.83403" lon="4.70998">
        <ele>304.62717</ele>
        <time>2022-09-12T14:04:13.000Z</time>
      </trkpt>
      <trkpt lat="45.83407" lon="4.70997">
        <ele>304.41655</ele>
        <time>2022-09-12T14:04:14.000Z</time>
      </trkpt>
      <trkpt lat="45.83412" lon="4.70997">
        <ele>304.17345</ele>
        <time>2022-09-12T14:04:15.000Z</time>
      </trkpt>
      <trkpt lat="45.83418" lon="4.70998">
        <ele>303.84708</ele>
        <time>2022-09-12T14:04:16.000Z</time>
      </trkpt>
      <trkpt lat="45.83424" lon="4.70997">
        <ele>303.61689</ele>
        <time>2022-09-12T14:04:17.000Z</time>
      </trkpt>
      <trkpt lat="45.83429" lon="4.70996">
        <ele>303.44673</ele>
        <time>2022-09-12T14:04:18.000Z</time>
      </trkpt>
      <trkpt lat="45.83434" lon="4.70997">
        <ele>303.26152</ele>
        <time>2022-09-12T14:04:19.000Z</time>
      </trkpt>
      <trkpt lat="45.83439" lon="4.70996">
        <ele>303.09452</ele>
        <time>2022-09-12T14:04:20.000Z</time>
      </trkpt>
      <trkpt lat="45.83446" lon="4.70996">
        <ele>302.89075</ele>
        <time>2022-09-12T14:04:21.000Z</time>
      </trkpt>
      <trkpt lat="45.83452" lon="4.70996">
        <ele>302.71465</ele>
        <time>2022-09-12T14:04:22.000Z</time>
      </trkpt>
      <trkpt lat="45.83458" lon="4.70996">
        <ele>302.5273</ele>
        <time>2022-09-12T14:04:23.000Z</time>
      </trkpt>
      <trkpt lat="45.83465" lon="4.70995">
        <ele>302.31665</ele>
        <time>2022-09-12T14:04:24.000Z</time>
      </trkpt>
      <trkpt lat="45.83472" lon="4.70994">
        <ele>302.03191</ele>
        <time>2022-09-12T14:04:25.000Z</time>
      </trkpt>
      <trkpt lat="45.83479" lon="4.70996">
        <ele>301.64155</ele>
        <time>2022-09-12T14:04:26.000Z</time>
      </trkpt>
      <trkpt lat="45.83486" lon="4.70997">
        <ele>301.1771</ele>
        <time>2022-09-12T14:04:27.000Z</time>
      </trkpt>
      <trkpt lat="45.83495" lon="4.70999">
        <ele>300.63659</ele>
        <time>2022-09-12T14:04:28.000Z</time>
      </trkpt>
      <trkpt lat="45.83501" lon="4.71002">
        <ele>300.16026</ele>
        <time>2022-09-12T14:04:29.000Z</time>
      </trkpt>
      <trkpt lat="45.83511" lon="4.71009">
        <ele>299.60525</ele>
        <time>2022-09-12T14:04:30.000Z</time>
      </trkpt>
      <trkpt lat="45.83517" lon="4.71013">
        <ele>299.40907</ele>
        <time>2022-09-12T14:04:31.000Z</time>
      </trkpt>
      <trkpt lat="45.83523" lon="4.71018">
        <ele>299.23122</ele>
        <time>2022-09-12T14:04:32.000Z</time>
      </trkpt>
      <trkpt lat="45.83529" lon="4.71022">
        <ele>299.04339</ele>
        <time>2022-09-12T14:04:33.000Z</time>
      </trkpt>
      <trkpt lat="45.83537" lon="4.71025">
        <ele>298.80371</ele>
        <time>2022-09-12T14:04:34.000Z</time>
      </trkpt>
      <trkpt lat="45.83543" lon="4.71029">
        <ele>298.53991</ele>
        <time>2022-09-12T14:04:35.000Z</time>
      </trkpt>
      <trkpt lat="45.83549" lon="4.71032">
        <ele>298.32356</ele>
        <time>2022-09-12T14:04:36.000Z</time>
      </trkpt>
      <trkpt lat="45.83555" lon="4.71037">
        <ele>298.08754</ele>
        <time>2022-09-12T14:04:37.000Z</time>
      </trkpt>
      <trkpt lat="45.83561" lon="4.71042">
        <ele>297.91863</ele>
        <time>2022-09-12T14:04:38.000Z</time>
      </trkpt>
      <trkpt lat="45.83567" lon="4.71045">
        <ele>297.79357</ele>
        <time>2022-09-12T14:04:39.000Z</time>
      </trkpt>
      <trkpt lat="45.83573" lon="4.71051">
        <ele>297.58383</ele>
        <time>2022-09-12T14:04:40.000Z</time>
      </trkpt>
      <trkpt lat="45.83579" lon="4.71055">
        <ele>297.34382</ele>
        <time>2022-09-12T14:04:41.000Z</time>
      </trkpt>
      <trkpt lat="45.83584" lon="4.71058">
        <ele>297.09853</ele>
        <time>2022-09-12T14:04:42.000Z</time>
      </trkpt>
      <trkpt lat="45.83587" lon="4.71064">
        <ele>296.87602</ele>
        <time>2022-09-12T14:04:43.000Z</time>
      </trkpt>
      <trkpt lat="45.83589" lon="4.71071">
        <ele>296.70641</ele>
        <time>2022-09-12T14:04:44.000Z</time>
      </trkpt>
      <trkpt lat="45.83587" lon="4.71078">
        <ele>296.65811</ele>
        <time>2022-09-12T14:04:45.000Z</time>
      </trkpt>
      <trkpt lat="45.83586" lon="4.71086">
        <ele>296.55659</ele>
        <time>2022-09-12T14:04:46.000Z</time>
      </trkpt>
      <trkpt lat="45.83584" lon="4.71094">
        <ele>296.46044</ele>
        <time>2022-09-12T14:04:47.000Z</time>
      </trkpt>
      <trkpt lat="45.83582" lon="4.71101">
        <ele>296.3662</ele>
        <time>2022-09-12T14:04:48.000Z</time>
      </trkpt>
      <trkpt lat="45.8358" lon="4.71107">
        <ele>296.30099</ele>
        <time>2022-09-12T14:04:49.000Z</time>
      </trkpt>
      <trkpt lat="45.83577" lon="4.71114">
        <ele>296.24258</ele>
        <time>2022-09-12T14:04:50.000Z</time>
      </trkpt>
      <trkpt lat="45.83575" lon="4.71121">
        <ele>296.13784</ele>
        <time>2022-09-12T14:04:51.000Z</time>
      </trkpt>
      <trkpt lat="45.83574" lon="4.71126">
        <ele>296.04942</ele>
        <time>2022-09-12T14:04:52.000Z</time>
      </trkpt>
      <trkpt lat="45.83571" lon="4.71134">
        <ele>295.90232</ele>
        <time>2022-09-12T14:04:53.000Z</time>
      </trkpt>
      <trkpt lat="45.83571" lon="4.71141">
        <ele>295.7408</ele>
        <time>2022-09-12T14:04:54.000Z</time>
      </trkpt>
      <trkpt lat="45.83573" lon="4.71147">
        <ele>295.56622</ele>
        <time>2022-09-12T14:04:55.000Z</time>
      </trkpt>
      <trkpt lat="45.83577" lon="4.71151">
        <ele>295.3588</ele>
        <time>2022-09-12T14:04:56.000Z</time>
      </trkpt>
      <trkpt lat="45.83581" lon="4.71156">
        <ele>295.14714</ele>
        <time>2022-09-12T14:04:57.000Z</time>
      </trkpt>
      <trkpt lat="45.83587" lon="4.71159">
        <ele>294.9951</ele>
        <time>2022-09-12T14:04:58.000Z</time>
      </trkpt>
      <trkpt lat="45.83592" lon="4.71163">
        <ele>294.84805</ele>
        <time>2022-09-12T14:04:59.000Z</time>
      </trkpt>
      <trkpt lat="45.83598" lon="4.71166">
        <ele>294.69075</ele>
        <time>2022-09-12T14:05:00.000Z</time>
      </trkpt>
      <trkpt lat="45.83604" lon="4.7117">
        <ele>294.43784</ele>
        <time>2022-09-12T14:05:01.000Z</time>
      </trkpt>
      <trkpt lat="45.83609" lon="4.71174">
        <ele>294.16268</ele>
        <time>2022-09-12T14:05:02.000Z</time>
      </trkpt>
      <trkpt lat="45.83615" lon="4.71178">
        <ele>293.86439</ele>
        <time>2022-09-12T14:05:03.000Z</time>
      </trkpt>
      <trkpt lat="45.8362" lon="4.71182">
        <ele>293.58229</ele>
        <time>2022-09-12T14:05:04.000Z</time>
      </trkpt>
      <trkpt lat="45.83626" lon="4.71186">
        <ele>293.2811</ele>
        <time>2022-09-12T14:05:05.000Z</time>
      </trkpt>
      <trkpt lat="45.83632" lon="4.71189">
        <ele>292.99034</ele>
        <time>2022-09-12T14:05:06.000Z</time>
      </trkpt>
      <trkpt lat="45.83635" lon="4.71193">
        <ele>292.76971</ele>
        <time>2022-09-12T14:05:07.000Z</time>
      </trkpt>
      <trkpt lat="45.83642" lon="4.71196">
        <ele>292.38872</ele>
        <time>2022-09-12T14:05:08.000Z</time>
      </trkpt>
      <trkpt lat="45.83648" lon="4.71201">
        <ele>291.95169</ele>
        <time>2022-09-12T14:05:09.000Z</time>
      </trkpt>
      <trkpt lat="45.83653" lon="4.71204">
        <ele>291.55202</ele>
        <time>2022-09-12T14:05:10.000Z</time>
      </trkpt>
      <trkpt lat="45.83656" lon="4.71206">
        <ele>291.35725</ele>
        <time>2022-09-12T14:05:11.000Z</time>
      </trkpt>
      <trkpt lat="45.83659" lon="4.71208">
        <ele>291.1054</ele>
        <time>2022-09-12T14:05:12.000Z</time>
      </trkpt>
      <trkpt lat="45.83663" lon="4.7121">
        <ele>290.88781</ele>
        <time>2022-09-12T14:05:13.000Z</time>
      </trkpt>
      <trkpt lat="45.83664" lon="4.71213">
        <ele>290.7549</ele>
        <time>2022-09-12T14:05:16.000Z</time>
      </trkpt>
      <trkpt lat="45.83666" lon="4.71216">
        <ele>290.59114</ele>
        <time>2022-09-12T14:05:18.000Z</time>
      </trkpt>
      <trkpt lat="45.83669" lon="4.71217">
        <ele>290.4598</ele>
        <time>2022-09-12T14:05:20.000Z</time>
      </trkpt>
      <trkpt lat="45.83671" lon="4.71217">
        <ele>290.38021</ele>
        <time>2022-09-12T14:05:21.000Z</time>
      </trkpt>
      <trkpt lat="45.83672" lon="4.71218">
        <ele>290.2983</ele>
        <time>2022-09-12T14:05:22.000Z</time>
      </trkpt>
      <trkpt lat="45.83674" lon="4.7122">
        <ele>290.20702</ele>
        <time>2022-09-12T14:05:23.000Z</time>
      </trkpt>
      <trkpt lat="45.83676" lon="4.71222">
        <ele>290.10602</ele>
        <time>2022-09-12T14:05:24.000Z</time>
      </trkpt>
      <trkpt lat="45.83678" lon="4.71224">
        <ele>290.00098</ele>
        <time>2022-09-12T14:05:25.000Z</time>
      </trkpt>
      <trkpt lat="45.8368" lon="4.71225">
        <ele>289.88475</ele>
        <time>2022-09-12T14:05:26.000Z</time>
      </trkpt>
      <trkpt lat="45.83682" lon="4.71228">
        <ele>289.76812</ele>
        <time>2022-09-12T14:05:27.000Z</time>
      </trkpt>
      <trkpt lat="45.83682" lon="4.71231">
        <ele>289.66008</ele>
        <time>2022-09-12T14:05:28.000Z</time>
      </trkpt>
      <trkpt lat="45.83682" lon="4.71235">
        <ele>289.56452</ele>
        <time>2022-09-12T14:05:29.000Z</time>
      </trkpt>
      <trkpt lat="45.8368" lon="4.71239">
        <ele>289.50553</ele>
        <time>2022-09-12T14:05:30.000Z</time>
      </trkpt>
      <trkpt lat="45.83679" lon="4.71243">
        <ele>289.45652</ele>
        <time>2022-09-12T14:05:31.000Z</time>
      </trkpt>
      <trkpt lat="45.83678" lon="4.71247">
        <ele>289.40808</ele>
        <time>2022-09-12T14:05:32.000Z</time>
      </trkpt>
      <trkpt lat="45.83676" lon="4.71251">
        <ele>289.38641</ele>
        <time>2022-09-12T14:05:33.000Z</time>
      </trkpt>
      <trkpt lat="45.83675" lon="4.71256">
        <ele>289.35182</ele>
        <time>2022-09-12T14:05:34.000Z</time>
      </trkpt>
      <trkpt lat="45.83674" lon="4.7126">
        <ele>289.34533</ele>
        <time>2022-09-12T14:05:35.000Z</time>
      </trkpt>
      <trkpt lat="45.83673" lon="4.71264">
        <ele>289.3328</ele>
        <time>2022-09-12T14:05:36.000Z</time>
      </trkpt>
      <trkpt lat="45.83673" lon="4.71269">
        <ele>289.32405</ele>
        <time>2022-09-12T14:05:37.000Z</time>
      </trkpt>
      <trkpt lat="45.83672" lon="4.71275">
        <ele>289.33215</ele>
        <time>2022-09-12T14:05:38.000Z</time>
      </trkpt>
      <trkpt lat="45.83671" lon="4.7128">
        <ele>289.32859</ele>
        <time>2022-09-12T14:05:39.000Z</time>
      </trkpt>
      <trkpt lat="45.8367" lon="4.71285">
        <ele>289.36359</ele>
        <time>2022-09-12T14:05:40.000Z</time>
      </trkpt>
      <trkpt lat="45.83668" lon="4.7129">
        <ele>289.39143</ele>
        <time>2022-09-12T14:05:41.000Z</time>
      </trkpt>
      <trkpt lat="45.83667" lon="4.71295">
        <ele>289.44823</ele>
        <time>2022-09-12T14:05:42.000Z</time>
      </trkpt>
      <trkpt lat="45.83666" lon="4.71301">
        <ele>289.49878</ele>
        <time>2022-09-12T14:05:43.000Z</time>
      </trkpt>
      <trkpt lat="45.83664" lon="4.71306">
        <ele>289.5591</ele>
        <time>2022-09-12T14:05:44.000Z</time>
      </trkpt>
      <trkpt lat="45.83662" lon="4.71311">
        <ele>289.62273</ele>
        <time>2022-09-12T14:05:45.000Z</time>
      </trkpt>
      <trkpt lat="45.8366" lon="4.71316">
        <ele>289.66534</ele>
        <time>2022-09-12T14:05:46.000Z</time>
      </trkpt>
      <trkpt lat="45.83659" lon="4.71321">
        <ele>289.68273</ele>
        <time>2022-09-12T14:05:47.000Z</time>
      </trkpt>
      <trkpt lat="45.83658" lon="4.71327">
        <ele>289.67361</ele>
        <time>2022-09-12T14:05:48.000Z</time>
      </trkpt>
      <trkpt lat="45.83656" lon="4.71332">
        <ele>289.63248</ele>
        <time>2022-09-12T14:05:49.000Z</time>
      </trkpt>
      <trkpt lat="45.83655" lon="4.71338">
        <ele>289.57002</ele>
        <time>2022-09-12T14:05:50.000Z</time>
      </trkpt>
      <trkpt lat="45.83653" lon="4.71343">
        <ele>289.49696</ele>
        <time>2022-09-12T14:05:51.000Z</time>
      </trkpt>
      <trkpt lat="45.83652" lon="4.71349">
        <ele>289.42541</ele>
        <time>2022-09-12T14:05:52.000Z</time>
      </trkpt>
      <trkpt lat="45.83651" lon="4.71353">
        <ele>289.36866</ele>
        <time>2022-09-12T14:05:53.000Z</time>
      </trkpt>
      <trkpt lat="45.8365" lon="4.71358">
        <ele>289.32715</ele>
        <time>2022-09-12T14:05:54.000Z</time>
      </trkpt>
      <trkpt lat="45.83649" lon="4.71362">
        <ele>289.29634</ele>
        <time>2022-09-12T14:05:55.000Z</time>
      </trkpt>
      <trkpt lat="45.83649" lon="4.71367">
        <ele>289.27285</ele>
        <time>2022-09-12T14:05:56.000Z</time>
      </trkpt>
      <trkpt lat="45.83648" lon="4.71372">
        <ele>289.2624</ele>
        <time>2022-09-12T14:05:57.000Z</time>
      </trkpt>
      <trkpt lat="45.83647" lon="4.71377">
        <ele>289.27403</ele>
        <time>2022-09-12T14:05:58.000Z</time>
      </trkpt>
      <trkpt lat="45.83646" lon="4.71381">
        <ele>289.303</ele>
        <time>2022-09-12T14:05:59.000Z</time>
      </trkpt>
      <trkpt lat="45.83645" lon="4.71386">
        <ele>289.32886</ele>
        <time>2022-09-12T14:06:00.000Z</time>
      </trkpt>
      <trkpt lat="45.83644" lon="4.7139">
        <ele>289.36318</ele>
        <time>2022-09-12T14:06:01.000Z</time>
      </trkpt>
      <trkpt lat="45.83643" lon="4.71395">
        <ele>289.39427</ele>
        <time>2022-09-12T14:06:02.000Z</time>
      </trkpt>
      <trkpt lat="45.83641" lon="4.71401">
        <ele>289.4231</ele>
        <time>2022-09-12T14:06:03.000Z</time>
      </trkpt>
      <trkpt lat="45.83639" lon="4.71406">
        <ele>289.43231</ele>
        <time>2022-09-12T14:06:04.000Z</time>
      </trkpt>
      <trkpt lat="45.83638" lon="4.71412">
        <ele>289.43112</ele>
        <time>2022-09-12T14:06:05.000Z</time>
      </trkpt>
      <trkpt lat="45.83637" lon="4.71417">
        <ele>289.42227</ele>
        <time>2022-09-12T14:06:06.000Z</time>
      </trkpt>
      <trkpt lat="45.83635" lon="4.71421">
        <ele>289.40757</ele>
        <time>2022-09-12T14:06:07.000Z</time>
      </trkpt>
      <trkpt lat="45.83634" lon="4.71426">
        <ele>289.39744</ele>
        <time>2022-09-12T14:06:08.000Z</time>
      </trkpt>
      <trkpt lat="45.83633" lon="4.71431">
        <ele>289.38448</ele>
        <time>2022-09-12T14:06:09.000Z</time>
      </trkpt>
      <trkpt lat="45.83631" lon="4.71436">
        <ele>289.39016</ele>
        <time>2022-09-12T14:06:10.000Z</time>
      </trkpt>
      <trkpt lat="45.8363" lon="4.71442">
        <ele>289.40294</ele>
        <time>2022-09-12T14:06:11.000Z</time>
      </trkpt>
      <trkpt lat="45.83629" lon="4.71447">
        <ele>289.42388</ele>
        <time>2022-09-12T14:06:12.000Z</time>
      </trkpt>
      <trkpt lat="45.83627" lon="4.71452">
        <ele>289.44447</ele>
        <time>2022-09-12T14:06:13.000Z</time>
      </trkpt>
      <trkpt lat="45.83626" lon="4.71457">
        <ele>289.47725</ele>
        <time>2022-09-12T14:06:14.000Z</time>
      </trkpt>
      <trkpt lat="45.83624" lon="4.71463">
        <ele>289.52324</ele>
        <time>2022-09-12T14:06:15.000Z</time>
      </trkpt>
      <trkpt lat="45.83621" lon="4.71468">
        <ele>289.57476</ele>
        <time>2022-09-12T14:06:16.000Z</time>
      </trkpt>
      <trkpt lat="45.83617" lon="4.71472">
        <ele>289.71223</ele>
        <time>2022-09-12T14:06:17.000Z</time>
      </trkpt>
      <trkpt lat="45.83614" lon="4.71477">
        <ele>289.7204</ele>
        <time>2022-09-12T14:06:18.000Z</time>
      </trkpt>
      <trkpt lat="45.83611" lon="4.71481">
        <ele>289.72302</ele>
        <time>2022-09-12T14:06:19.000Z</time>
      </trkpt>
      <trkpt lat="45.83605" lon="4.71499">
        <ele>289.12524</ele>
        <time>2022-09-12T14:06:24.000Z</time>
      </trkpt>
      <trkpt lat="45.83607" lon="4.71501">
        <ele>288.92493</ele>
        <time>2022-09-12T14:06:25.000Z</time>
      </trkpt>
      <trkpt lat="45.83608" lon="4.71506">
        <ele>288.62497</ele>
        <time>2022-09-12T14:06:26.000Z</time>
      </trkpt>
      <trkpt lat="45.8361" lon="4.71512">
        <ele>288.22397</ele>
        <time>2022-09-12T14:06:27.000Z</time>
      </trkpt>
      <trkpt lat="45.83612" lon="4.71517">
        <ele>287.91264</ele>
        <time>2022-09-12T14:06:28.000Z</time>
      </trkpt>
      <trkpt lat="45.83614" lon="4.71523">
        <ele>287.6151</ele>
        <time>2022-09-12T14:06:29.000Z</time>
      </trkpt>
      <trkpt lat="45.83617" lon="4.71528">
        <ele>287.33344</ele>
        <time>2022-09-12T14:06:30.000Z</time>
      </trkpt>
      <trkpt lat="45.83618" lon="4.71534">
        <ele>287.05994</ele>
        <time>2022-09-12T14:06:31.000Z</time>
      </trkpt>
      <trkpt lat="45.8362" lon="4.71539">
        <ele>286.75045</ele>
        <time>2022-09-12T14:06:32.000Z</time>
      </trkpt>
      <trkpt lat="45.83621" lon="4.71545">
        <ele>286.41436</ele>
        <time>2022-09-12T14:06:33.000Z</time>
      </trkpt>
      <trkpt lat="45.83621" lon="4.71549">
        <ele>286.06027</ele>
        <time>2022-09-12T14:06:34.000Z</time>
      </trkpt>
      <trkpt lat="45.83621" lon="4.71554">
        <ele>285.64287</ele>
        <time>2022-09-12T14:06:35.000Z</time>
      </trkpt>
      <trkpt lat="45.83621" lon="4.71559">
        <ele>285.21246</ele>
        <time>2022-09-12T14:06:36.000Z</time>
      </trkpt>
      <trkpt lat="45.83621" lon="4.71563">
        <ele>284.76905</ele>
        <time>2022-09-12T14:06:37.000Z</time>
      </trkpt>
      <trkpt lat="45.83621" lon="4.71566">
        <ele>284.3349</ele>
        <time>2022-09-12T14:06:38.000Z</time>
      </trkpt>
      <trkpt lat="45.8362" lon="4.7157">
        <ele>283.82891</ele>
        <time>2022-09-12T14:06:39.000Z</time>
      </trkpt>
      <trkpt lat="45.8362" lon="4.71574">
        <ele>283.2753</ele>
        <time>2022-09-12T14:06:40.000Z</time>
      </trkpt>
      <trkpt lat="45.8362" lon="4.71578">
        <ele>282.7665</ele>
        <time>2022-09-12T14:06:41.000Z</time>
      </trkpt>
      <trkpt lat="45.8362" lon="4.71582">
        <ele>282.24513</ele>
        <time>2022-09-12T14:06:42.000Z</time>
      </trkpt>
      <trkpt lat="45.83621" lon="4.71585">
        <ele>281.89141</ele>
        <time>2022-09-12T14:06:43.000Z</time>
      </trkpt>
      <trkpt lat="45.83621" lon="4.71588">
        <ele>281.62615</ele>
        <time>2022-09-12T14:06:44.000Z</time>
      </trkpt>
      <trkpt lat="45.83622" lon="4.71592">
        <ele>281.22038</ele>
        <time>2022-09-12T14:06:46.000Z</time>
      </trkpt>
      <trkpt lat="45.83623" lon="4.71598">
        <ele>280.48201</ele>
        <time>2022-09-12T14:06:48.000Z</time>
      </trkpt>
      <trkpt lat="45.83623" lon="4.716">
        <ele>280.01014</ele>
        <time>2022-09-12T14:06:49.000Z</time>
      </trkpt>
      <trkpt lat="45.83623" lon="4.71604">
        <ele>279.42493</ele>
        <time>2022-09-12T14:06:51.000Z</time>
      </trkpt>
      <trkpt lat="45.83625" lon="4.71609">
        <ele>278.79757</ele>
        <time>2022-09-12T14:06:53.000Z</time>
      </trkpt>
      <trkpt lat="45.83625" lon="4.71612">
        <ele>278.30596</ele>
        <time>2022-09-12T14:06:54.000Z</time>
      </trkpt>
      <trkpt lat="45.83626" lon="4.71615">
        <ele>277.79628</ele>
        <time>2022-09-12T14:06:55.000Z</time>
      </trkpt>
      <trkpt lat="45.83626" lon="4.71618">
        <ele>277.23147</ele>
        <time>2022-09-12T14:06:56.000Z</time>
      </trkpt>
      <trkpt lat="45.83627" lon="4.71621">
        <ele>276.55941</ele>
        <time>2022-09-12T14:06:57.000Z</time>
      </trkpt>
      <trkpt lat="45.83627" lon="4.71624">
        <ele>275.88912</ele>
        <time>2022-09-12T14:06:58.000Z</time>
      </trkpt>
      <trkpt lat="45.83628" lon="4.71627">
        <ele>275.18453</ele>
        <time>2022-09-12T14:06:59.000Z</time>
      </trkpt>
      <trkpt lat="45.83628" lon="4.7163">
        <ele>274.34915</ele>
        <time>2022-09-12T14:07:00.000Z</time>
      </trkpt>
      <trkpt lat="45.83629" lon="4.71634">
        <ele>273.60791</ele>
        <time>2022-09-12T14:07:01.000Z</time>
      </trkpt>
      <trkpt lat="45.83631" lon="4.71637">
        <ele>272.8838</ele>
        <time>2022-09-12T14:07:02.000Z</time>
      </trkpt>
      <trkpt lat="45.83632" lon="4.7164">
        <ele>272.33265</ele>
        <time>2022-09-12T14:07:03.000Z</time>
      </trkpt>
      <trkpt lat="45.83634" lon="4.71643">
        <ele>271.67644</ele>
        <time>2022-09-12T14:07:04.000Z</time>
      </trkpt>
      <trkpt lat="45.83636" lon="4.71645">
        <ele>271.03984</ele>
        <time>2022-09-12T14:07:05.000Z</time>
      </trkpt>
      <trkpt lat="45.83639" lon="4.71647">
        <ele>270.56379</ele>
        <time>2022-09-12T14:07:06.000Z</time>
      </trkpt>
      <trkpt lat="45.83641" lon="4.7165">
        <ele>269.7086</ele>
        <time>2022-09-12T14:07:07.000Z</time>
      </trkpt>
      <trkpt lat="45.83643" lon="4.71652">
        <ele>268.89889</ele>
        <time>2022-09-12T14:07:08.000Z</time>
      </trkpt>
      <trkpt lat="45.83645" lon="4.71654">
        <ele>268.17273</ele>
        <time>2022-09-12T14:07:09.000Z</time>
      </trkpt>
      <trkpt lat="45.83646" lon="4.71656">
        <ele>267.60087</ele>
        <time>2022-09-12T14:07:10.000Z</time>
      </trkpt>
      <trkpt lat="45.83648" lon="4.71657">
        <ele>267.22403</ele>
        <time>2022-09-12T14:07:11.000Z</time>
      </trkpt>
      <trkpt lat="45.83652" lon="4.71658">
        <ele>266.65695</ele>
        <time>2022-09-12T14:07:13.000Z</time>
      </trkpt>
      <trkpt lat="45.83655" lon="4.71658">
        <ele>266.36818</ele>
        <time>2022-09-12T14:07:14.000Z</time>
      </trkpt>
      <trkpt lat="45.83657" lon="4.71659">
        <ele>266.09248</ele>
        <time>2022-09-12T14:07:15.000Z</time>
      </trkpt>
      <trkpt lat="45.83659" lon="4.71659">
        <ele>265.88437</ele>
        <time>2022-09-12T14:07:16.000Z</time>
      </trkpt>
      <trkpt lat="45.83662" lon="4.71659">
        <ele>265.68893</ele>
        <time>2022-09-12T14:07:17.000Z</time>
      </trkpt>
      <trkpt lat="45.83664" lon="4.71659">
        <ele>265.46149</ele>
        <time>2022-09-12T14:07:18.000Z</time>
      </trkpt>
      <trkpt lat="45.83666" lon="4.71659">
        <ele>265.22935</ele>
        <time>2022-09-12T14:07:19.000Z</time>
      </trkpt>
      <trkpt lat="45.83668" lon="4.71659">
        <ele>264.97041</ele>
        <time>2022-09-12T14:07:20.000Z</time>
      </trkpt>
      <trkpt lat="45.8367" lon="4.71659">
        <ele>264.67548</ele>
        <time>2022-09-12T14:07:21.000Z</time>
      </trkpt>
      <trkpt lat="45.83672" lon="4.71658">
        <ele>264.49233</ele>
        <time>2022-09-12T14:07:22.000Z</time>
      </trkpt>
      <trkpt lat="45.83675" lon="4.71658">
        <ele>264.3394</ele>
        <time>2022-09-12T14:07:24.000Z</time>
      </trkpt>
      <trkpt lat="45.83678" lon="4.71656">
        <ele>264.33029</ele>
        <time>2022-09-12T14:07:26.000Z</time>
      </trkpt>
      <trkpt lat="45.83681" lon="4.71654">
        <ele>264.38609</ele>
        <time>2022-09-12T14:07:28.000Z</time>
      </trkpt>
      <trkpt lat="45.83685" lon="4.71654">
        <ele>263.96235</ele>
        <time>2022-09-12T14:07:29.000Z</time>
      </trkpt>
      <trkpt lat="45.83687" lon="4.71653">
        <ele>263.5153</ele>
        <time>2022-09-12T14:07:30.000Z</time>
      </trkpt>
      <trkpt lat="45.8369" lon="4.71653">
        <ele>262.84878</ele>
        <time>2022-09-12T14:07:31.000Z</time>
      </trkpt>
      <trkpt lat="45.83693" lon="4.71654">
        <ele>262.03897</ele>
        <time>2022-09-12T14:07:32.000Z</time>
      </trkpt>
      <trkpt lat="45.83695" lon="4.71656">
        <ele>261.15055</ele>
        <time>2022-09-12T14:07:33.000Z</time>
      </trkpt>
      <trkpt lat="45.83697" lon="4.71658">
        <ele>260.21648</ele>
        <time>2022-09-12T14:07:34.000Z</time>
      </trkpt>
      <trkpt lat="45.83699" lon="4.71662">
        <ele>259.21859</ele>
        <time>2022-09-12T14:07:35.000Z</time>
      </trkpt>
      <trkpt lat="45.83701" lon="4.71666">
        <ele>258.21675</ele>
        <time>2022-09-12T14:07:36.000Z</time>
      </trkpt>
      <trkpt lat="45.83703" lon="4.7167">
        <ele>257.447</ele>
        <time>2022-09-12T14:07:37.000Z</time>
      </trkpt>
      <trkpt lat="45.83705" lon="4.71676">
        <ele>256.89878</ele>
        <time>2022-09-12T14:07:38.000Z</time>
      </trkpt>
      <trkpt lat="45.83708" lon="4.71681">
        <ele>256.64859</ele>
        <time>2022-09-12T14:07:39.000Z</time>
      </trkpt>
      <trkpt lat="45.83711" lon="4.71686">
        <ele>256.71847</ele>
        <time>2022-09-12T14:07:40.000Z</time>
      </trkpt>
      <trkpt lat="45.83713" lon="4.71691">
        <ele>257.07058</ele>
        <time>2022-09-12T14:07:41.000Z</time>
      </trkpt>
      <trkpt lat="45.83716" lon="4.71696">
        <ele>257.70425</ele>
        <time>2022-09-12T14:07:42.000Z</time>
      </trkpt>
      <trkpt lat="45.83719" lon="4.717">
        <ele>258.36612</ele>
        <time>2022-09-12T14:07:43.000Z</time>
      </trkpt>
      <trkpt lat="45.83722" lon="4.71702">
        <ele>258.94482</ele>
        <time>2022-09-12T14:07:44.000Z</time>
      </trkpt>
      <trkpt lat="45.83726" lon="4.71703">
        <ele>259.43414</ele>
        <time>2022-09-12T14:07:45.000Z</time>
      </trkpt>
      <trkpt lat="45.8373" lon="4.71703">
        <ele>259.73312</ele>
        <time>2022-09-12T14:07:46.000Z</time>
      </trkpt>
      <trkpt lat="45.83734" lon="4.71704">
        <ele>260.03541</ele>
        <time>2022-09-12T14:07:47.000Z</time>
      </trkpt>
      <trkpt lat="45.83737" lon="4.71704">
        <ele>260.39416</ele>
        <time>2022-09-12T14:07:48.000Z</time>
      </trkpt>
      <trkpt lat="45.83741" lon="4.71705">
        <ele>260.85802</ele>
        <time>2022-09-12T14:07:49.000Z</time>
      </trkpt>
      <trkpt lat="45.83744" lon="4.71706">
        <ele>261.31929</ele>
        <time>2022-09-12T14:07:50.000Z</time>
      </trkpt>
      <trkpt lat="45.83747" lon="4.71706">
        <ele>261.611</ele>
        <time>2022-09-12T14:07:51.000Z</time>
      </trkpt>
      <trkpt lat="45.83749" lon="4.71706">
        <ele>261.80952</ele>
        <time>2022-09-12T14:07:52.000Z</time>
      </trkpt>
      <trkpt lat="45.83752" lon="4.71705">
        <ele>261.83676</ele>
        <time>2022-09-12T14:07:53.000Z</time>
      </trkpt>
      <trkpt lat="45.83755" lon="4.71705">
        <ele>261.88681</ele>
        <time>2022-09-12T14:07:54.000Z</time>
      </trkpt>
      <trkpt lat="45.83758" lon="4.71704">
        <ele>261.9423</ele>
        <time>2022-09-12T14:07:55.000Z</time>
      </trkpt>
      <trkpt lat="45.83761" lon="4.71704">
        <ele>262.11519</ele>
        <time>2022-09-12T14:07:56.000Z</time>
      </trkpt>
      <trkpt lat="45.83763" lon="4.71705">
        <ele>262.50922</ele>
        <time>2022-09-12T14:07:57.000Z</time>
      </trkpt>
      <trkpt lat="45.83766" lon="4.71705">
        <ele>262.76278</ele>
        <time>2022-09-12T14:07:58.000Z</time>
      </trkpt>
      <trkpt lat="45.83769" lon="4.71705">
        <ele>262.93376</ele>
        <time>2022-09-12T14:07:59.000Z</time>
      </trkpt>
      <trkpt lat="45.83771" lon="4.71705">
        <ele>263.08684</ele>
        <time>2022-09-12T14:08:00.000Z</time>
      </trkpt>
      <trkpt lat="45.83773" lon="4.71705">
        <ele>263.23978</ele>
        <time>2022-09-12T14:08:01.000Z</time>
      </trkpt>
      <trkpt lat="45.83775" lon="4.71706">
        <ele>263.59021</ele>
        <time>2022-09-12T14:08:04.000Z</time>
      </trkpt>
      <trkpt lat="45.83777" lon="4.71706">
        <ele>263.79537</ele>
        <time>2022-09-12T14:08:09.000Z</time>
      </trkpt>
      <trkpt lat="45.83779" lon="4.71706">
        <ele>263.76342</ele>
        <time>2022-09-12T14:09:59.000Z</time>
      </trkpt>
      <trkpt lat="45.83782" lon="4.71707">
        <ele>264.20902</ele>
        <time>2022-09-12T14:10:00.000Z</time>
      </trkpt>
      <trkpt lat="45.83785" lon="4.71708">
        <ele>264.62482</ele>
        <time>2022-09-12T14:10:01.000Z</time>
      </trkpt>
      <trkpt lat="45.83788" lon="4.71709">
        <ele>265.04435</ele>
        <time>2022-09-12T14:10:02.000Z</time>
      </trkpt>
      <trkpt lat="45.83791" lon="4.7171">
        <ele>265.4608</ele>
        <time>2022-09-12T14:10:03.000Z</time>
      </trkpt>
      <trkpt lat="45.83794" lon="4.71711">
        <ele>265.70799</ele>
        <time>2022-09-12T14:10:04.000Z</time>
      </trkpt>
      <trkpt lat="45.83797" lon="4.71711">
        <ele>265.93667</ele>
        <time>2022-09-12T14:10:05.000Z</time>
      </trkpt>
      <trkpt lat="45.83799" lon="4.71712">
        <ele>266.35252</ele>
        <time>2022-09-12T14:10:06.000Z</time>
      </trkpt>
      <trkpt lat="45.83802" lon="4.71714">
        <ele>266.87801</ele>
        <time>2022-09-12T14:10:07.000Z</time>
      </trkpt>
      <trkpt lat="45.83804" lon="4.71716">
        <ele>267.32377</ele>
        <time>2022-09-12T14:10:08.000Z</time>
      </trkpt>
      <trkpt lat="45.83806" lon="4.71717">
        <ele>267.73534</ele>
        <time>2022-09-12T14:10:09.000Z</time>
      </trkpt>
      <trkpt lat="45.83808" lon="4.71719">
        <ele>268.20598</ele>
        <time>2022-09-12T14:10:10.000Z</time>
      </trkpt>
      <trkpt lat="45.8381" lon="4.7172">
        <ele>268.61054</ele>
        <time>2022-09-12T14:10:11.000Z</time>
      </trkpt>
      <trkpt lat="45.83813" lon="4.71722">
        <ele>268.964</ele>
        <time>2022-09-12T14:10:12.000Z</time>
      </trkpt>
      <trkpt lat="45.83815" lon="4.71723">
        <ele>269.28882</ele>
        <time>2022-09-12T14:10:13.000Z</time>
      </trkpt>
      <trkpt lat="45.83819" lon="4.71724">
        <ele>269.60749</ele>
        <time>2022-09-12T14:10:14.000Z</time>
      </trkpt>
      <trkpt lat="45.83823" lon="4.71725">
        <ele>269.87152</ele>
        <time>2022-09-12T14:10:15.000Z</time>
      </trkpt>
      <trkpt lat="45.83828" lon="4.71725">
        <ele>270.06965</ele>
        <time>2022-09-12T14:10:16.000Z</time>
      </trkpt>
      <trkpt lat="45.83837" lon="4.71727">
        <ele>270.40851</ele>
        <time>2022-09-12T14:10:17.000Z</time>
      </trkpt>
      <trkpt lat="45.83841" lon="4.71728">
        <ele>270.66128</ele>
        <time>2022-09-12T14:10:18.000Z</time>
      </trkpt>
      <trkpt lat="45.83843" lon="4.71731">
        <ele>271.33878</ele>
        <time>2022-09-12T14:10:19.000Z</time>
      </trkpt>
      <trkpt lat="45.83847" lon="4.71731">
        <ele>271.30693</ele>
        <time>2022-09-12T14:10:20.000Z</time>
      </trkpt>
      <trkpt lat="45.83855" lon="4.7173">
        <ele>270.52969</ele>
        <time>2022-09-12T14:10:21.000Z</time>
      </trkpt>
      <trkpt lat="45.8386" lon="4.71734">
        <ele>271.52917</ele>
        <time>2022-09-12T14:10:22.000Z</time>
      </trkpt>
      <trkpt lat="45.83865" lon="4.71736">
        <ele>271.88502</ele>
        <time>2022-09-12T14:10:23.000Z</time>
      </trkpt>
      <trkpt lat="45.83872" lon="4.71738">
        <ele>272.16208</ele>
        <time>2022-09-12T14:10:24.000Z</time>
      </trkpt>
      <trkpt lat="45.83878" lon="4.71743">
        <ele>273.11212</ele>
        <time>2022-09-12T14:10:25.000Z</time>
      </trkpt>
      <trkpt lat="45.83882" lon="4.71745">
        <ele>273.47234</ele>
        <time>2022-09-12T14:10:26.000Z</time>
      </trkpt>
      <trkpt lat="45.83886" lon="4.71749">
        <ele>274.29576</ele>
        <time>2022-09-12T14:10:27.000Z</time>
      </trkpt>
      <trkpt lat="45.8389" lon="4.71751">
        <ele>274.6647</ele>
        <time>2022-09-12T14:10:28.000Z</time>
      </trkpt>
      <trkpt lat="45.83895" lon="4.71752">
        <ele>274.69142</ele>
        <time>2022-09-12T14:10:29.000Z</time>
      </trkpt>
      <trkpt lat="45.83899" lon="4.71754">
        <ele>274.93616</ele>
        <time>2022-09-12T14:10:30.000Z</time>
      </trkpt>
      <trkpt lat="45.83905" lon="4.71757">
        <ele>275.10278</ele>
        <time>2022-09-12T14:10:31.000Z</time>
      </trkpt>
      <trkpt lat="45.83913" lon="4.71761">
        <ele>275.42261</ele>
        <time>2022-09-12T14:10:32.000Z</time>
      </trkpt>
      <trkpt lat="45.83918" lon="4.71761">
        <ele>275.15191</ele>
        <time>2022-09-12T14:10:33.000Z</time>
      </trkpt>
      <trkpt lat="45.83923" lon="4.71764">
        <ele>274.95296</ele>
        <time>2022-09-12T14:10:34.000Z</time>
      </trkpt>
      <trkpt lat="45.83929" lon="4.71766">
        <ele>274.38402</ele>
        <time>2022-09-12T14:10:35.000Z</time>
      </trkpt>
      <trkpt lat="45.83935" lon="4.71772">
        <ele>274.07575</ele>
        <time>2022-09-12T14:10:36.000Z</time>
      </trkpt>
      <trkpt lat="45.83939" lon="4.71777">
        <ele>274.06465</ele>
        <time>2022-09-12T14:10:37.000Z</time>
      </trkpt>
      <trkpt lat="45.83943" lon="4.71784">
        <ele>274.21991</ele>
        <time>2022-09-12T14:10:38.000Z</time>
      </trkpt>
      <trkpt lat="45.83945" lon="4.71791">
        <ele>274.49817</ele>
        <time>2022-09-12T14:10:39.000Z</time>
      </trkpt>
      <trkpt lat="45.83946" lon="4.71796">
        <ele>274.65866</ele>
        <time>2022-09-12T14:10:40.000Z</time>
      </trkpt>
      <trkpt lat="45.83946" lon="4.71802">
        <ele>274.90548</ele>
        <time>2022-09-12T14:10:41.000Z</time>
      </trkpt>
      <trkpt lat="45.83949" lon="4.71808">
        <ele>274.72883</ele>
        <time>2022-09-12T14:10:42.000Z</time>
      </trkpt>
      <trkpt lat="45.83951" lon="4.71815">
        <ele>274.85721</ele>
        <time>2022-09-12T14:10:43.000Z</time>
      </trkpt>
      <trkpt lat="45.83954" lon="4.71819">
        <ele>274.74774</ele>
        <time>2022-09-12T14:10:44.000Z</time>
      </trkpt>
      <trkpt lat="45.83958" lon="4.71824">
        <ele>274.42817</ele>
        <time>2022-09-12T14:10:45.000Z</time>
      </trkpt>
      <trkpt lat="45.83961" lon="4.71829">
        <ele>274.60547</ele>
        <time>2022-09-12T14:10:46.000Z</time>
      </trkpt>
      <trkpt lat="45.83965" lon="4.71835">
        <ele>274.73505</ele>
        <time>2022-09-12T14:10:47.000Z</time>
      </trkpt>
      <trkpt lat="45.83966" lon="4.71838">
        <ele>274.81538</ele>
        <time>2022-09-12T14:10:48.000Z</time>
      </trkpt>
      <trkpt lat="45.83968" lon="4.71842">
        <ele>275.12928</ele>
        <time>2022-09-12T14:10:49.000Z</time>
      </trkpt>
      <trkpt lat="45.8397" lon="4.71848">
        <ele>275.50549</ele>
        <time>2022-09-12T14:10:50.000Z</time>
      </trkpt>
      <trkpt lat="45.83972" lon="4.71854">
        <ele>275.75817</ele>
        <time>2022-09-12T14:10:51.000Z</time>
      </trkpt>
      <trkpt lat="45.83975" lon="4.71859">
        <ele>275.83872</ele>
        <time>2022-09-12T14:10:52.000Z</time>
      </trkpt>
      <trkpt lat="45.83979" lon="4.71865">
        <ele>275.82249</ele>
        <time>2022-09-12T14:10:53.000Z</time>
      </trkpt>
      <trkpt lat="45.83982" lon="4.71869">
        <ele>275.8745</ele>
        <time>2022-09-12T14:10:54.000Z</time>
      </trkpt>
      <trkpt lat="45.83986" lon="4.71873">
        <ele>275.70703</ele>
        <time>2022-09-12T14:10:55.000Z</time>
      </trkpt>
      <trkpt lat="45.83989" lon="4.71878">
        <ele>275.70365</ele>
        <time>2022-09-12T14:10:56.000Z</time>
      </trkpt>
      <trkpt lat="45.83991" lon="4.71883">
        <ele>275.79671</ele>
        <time>2022-09-12T14:10:57.000Z</time>
      </trkpt>
      <trkpt lat="45.83994" lon="4.71888">
        <ele>275.70635</ele>
        <time>2022-09-12T14:10:58.000Z</time>
      </trkpt>
      <trkpt lat="45.83997" lon="4.71894">
        <ele>275.50055</ele>
        <time>2022-09-12T14:10:59.000Z</time>
      </trkpt>
      <trkpt lat="45.83999" lon="4.71899">
        <ele>275.27554</ele>
        <time>2022-09-12T14:11:00.000Z</time>
      </trkpt>
      <trkpt lat="45.84001" lon="4.71904">
        <ele>275.04661</ele>
        <time>2022-09-12T14:11:01.000Z</time>
      </trkpt>
      <trkpt lat="45.84002" lon="4.71911">
        <ele>274.81897</ele>
        <time>2022-09-12T14:11:02.000Z</time>
      </trkpt>
      <trkpt lat="45.84003" lon="4.71918">
        <ele>274.57745</ele>
        <time>2022-09-12T14:11:03.000Z</time>
      </trkpt>
      <trkpt lat="45.84003" lon="4.71924">
        <ele>274.28123</ele>
        <time>2022-09-12T14:11:04.000Z</time>
      </trkpt>
      <trkpt lat="45.84003" lon="4.71932">
        <ele>273.83049</ele>
        <time>2022-09-12T14:11:05.000Z</time>
      </trkpt>
      <trkpt lat="45.84004" lon="4.71941">
        <ele>273.15645</ele>
        <time>2022-09-12T14:11:06.000Z</time>
      </trkpt>
      <trkpt lat="45.84005" lon="4.7195">
        <ele>272.51603</ele>
        <time>2022-09-12T14:11:07.000Z</time>
      </trkpt>
      <trkpt lat="45.84007" lon="4.71959">
        <ele>271.87058</ele>
        <time>2022-09-12T14:11:08.000Z</time>
      </trkpt>
      <trkpt lat="45.84009" lon="4.71968">
        <ele>271.22142</ele>
        <time>2022-09-12T14:11:09.000Z</time>
      </trkpt>
      <trkpt lat="45.8401" lon="4.71979">
        <ele>270.62481</ele>
        <time>2022-09-12T14:11:10.000Z</time>
      </trkpt>
      <trkpt lat="45.84008" lon="4.71987">
        <ele>270.37056</ele>
        <time>2022-09-12T14:11:11.000Z</time>
      </trkpt>
      <trkpt lat="45.8401" lon="4.71996">
        <ele>269.88549</ele>
        <time>2022-09-12T14:11:12.000Z</time>
      </trkpt>
      <trkpt lat="45.84011" lon="4.72005">
        <ele>269.48891</ele>
        <time>2022-09-12T14:11:13.000Z</time>
      </trkpt>
      <trkpt lat="45.8401" lon="4.72014">
        <ele>269.21481</ele>
        <time>2022-09-12T14:11:14.000Z</time>
      </trkpt>
      <trkpt lat="45.8401" lon="4.72023">
        <ele>268.99523</ele>
        <time>2022-09-12T14:11:15.000Z</time>
      </trkpt>
      <trkpt lat="45.84012" lon="4.72031">
        <ele>268.67537</ele>
        <time>2022-09-12T14:11:16.000Z</time>
      </trkpt>
      <trkpt lat="45.84013" lon="4.72039">
        <ele>268.43256</ele>
        <time>2022-09-12T14:11:17.000Z</time>
      </trkpt>
      <trkpt lat="45.84016" lon="4.72047">
        <ele>268.12377</ele>
        <time>2022-09-12T14:11:18.000Z</time>
      </trkpt>
      <trkpt lat="45.84015" lon="4.72057">
        <ele>268.13899</ele>
        <time>2022-09-12T14:11:19.000Z</time>
      </trkpt>
      <trkpt lat="45.84016" lon="4.72066">
        <ele>268.02442</ele>
        <time>2022-09-12T14:11:20.000Z</time>
      </trkpt>
      <trkpt lat="45.84016" lon="4.72073">
        <ele>268.05351</ele>
        <time>2022-09-12T14:11:21.000Z</time>
      </trkpt>
      <trkpt lat="45.84016" lon="4.7208">
        <ele>268.06298</ele>
        <time>2022-09-12T14:11:22.000Z</time>
      </trkpt>
      <trkpt lat="45.84017" lon="4.72087">
        <ele>268.06707</ele>
        <time>2022-09-12T14:11:23.000Z</time>
      </trkpt>
      <trkpt lat="45.84017" lon="4.72094">
        <ele>268.15075</ele>
        <time>2022-09-12T14:11:24.000Z</time>
      </trkpt>
      <trkpt lat="45.8402" lon="4.72101">
        <ele>268.24459</ele>
        <time>2022-09-12T14:11:25.000Z</time>
      </trkpt>
      <trkpt lat="45.84021" lon="4.72107">
        <ele>268.42129</ele>
        <time>2022-09-12T14:11:26.000Z</time>
      </trkpt>
      <trkpt lat="45.84022" lon="4.72114">
        <ele>268.67659</ele>
        <time>2022-09-12T14:11:27.000Z</time>
      </trkpt>
      <trkpt lat="45.84022" lon="4.72121">
        <ele>269.0225</ele>
        <time>2022-09-12T14:11:28.000Z</time>
      </trkpt>
      <trkpt lat="45.84022" lon="4.72126">
        <ele>269.26512</ele>
        <time>2022-09-12T14:11:29.000Z</time>
      </trkpt>
      <trkpt lat="45.84023" lon="4.72132">
        <ele>269.60323</ele>
        <time>2022-09-12T14:11:30.000Z</time>
      </trkpt>
      <trkpt lat="45.84021" lon="4.72138">
        <ele>269.86503</ele>
        <time>2022-09-12T14:11:31.000Z</time>
      </trkpt>
      <trkpt lat="45.84022" lon="4.72142">
        <ele>269.9773</ele>
        <time>2022-09-12T14:11:32.000Z</time>
      </trkpt>
      <trkpt lat="45.84022" lon="4.72149">
        <ele>270.1399</ele>
        <time>2022-09-12T14:11:33.000Z</time>
      </trkpt>
      <trkpt lat="45.84019" lon="4.72154">
        <ele>270.23645</ele>
        <time>2022-09-12T14:11:34.000Z</time>
      </trkpt>
      <trkpt lat="45.84018" lon="4.7216">
        <ele>270.30213</ele>
        <time>2022-09-12T14:11:35.000Z</time>
      </trkpt>
      <trkpt lat="45.84016" lon="4.72164">
        <ele>270.33146</ele>
        <time>2022-09-12T14:11:36.000Z</time>
      </trkpt>
      <trkpt lat="45.84013" lon="4.72167">
        <ele>270.33365</ele>
        <time>2022-09-12T14:11:37.000Z</time>
      </trkpt>
      <trkpt lat="45.84009" lon="4.7217">
        <ele>270.31828</ele>
        <time>2022-09-12T14:11:38.000Z</time>
      </trkpt>
      <trkpt lat="45.84006" lon="4.72171">
        <ele>270.30301</ele>
        <time>2022-09-12T14:11:39.000Z</time>
      </trkpt>
      <trkpt lat="45.84003" lon="4.72171">
        <ele>270.28677</ele>
        <time>2022-09-12T14:11:40.000Z</time>
      </trkpt>
      <trkpt lat="45.83999" lon="4.72171">
        <ele>270.2562</ele>
        <time>2022-09-12T14:11:41.000Z</time>
      </trkpt>
      <trkpt lat="45.83995" lon="4.7217">
        <ele>270.21205</ele>
        <time>2022-09-12T14:11:42.000Z</time>
      </trkpt>
      <trkpt lat="45.83991" lon="4.72168">
        <ele>270.14396</ele>
        <time>2022-09-12T14:11:43.000Z</time>
      </trkpt>
      <trkpt lat="45.83984" lon="4.72163">
        <ele>269.89324</ele>
        <time>2022-09-12T14:11:44.000Z</time>
      </trkpt>
      <trkpt lat="45.83982" lon="4.72164">
        <ele>269.88798</ele>
        <time>2022-09-12T14:11:46.000Z</time>
      </trkpt>
      <trkpt lat="45.83978" lon="4.72164">
        <ele>269.84635</ele>
        <time>2022-09-12T14:11:47.000Z</time>
      </trkpt>
      <trkpt lat="45.83974" lon="4.72163">
        <ele>269.77497</ele>
        <time>2022-09-12T14:11:48.000Z</time>
      </trkpt>
      <trkpt lat="45.83969" lon="4.72162">
        <ele>269.70756</ele>
        <time>2022-09-12T14:11:49.000Z</time>
      </trkpt>
      <trkpt lat="45.83967" lon="4.72161">
        <ele>269.67766</ele>
        <time>2022-09-12T14:11:50.000Z</time>
      </trkpt>
      <trkpt lat="45.83961" lon="4.72159">
        <ele>269.64365</ele>
        <time>2022-09-12T14:11:51.000Z</time>
      </trkpt>
      <trkpt lat="45.83954" lon="4.72157">
        <ele>269.64379</ele>
        <time>2022-09-12T14:11:52.000Z</time>
      </trkpt>
      <trkpt lat="45.83951" lon="4.72155">
        <ele>269.6451</ele>
        <time>2022-09-12T14:11:53.000Z</time>
      </trkpt>
      <trkpt lat="45.83948" lon="4.72155">
        <ele>269.65316</ele>
        <time>2022-09-12T14:11:54.000Z</time>
      </trkpt>
      <trkpt lat="45.83946" lon="4.72155">
        <ele>269.6611</ele>
        <time>2022-09-12T14:11:55.000Z</time>
      </trkpt>
      <trkpt lat="45.83943" lon="4.72155">
        <ele>269.66434</ele>
        <time>2022-09-12T14:11:56.000Z</time>
      </trkpt>
      <trkpt lat="45.83942" lon="4.72154">
        <ele>269.66408</ele>
        <time>2022-09-12T14:11:57.000Z</time>
      </trkpt>
      <trkpt lat="45.83938" lon="4.72152">
        <ele>269.66263</ele>
        <time>2022-09-12T14:11:59.000Z</time>
      </trkpt>
      <trkpt lat="45.83936" lon="4.7215">
        <ele>269.66734</ele>
        <time>2022-09-12T14:12:01.000Z</time>
      </trkpt>
      <trkpt lat="45.83935" lon="4.72152">
        <ele>269.66246</ele>
        <time>2022-09-12T14:12:05.000Z</time>
      </trkpt>
      <trkpt lat="45.83936" lon="4.72158">
        <ele>269.64727</ele>
        <time>2022-09-12T14:12:11.000Z</time>
      </trkpt>
      <trkpt lat="45.83938" lon="4.72161">
        <ele>269.64633</ele>
        <time>2022-09-12T14:12:12.000Z</time>
      </trkpt>
      <trkpt lat="45.8394" lon="4.72165">
        <ele>269.65033</ele>
        <time>2022-09-12T14:12:13.000Z</time>
      </trkpt>
      <trkpt lat="45.83942" lon="4.72169">
        <ele>269.65656</ele>
        <time>2022-09-12T14:12:14.000Z</time>
      </trkpt>
      <trkpt lat="45.83945" lon="4.72174">
        <ele>269.6587</ele>
        <time>2022-09-12T14:12:15.000Z</time>
      </trkpt>
      <trkpt lat="45.83947" lon="4.72178">
        <ele>269.65271</ele>
        <time>2022-09-12T14:12:16.000Z</time>
      </trkpt>
      <trkpt lat="45.83952" lon="4.72186">
        <ele>269.65379</ele>
        <time>2022-09-12T14:12:17.000Z</time>
      </trkpt>
      <trkpt lat="45.83955" lon="4.72192">
        <ele>269.67449</ele>
        <time>2022-09-12T14:12:18.000Z</time>
      </trkpt>
      <trkpt lat="45.83957" lon="4.72198">
        <ele>269.70492</ele>
        <time>2022-09-12T14:12:19.000Z</time>
      </trkpt>
      <trkpt lat="45.8396" lon="4.72204">
        <ele>269.73108</ele>
        <time>2022-09-12T14:12:20.000Z</time>
      </trkpt>
      <trkpt lat="45.83962" lon="4.72208">
        <ele>269.74987</ele>
        <time>2022-09-12T14:12:21.000Z</time>
      </trkpt>
      <trkpt lat="45.83964" lon="4.72214">
        <ele>269.7189</ele>
        <time>2022-09-12T14:12:22.000Z</time>
      </trkpt>
      <trkpt lat="45.83963" lon="4.72221">
        <ele>269.61321</ele>
        <time>2022-09-12T14:12:23.000Z</time>
      </trkpt>
      <trkpt lat="45.83967" lon="4.72228">
        <ele>269.58901</ele>
        <time>2022-09-12T14:12:24.000Z</time>
      </trkpt>
      <trkpt lat="45.8397" lon="4.72234">
        <ele>269.58593</ele>
        <time>2022-09-12T14:12:25.000Z</time>
      </trkpt>
      <trkpt lat="45.83973" lon="4.72241">
        <ele>269.57403</ele>
        <time>2022-09-12T14:12:26.000Z</time>
      </trkpt>
      <trkpt lat="45.83976" lon="4.72248">
        <ele>269.50007</ele>
        <time>2022-09-12T14:12:27.000Z</time>
      </trkpt>
      <trkpt lat="45.83979" lon="4.72255">
        <ele>269.37026</ele>
        <time>2022-09-12T14:12:28.000Z</time>
      </trkpt>
      <trkpt lat="45.83982" lon="4.72262">
        <ele>269.23006</ele>
        <time>2022-09-12T14:12:29.000Z</time>
      </trkpt>
      <trkpt lat="45.83986" lon="4.72268">
        <ele>269.12588</ele>
        <time>2022-09-12T14:12:30.000Z</time>
      </trkpt>
      <trkpt lat="45.83989" lon="4.72275">
        <ele>269.10146</ele>
        <time>2022-09-12T14:12:31.000Z</time>
      </trkpt>
      <trkpt lat="45.83992" lon="4.7228">
        <ele>269.09049</ele>
        <time>2022-09-12T14:12:32.000Z</time>
      </trkpt>
      <trkpt lat="45.83995" lon="4.72285">
        <ele>269.04548</ele>
        <time>2022-09-12T14:12:33.000Z</time>
      </trkpt>
      <trkpt lat="45.83998" lon="4.72289">
        <ele>268.9415</ele>
        <time>2022-09-12T14:12:34.000Z</time>
      </trkpt>
      <trkpt lat="45.84" lon="4.72295">
        <ele>268.7561</ele>
        <time>2022-09-12T14:12:35.000Z</time>
      </trkpt>
      <trkpt lat="45.84005" lon="4.72299">
        <ele>268.4679</ele>
        <time>2022-09-12T14:12:36.000Z</time>
      </trkpt>
      <trkpt lat="45.84007" lon="4.72304">
        <ele>268.19761</ele>
        <time>2022-09-12T14:12:37.000Z</time>
      </trkpt>
      <trkpt lat="45.8401" lon="4.72309">
        <ele>267.89704</ele>
        <time>2022-09-12T14:12:38.000Z</time>
      </trkpt>
      <trkpt lat="45.84009" lon="4.72313">
        <ele>267.7029</ele>
        <time>2022-09-12T14:12:39.000Z</time>
      </trkpt>
      <trkpt lat="45.84011" lon="4.72317">
        <ele>267.42104</ele>
        <time>2022-09-12T14:12:40.000Z</time>
      </trkpt>
      <trkpt lat="45.84008" lon="4.7232">
        <ele>267.37354</ele>
        <time>2022-09-12T14:12:41.000Z</time>
      </trkpt>
      <trkpt lat="45.8401" lon="4.72323">
        <ele>267.13455</ele>
        <time>2022-09-12T14:12:42.000Z</time>
      </trkpt>
      <trkpt lat="45.84006" lon="4.72323">
        <ele>267.24178</ele>
        <time>2022-09-12T14:12:43.000Z</time>
      </trkpt>
      <trkpt lat="45.84002" lon="4.72324">
        <ele>267.31103</ele>
        <time>2022-09-12T14:12:46.000Z</time>
      </trkpt>
      <trkpt lat="45.84" lon="4.72325">
        <ele>267.35132</ele>
        <time>2022-09-12T14:12:47.000Z</time>
      </trkpt>
      <trkpt lat="45.83998" lon="4.72326">
        <ele>267.37355</ele>
        <time>2022-09-12T14:12:48.000Z</time>
      </trkpt>
      <trkpt lat="45.83995" lon="4.72328">
        <ele>267.34362</ele>
        <time>2022-09-12T14:12:49.000Z</time>
      </trkpt>
      <trkpt lat="45.83992" lon="4.7233">
        <ele>267.26887</ele>
        <time>2022-09-12T14:12:50.000Z</time>
      </trkpt>
      <trkpt lat="45.8399" lon="4.72332">
        <ele>267.182</ele>
        <time>2022-09-12T14:12:51.000Z</time>
      </trkpt>
      <trkpt lat="45.83987" lon="4.72335">
        <ele>267.07632</ele>
        <time>2022-09-12T14:12:52.000Z</time>
      </trkpt>
      <trkpt lat="45.83984" lon="4.72338">
        <ele>266.92024</ele>
        <time>2022-09-12T14:12:53.000Z</time>
      </trkpt>
      <trkpt lat="45.83981" lon="4.7234">
        <ele>266.74949</ele>
        <time>2022-09-12T14:12:54.000Z</time>
      </trkpt>
      <trkpt lat="45.83978" lon="4.72342">
        <ele>266.53232</ele>
        <time>2022-09-12T14:12:55.000Z</time>
      </trkpt>
      <trkpt lat="45.83974" lon="4.72345">
        <ele>266.21794</ele>
        <time>2022-09-12T14:12:56.000Z</time>
      </trkpt>
      <trkpt lat="45.83971" lon="4.72347">
        <ele>265.86975</ele>
        <time>2022-09-12T14:12:57.000Z</time>
      </trkpt>
      <trkpt lat="45.83968" lon="4.7235">
        <ele>265.51118</ele>
        <time>2022-09-12T14:12:58.000Z</time>
      </trkpt>
      <trkpt lat="45.83965" lon="4.72352">
        <ele>265.21042</ele>
        <time>2022-09-12T14:12:59.000Z</time>
      </trkpt>
      <trkpt lat="45.83962" lon="4.72354">
        <ele>264.88347</ele>
        <time>2022-09-12T14:13:00.000Z</time>
      </trkpt>
      <trkpt lat="45.83959" lon="4.72356">
        <ele>264.58873</ele>
        <time>2022-09-12T14:13:01.000Z</time>
      </trkpt>
      <trkpt lat="45.83956" lon="4.72358">
        <ele>264.39704</ele>
        <time>2022-09-12T14:13:02.000Z</time>
      </trkpt>
      <trkpt lat="45.83954" lon="4.7236">
        <ele>264.2818</ele>
        <time>2022-09-12T14:13:03.000Z</time>
      </trkpt>
      <trkpt lat="45.83951" lon="4.72361">
        <ele>264.15341</ele>
        <time>2022-09-12T14:13:04.000Z</time>
      </trkpt>
      <trkpt lat="45.83948" lon="4.72363">
        <ele>264.00125</ele>
        <time>2022-09-12T14:13:05.000Z</time>
      </trkpt>
      <trkpt lat="45.83945" lon="4.72365">
        <ele>263.8137</ele>
        <time>2022-09-12T14:13:06.000Z</time>
      </trkpt>
      <trkpt lat="45.83941" lon="4.72368">
        <ele>263.50954</ele>
        <time>2022-09-12T14:13:07.000Z</time>
      </trkpt>
      <trkpt lat="45.83938" lon="4.7237">
        <ele>263.16307</ele>
        <time>2022-09-12T14:13:08.000Z</time>
      </trkpt>
      <trkpt lat="45.83934" lon="4.72372">
        <ele>262.76253</ele>
        <time>2022-09-12T14:13:09.000Z</time>
      </trkpt>
      <trkpt lat="45.8393" lon="4.72375">
        <ele>262.36595</ele>
        <time>2022-09-12T14:13:10.000Z</time>
      </trkpt>
      <trkpt lat="45.83926" lon="4.72376">
        <ele>261.94941</ele>
        <time>2022-09-12T14:13:11.000Z</time>
      </trkpt>
      <trkpt lat="45.83921" lon="4.72378">
        <ele>261.52891</ele>
        <time>2022-09-12T14:13:12.000Z</time>
      </trkpt>
      <trkpt lat="45.83912" lon="4.72385">
        <ele>260.41336</ele>
        <time>2022-09-12T14:13:13.000Z</time>
      </trkpt>
      <trkpt lat="45.83906" lon="4.72389">
        <ele>259.90792</ele>
        <time>2022-09-12T14:13:14.000Z</time>
      </trkpt>
      <trkpt lat="45.83901" lon="4.72392">
        <ele>259.50469</ele>
        <time>2022-09-12T14:13:15.000Z</time>
      </trkpt>
      <trkpt lat="45.83895" lon="4.72394">
        <ele>259.09591</ele>
        <time>2022-09-12T14:13:16.000Z</time>
      </trkpt>
      <trkpt lat="45.8389" lon="4.72394">
        <ele>258.72368</ele>
        <time>2022-09-12T14:13:17.000Z</time>
      </trkpt>
      <trkpt lat="45.83886" lon="4.72396">
        <ele>258.36806</ele>
        <time>2022-09-12T14:13:18.000Z</time>
      </trkpt>
      <trkpt lat="45.83882" lon="4.72399">
        <ele>257.8521</ele>
        <time>2022-09-12T14:13:19.000Z</time>
      </trkpt>
      <trkpt lat="45.83879" lon="4.72401">
        <ele>257.50977</ele>
        <time>2022-09-12T14:13:20.000Z</time>
      </trkpt>
      <trkpt lat="45.83875" lon="4.72403">
        <ele>257.16147</ele>
        <time>2022-09-12T14:13:21.000Z</time>
      </trkpt>
      <trkpt lat="45.8387" lon="4.72409">
        <ele>256.69499</ele>
        <time>2022-09-12T14:13:22.000Z</time>
      </trkpt>
      <trkpt lat="45.83865" lon="4.72412">
        <ele>256.47353</ele>
        <time>2022-09-12T14:13:23.000Z</time>
      </trkpt>
      <trkpt lat="45.8386" lon="4.72419">
        <ele>256.10419</ele>
        <time>2022-09-12T14:13:24.000Z</time>
      </trkpt>
      <trkpt lat="45.83858" lon="4.7242">
        <ele>256.10902</ele>
        <time>2022-09-12T14:13:25.000Z</time>
      </trkpt>
      <trkpt lat="45.83854" lon="4.72423">
        <ele>255.99986</ele>
        <time>2022-09-12T14:13:27.000Z</time>
      </trkpt>
      <trkpt lat="45.83852" lon="4.72427">
        <ele>255.87769</ele>
        <time>2022-09-12T14:13:28.000Z</time>
      </trkpt>
      <trkpt lat="45.83848" lon="4.7243">
        <ele>255.88106</ele>
        <time>2022-09-12T14:13:29.000Z</time>
      </trkpt>
      <trkpt lat="45.83847" lon="4.72436">
        <ele>255.68278</ele>
        <time>2022-09-12T14:13:30.000Z</time>
      </trkpt>
      <trkpt lat="45.83847" lon="4.72439">
        <ele>255.56179</ele>
        <time>2022-09-12T14:13:31.000Z</time>
      </trkpt>
      <trkpt lat="45.83847" lon="4.72442">
        <ele>255.43264</ele>
        <time>2022-09-12T14:13:32.000Z</time>
      </trkpt>
      <trkpt lat="45.83848" lon="4.7245">
        <ele>255.11765</ele>
        <time>2022-09-12T14:13:34.000Z</time>
      </trkpt>
      <trkpt lat="45.83848" lon="4.72456">
        <ele>254.93325</ele>
        <time>2022-09-12T14:13:35.000Z</time>
      </trkpt>
      <trkpt lat="45.83848" lon="4.72461">
        <ele>254.76598</ele>
        <time>2022-09-12T14:13:36.000Z</time>
      </trkpt>
      <trkpt lat="45.83848" lon="4.72466">
        <ele>254.63329</ele>
        <time>2022-09-12T14:13:37.000Z</time>
      </trkpt>
      <trkpt lat="45.83848" lon="4.7247">
        <ele>254.49824</ele>
        <time>2022-09-12T14:13:38.000Z</time>
      </trkpt>
      <trkpt lat="45.83848" lon="4.72475">
        <ele>254.34478</ele>
        <time>2022-09-12T14:13:39.000Z</time>
      </trkpt>
      <trkpt lat="45.83849" lon="4.7248">
        <ele>254.19993</ele>
        <time>2022-09-12T14:13:40.000Z</time>
      </trkpt>
      <trkpt lat="45.83849" lon="4.72485">
        <ele>254.05659</ele>
        <time>2022-09-12T14:13:41.000Z</time>
      </trkpt>
      <trkpt lat="45.83848" lon="4.7249">
        <ele>253.93989</ele>
        <time>2022-09-12T14:13:42.000Z</time>
      </trkpt>
      <trkpt lat="45.83847" lon="4.72495">
        <ele>253.83513</ele>
        <time>2022-09-12T14:13:43.000Z</time>
      </trkpt>
      <trkpt lat="45.83845" lon="4.725">
        <ele>253.72912</ele>
        <time>2022-09-12T14:13:44.000Z</time>
      </trkpt>
      <trkpt lat="45.83844" lon="4.72504">
        <ele>253.6188</ele>
        <time>2022-09-12T14:13:45.000Z</time>
      </trkpt>
      <trkpt lat="45.83843" lon="4.72509">
        <ele>253.49363</ele>
        <time>2022-09-12T14:13:46.000Z</time>
      </trkpt>
      <trkpt lat="45.83842" lon="4.72514">
        <ele>253.35951</ele>
        <time>2022-09-12T14:13:47.000Z</time>
      </trkpt>
      <trkpt lat="45.83841" lon="4.72519">
        <ele>253.21452</ele>
        <time>2022-09-12T14:13:48.000Z</time>
      </trkpt>
      <trkpt lat="45.8384" lon="4.72524">
        <ele>253.06986</ele>
        <time>2022-09-12T14:13:49.000Z</time>
      </trkpt>
      <trkpt lat="45.83839" lon="4.72528">
        <ele>252.997</ele>
        <time>2022-09-12T14:13:50.000Z</time>
      </trkpt>
      <trkpt lat="45.83839" lon="4.72531">
        <ele>252.93526</ele>
        <time>2022-09-12T14:13:51.000Z</time>
      </trkpt>
      <trkpt lat="45.83838" lon="4.72534">
        <ele>252.8677</ele>
        <time>2022-09-12T14:13:52.000Z</time>
      </trkpt>
      <trkpt lat="45.83838" lon="4.72538">
        <ele>252.80426</ele>
        <time>2022-09-12T14:13:53.000Z</time>
      </trkpt>
      <trkpt lat="45.83838" lon="4.72542">
        <ele>252.74322</ele>
        <time>2022-09-12T14:13:54.000Z</time>
      </trkpt>
      <trkpt lat="45.83837" lon="4.72547">
        <ele>252.66661</ele>
        <time>2022-09-12T14:13:55.000Z</time>
      </trkpt>
      <trkpt lat="45.83836" lon="4.72552">
        <ele>252.59078</ele>
        <time>2022-09-12T14:13:56.000Z</time>
      </trkpt>
      <trkpt lat="45.83835" lon="4.72556">
        <ele>252.53134</ele>
        <time>2022-09-12T14:13:57.000Z</time>
      </trkpt>
      <trkpt lat="45.83833" lon="4.72561">
        <ele>252.48375</ele>
        <time>2022-09-12T14:13:58.000Z</time>
      </trkpt>
      <trkpt lat="45.83832" lon="4.72565">
        <ele>252.45632</ele>
        <time>2022-09-12T14:13:59.000Z</time>
      </trkpt>
      <trkpt lat="45.8383" lon="4.72567">
        <ele>252.44694</ele>
        <time>2022-09-12T14:14:00.000Z</time>
      </trkpt>
      <trkpt lat="45.83829" lon="4.72571">
        <ele>252.44695</ele>
        <time>2022-09-12T14:14:01.000Z</time>
      </trkpt>
      <trkpt lat="45.83827" lon="4.72575">
        <ele>252.45868</ele>
        <time>2022-09-12T14:14:02.000Z</time>
      </trkpt>
      <trkpt lat="45.83824" lon="4.72579">
        <ele>252.50393</ele>
        <time>2022-09-12T14:14:03.000Z</time>
      </trkpt>
      <trkpt lat="45.83822" lon="4.72582">
        <ele>252.5826</ele>
        <time>2022-09-12T14:14:04.000Z</time>
      </trkpt>
      <trkpt lat="45.83819" lon="4.72584">
        <ele>252.689</ele>
        <time>2022-09-12T14:14:05.000Z</time>
      </trkpt>
      <trkpt lat="45.83815" lon="4.72585">
        <ele>252.81907</ele>
        <time>2022-09-12T14:14:06.000Z</time>
      </trkpt>
      <trkpt lat="45.83812" lon="4.72587">
        <ele>252.93744</ele>
        <time>2022-09-12T14:14:07.000Z</time>
      </trkpt>
      <trkpt lat="45.83809" lon="4.72588">
        <ele>253.06744</ele>
        <time>2022-09-12T14:14:08.000Z</time>
      </trkpt>
      <trkpt lat="45.83806" lon="4.7259">
        <ele>253.19936</ele>
        <time>2022-09-12T14:14:09.000Z</time>
      </trkpt>
      <trkpt lat="45.83803" lon="4.72591">
        <ele>253.33514</ele>
        <time>2022-09-12T14:14:10.000Z</time>
      </trkpt>
      <trkpt lat="45.83799" lon="4.72593">
        <ele>253.48874</ele>
        <time>2022-09-12T14:14:11.000Z</time>
      </trkpt>
      <trkpt lat="45.83796" lon="4.72595">
        <ele>253.63996</ele>
        <time>2022-09-12T14:14:12.000Z</time>
      </trkpt>
      <trkpt lat="45.83792" lon="4.72597">
        <ele>253.76997</ele>
        <time>2022-09-12T14:14:13.000Z</time>
      </trkpt>
      <trkpt lat="45.83789" lon="4.72598">
        <ele>253.90582</ele>
        <time>2022-09-12T14:14:14.000Z</time>
      </trkpt>
      <trkpt lat="45.83785" lon="4.72601">
        <ele>254.11562</ele>
        <time>2022-09-12T14:14:15.000Z</time>
      </trkpt>
      <trkpt lat="45.83782" lon="4.72603">
        <ele>254.34722</ele>
        <time>2022-09-12T14:14:16.000Z</time>
      </trkpt>
      <trkpt lat="45.83778" lon="4.72604">
        <ele>254.56077</ele>
        <time>2022-09-12T14:14:17.000Z</time>
      </trkpt>
      <trkpt lat="45.83774" lon="4.72606">
        <ele>254.79701</ele>
        <time>2022-09-12T14:14:18.000Z</time>
      </trkpt>
      <trkpt lat="45.8377" lon="4.72608">
        <ele>255.05252</ele>
        <time>2022-09-12T14:14:19.000Z</time>
      </trkpt>
      <trkpt lat="45.83766" lon="4.72611">
        <ele>255.28963</ele>
        <time>2022-09-12T14:14:20.000Z</time>
      </trkpt>
      <trkpt lat="45.83763" lon="4.72613">
        <ele>255.49986</ele>
        <time>2022-09-12T14:14:21.000Z</time>
      </trkpt>
      <trkpt lat="45.83759" lon="4.72614">
        <ele>255.69288</ele>
        <time>2022-09-12T14:14:22.000Z</time>
      </trkpt>
      <trkpt lat="45.83755" lon="4.72616">
        <ele>255.89622</ele>
        <time>2022-09-12T14:14:23.000Z</time>
      </trkpt>
      <trkpt lat="45.83751" lon="4.72616">
        <ele>256.06536</ele>
        <time>2022-09-12T14:14:24.000Z</time>
      </trkpt>
      <trkpt lat="45.83747" lon="4.72617">
        <ele>256.25706</ele>
        <time>2022-09-12T14:14:25.000Z</time>
      </trkpt>
      <trkpt lat="45.83744" lon="4.72619">
        <ele>256.44993</ele>
        <time>2022-09-12T14:14:26.000Z</time>
      </trkpt>
      <trkpt lat="45.8374" lon="4.72621">
        <ele>256.69207</ele>
        <time>2022-09-12T14:14:27.000Z</time>
      </trkpt>
      <trkpt lat="45.83736" lon="4.72623">
        <ele>256.97598</ele>
        <time>2022-09-12T14:14:28.000Z</time>
      </trkpt>
      <trkpt lat="45.83732" lon="4.72625">
        <ele>257.25599</ele>
        <time>2022-09-12T14:14:29.000Z</time>
      </trkpt>
      <trkpt lat="45.83728" lon="4.72627">
        <ele>257.47923</ele>
        <time>2022-09-12T14:14:30.000Z</time>
      </trkpt>
      <trkpt lat="45.83725" lon="4.72628">
        <ele>257.69718</ele>
        <time>2022-09-12T14:14:31.000Z</time>
      </trkpt>
      <trkpt lat="45.83721" lon="4.72629">
        <ele>257.89376</ele>
        <time>2022-09-12T14:14:32.000Z</time>
      </trkpt>
      <trkpt lat="45.83717" lon="4.7263">
        <ele>258.10023</ele>
        <time>2022-09-12T14:14:33.000Z</time>
      </trkpt>
      <trkpt lat="45.83714" lon="4.72632">
        <ele>258.303</ele>
        <time>2022-09-12T14:14:34.000Z</time>
      </trkpt>
      <trkpt lat="45.83711" lon="4.72632">
        <ele>258.48617</ele>
        <time>2022-09-12T14:14:35.000Z</time>
      </trkpt>
      <trkpt lat="45.83707" lon="4.72633">
        <ele>258.69147</ele>
        <time>2022-09-12T14:14:36.000Z</time>
      </trkpt>
      <trkpt lat="45.83704" lon="4.72634">
        <ele>258.93548</ele>
        <time>2022-09-12T14:14:37.000Z</time>
      </trkpt>
      <trkpt lat="45.837" lon="4.72635">
        <ele>259.21237</ele>
        <time>2022-09-12T14:14:38.000Z</time>
      </trkpt>
      <trkpt lat="45.83696" lon="4.72636">
        <ele>259.51044</ele>
        <time>2022-09-12T14:14:39.000Z</time>
      </trkpt>
      <trkpt lat="45.83692" lon="4.72636">
        <ele>259.74092</ele>
        <time>2022-09-12T14:14:40.000Z</time>
      </trkpt>
      <trkpt lat="45.83689" lon="4.72637">
        <ele>259.9602</ele>
        <time>2022-09-12T14:14:41.000Z</time>
      </trkpt>
      <trkpt lat="45.83685" lon="4.72638">
        <ele>260.18134</ele>
        <time>2022-09-12T14:14:42.000Z</time>
      </trkpt>
      <trkpt lat="45.83681" lon="4.72639">
        <ele>260.4585</ele>
        <time>2022-09-12T14:14:43.000Z</time>
      </trkpt>
      <trkpt lat="45.83675" lon="4.72641">
        <ele>260.7769</ele>
        <time>2022-09-12T14:14:44.000Z</time>
      </trkpt>
      <trkpt lat="45.8367" lon="4.72644">
        <ele>261.07387</ele>
        <time>2022-09-12T14:14:45.000Z</time>
      </trkpt>
      <trkpt lat="45.83666" lon="4.72645">
        <ele>261.35546</ele>
        <time>2022-09-12T14:14:46.000Z</time>
      </trkpt>
      <trkpt lat="45.83662" lon="4.72648">
        <ele>261.63356</ele>
        <time>2022-09-12T14:14:47.000Z</time>
      </trkpt>
      <trkpt lat="45.83658" lon="4.7265">
        <ele>261.91078</ele>
        <time>2022-09-12T14:14:48.000Z</time>
      </trkpt>
      <trkpt lat="45.83654" lon="4.72653">
        <ele>262.19925</ele>
        <time>2022-09-12T14:14:49.000Z</time>
      </trkpt>
      <trkpt lat="45.8365" lon="4.72657">
        <ele>262.49508</ele>
        <time>2022-09-12T14:14:50.000Z</time>
      </trkpt>
      <trkpt lat="45.83647" lon="4.72661">
        <ele>262.79055</ele>
        <time>2022-09-12T14:14:51.000Z</time>
      </trkpt>
      <trkpt lat="45.83643" lon="4.72665">
        <ele>263.11227</ele>
        <time>2022-09-12T14:14:52.000Z</time>
      </trkpt>
      <trkpt lat="45.8364" lon="4.72669">
        <ele>263.42437</ele>
        <time>2022-09-12T14:14:53.000Z</time>
      </trkpt>
      <trkpt lat="45.83637" lon="4.72672">
        <ele>263.69985</ele>
        <time>2022-09-12T14:14:54.000Z</time>
      </trkpt>
      <trkpt lat="45.83633" lon="4.72675">
        <ele>263.97929</ele>
        <time>2022-09-12T14:14:55.000Z</time>
      </trkpt>
      <trkpt lat="45.8363" lon="4.72677">
        <ele>264.25704</ele>
        <time>2022-09-12T14:14:56.000Z</time>
      </trkpt>
      <trkpt lat="45.83627" lon="4.72678">
        <ele>264.53695</ele>
        <time>2022-09-12T14:14:57.000Z</time>
      </trkpt>
      <trkpt lat="45.83625" lon="4.72679">
        <ele>264.78639</ele>
        <time>2022-09-12T14:14:58.000Z</time>
      </trkpt>
      <trkpt lat="45.83622" lon="4.7268">
        <ele>265.02504</ele>
        <time>2022-09-12T14:14:59.000Z</time>
      </trkpt>
      <trkpt lat="45.83618" lon="4.72682">
        <ele>265.2904</ele>
        <time>2022-09-12T14:15:00.000Z</time>
      </trkpt>
      <trkpt lat="45.83615" lon="4.72684">
        <ele>265.54757</ele>
        <time>2022-09-12T14:15:01.000Z</time>
      </trkpt>
      <trkpt lat="45.83611" lon="4.72687">
        <ele>265.75573</ele>
        <time>2022-09-12T14:15:02.000Z</time>
      </trkpt>
      <trkpt lat="45.83608" lon="4.7269">
        <ele>265.96988</ele>
        <time>2022-09-12T14:15:03.000Z</time>
      </trkpt>
      <trkpt lat="45.83603" lon="4.72694">
        <ele>266.24187</ele>
        <time>2022-09-12T14:15:04.000Z</time>
      </trkpt>
      <trkpt lat="45.83592" lon="4.72702">
        <ele>267.05128</ele>
        <time>2022-09-12T14:15:05.000Z</time>
      </trkpt>
      <trkpt lat="45.83586" lon="4.72704">
        <ele>267.69424</ele>
        <time>2022-09-12T14:15:06.000Z</time>
      </trkpt>
      <trkpt lat="45.8358" lon="4.72709">
        <ele>267.99273</ele>
        <time>2022-09-12T14:15:07.000Z</time>
      </trkpt>
      <trkpt lat="45.83574" lon="4.72712">
        <ele>268.27198</ele>
        <time>2022-09-12T14:15:08.000Z</time>
      </trkpt>
      <trkpt lat="45.83571" lon="4.72716">
        <ele>268.10947</ele>
        <time>2022-09-12T14:15:09.000Z</time>
      </trkpt>
      <trkpt lat="45.83565" lon="4.72718">
        <ele>268.38528</ele>
        <time>2022-09-12T14:15:10.000Z</time>
      </trkpt>
      <trkpt lat="45.83558" lon="4.72724">
        <ele>268.14869</ele>
        <time>2022-09-12T14:15:11.000Z</time>
      </trkpt>
      <trkpt lat="45.83553" lon="4.72725">
        <ele>268.48716</ele>
        <time>2022-09-12T14:15:12.000Z</time>
      </trkpt>
      <trkpt lat="45.83547" lon="4.72724">
        <ele>269.17753</ele>
        <time>2022-09-12T14:15:13.000Z</time>
      </trkpt>
      <trkpt lat="45.83541" lon="4.72727">
        <ele>269.26032</ele>
        <time>2022-09-12T14:15:14.000Z</time>
      </trkpt>
      <trkpt lat="45.83535" lon="4.72728">
        <ele>269.47616</ele>
        <time>2022-09-12T14:15:15.000Z</time>
      </trkpt>
      <trkpt lat="45.83532" lon="4.72729">
        <ele>269.61093</ele>
        <time>2022-09-12T14:15:16.000Z</time>
      </trkpt>
      <trkpt lat="45.83528" lon="4.7273">
        <ele>269.6978</ele>
        <time>2022-09-12T14:15:17.000Z</time>
      </trkpt>
      <trkpt lat="45.83523" lon="4.72733">
        <ele>269.65809</ele>
        <time>2022-09-12T14:15:18.000Z</time>
      </trkpt>
      <trkpt lat="45.83519" lon="4.72736">
        <ele>269.44004</ele>
        <time>2022-09-12T14:15:19.000Z</time>
      </trkpt>
      <trkpt lat="45.83513" lon="4.72741">
        <ele>268.96183</ele>
        <time>2022-09-12T14:15:20.000Z</time>
      </trkpt>
      <trkpt lat="45.83509" lon="4.72742">
        <ele>269.10572</ele>
        <time>2022-09-12T14:15:21.000Z</time>
      </trkpt>
      <trkpt lat="45.83504" lon="4.72743">
        <ele>269.11589</ele>
        <time>2022-09-12T14:15:22.000Z</time>
      </trkpt>
      <trkpt lat="45.835" lon="4.72746">
        <ele>268.86901</ele>
        <time>2022-09-12T14:15:23.000Z</time>
      </trkpt>
      <trkpt lat="45.83496" lon="4.72748">
        <ele>268.63403</ele>
        <time>2022-09-12T14:15:24.000Z</time>
      </trkpt>
      <trkpt lat="45.83491" lon="4.72749">
        <ele>268.75456</ele>
        <time>2022-09-12T14:15:25.000Z</time>
      </trkpt>
      <trkpt lat="45.83486" lon="4.72751">
        <ele>268.77004</ele>
        <time>2022-09-12T14:15:26.000Z</time>
      </trkpt>
      <trkpt lat="45.83482" lon="4.72751">
        <ele>269.01558</ele>
        <time>2022-09-12T14:15:27.000Z</time>
      </trkpt>
      <trkpt lat="45.83478" lon="4.72751">
        <ele>269.14843</ele>
        <time>2022-09-12T14:15:28.000Z</time>
      </trkpt>
      <trkpt lat="45.83473" lon="4.72753">
        <ele>269.17151</ele>
        <time>2022-09-12T14:15:29.000Z</time>
      </trkpt>
      <trkpt lat="45.83469" lon="4.72754">
        <ele>269.19794</ele>
        <time>2022-09-12T14:15:30.000Z</time>
      </trkpt>
      <trkpt lat="45.83465" lon="4.72755">
        <ele>269.23187</ele>
        <time>2022-09-12T14:15:31.000Z</time>
      </trkpt>
      <trkpt lat="45.83461" lon="4.72757">
        <ele>269.29215</ele>
        <time>2022-09-12T14:15:32.000Z</time>
      </trkpt>
      <trkpt lat="45.83456" lon="4.72759">
        <ele>269.35406</ele>
        <time>2022-09-12T14:15:33.000Z</time>
      </trkpt>
      <trkpt lat="45.83453" lon="4.72761">
        <ele>269.36631</ele>
        <time>2022-09-12T14:15:34.000Z</time>
      </trkpt>
      <trkpt lat="45.8345" lon="4.72763">
        <ele>269.26713</ele>
        <time>2022-09-12T14:15:35.000Z</time>
      </trkpt>
      <trkpt lat="45.83449" lon="4.72766">
        <ele>269.03931</ele>
        <time>2022-09-12T14:15:36.000Z</time>
      </trkpt>
      <trkpt lat="45.83448" lon="4.72771">
        <ele>268.67332</ele>
        <time>2022-09-12T14:15:37.000Z</time>
      </trkpt>
      <trkpt lat="45.83448" lon="4.72775">
        <ele>268.23742</ele>
        <time>2022-09-12T14:15:38.000Z</time>
      </trkpt>
      <trkpt lat="45.83448" lon="4.7278">
        <ele>267.86908</ele>
        <time>2022-09-12T14:15:39.000Z</time>
      </trkpt>
      <trkpt lat="45.83448" lon="4.72784">
        <ele>267.56699</ele>
        <time>2022-09-12T14:15:40.000Z</time>
      </trkpt>
      <trkpt lat="45.83448" lon="4.72787">
        <ele>267.30838</ele>
        <time>2022-09-12T14:15:41.000Z</time>
      </trkpt>
      <trkpt lat="45.83447" lon="4.72792">
        <ele>267.04017</ele>
        <time>2022-09-12T14:15:42.000Z</time>
      </trkpt>
      <trkpt lat="45.83447" lon="4.72796">
        <ele>266.7544</ele>
        <time>2022-09-12T14:15:43.000Z</time>
      </trkpt>
      <trkpt lat="45.83447" lon="4.72801">
        <ele>266.47782</ele>
        <time>2022-09-12T14:15:44.000Z</time>
      </trkpt>
      <trkpt lat="45.83447" lon="4.72806">
        <ele>266.26507</ele>
        <time>2022-09-12T14:15:45.000Z</time>
      </trkpt>
      <trkpt lat="45.83446" lon="4.7281">
        <ele>266.10255</ele>
        <time>2022-09-12T14:15:46.000Z</time>
      </trkpt>
      <trkpt lat="45.83446" lon="4.72813">
        <ele>265.98307</ele>
        <time>2022-09-12T14:15:47.000Z</time>
      </trkpt>
      <trkpt lat="45.83446" lon="4.72816">
        <ele>265.86621</ele>
        <time>2022-09-12T14:15:48.000Z</time>
      </trkpt>
      <trkpt lat="45.83446" lon="4.7282">
        <ele>265.74042</ele>
        <time>2022-09-12T14:15:49.000Z</time>
      </trkpt>
      <trkpt lat="45.83447" lon="4.72823">
        <ele>265.59196</ele>
        <time>2022-09-12T14:15:50.000Z</time>
      </trkpt>
      <trkpt lat="45.83448" lon="4.72828">
        <ele>265.45526</ele>
        <time>2022-09-12T14:15:51.000Z</time>
      </trkpt>
      <trkpt lat="45.83449" lon="4.72833">
        <ele>265.38251</ele>
        <time>2022-09-12T14:15:52.000Z</time>
      </trkpt>
      <trkpt lat="45.83449" lon="4.72838">
        <ele>265.4229</ele>
        <time>2022-09-12T14:15:53.000Z</time>
      </trkpt>
      <trkpt lat="45.83449" lon="4.72844">
        <ele>265.63548</ele>
        <time>2022-09-12T14:15:54.000Z</time>
      </trkpt>
      <trkpt lat="45.8345" lon="4.72849">
        <ele>265.8855</ele>
        <time>2022-09-12T14:15:55.000Z</time>
      </trkpt>
      <trkpt lat="45.8345" lon="4.72853">
        <ele>266.0899</ele>
        <time>2022-09-12T14:15:56.000Z</time>
      </trkpt>
      <trkpt lat="45.8345" lon="4.72857">
        <ele>266.3412</ele>
        <time>2022-09-12T14:15:57.000Z</time>
      </trkpt>
      <trkpt lat="45.83451" lon="4.72862">
        <ele>266.65749</ele>
        <time>2022-09-12T14:15:58.000Z</time>
      </trkpt>
      <trkpt lat="45.83451" lon="4.72867">
        <ele>267.01311</ele>
        <time>2022-09-12T14:15:59.000Z</time>
      </trkpt>
      <trkpt lat="45.83452" lon="4.72874">
        <ele>267.50159</ele>
        <time>2022-09-12T14:16:00.000Z</time>
      </trkpt>
      <trkpt lat="45.83453" lon="4.72881">
        <ele>268.12692</ele>
        <time>2022-09-12T14:16:01.000Z</time>
      </trkpt>
      <trkpt lat="45.83453" lon="4.72888">
        <ele>268.758</ele>
        <time>2022-09-12T14:16:02.000Z</time>
      </trkpt>
      <trkpt lat="45.83454" lon="4.72894">
        <ele>269.30637</ele>
        <time>2022-09-12T14:16:03.000Z</time>
      </trkpt>
      <trkpt lat="45.83454" lon="4.729">
        <ele>269.85627</ele>
        <time>2022-09-12T14:16:04.000Z</time>
      </trkpt>
      <trkpt lat="45.83455" lon="4.72906">
        <ele>270.49672</ele>
        <time>2022-09-12T14:16:05.000Z</time>
      </trkpt>
      <trkpt lat="45.83457" lon="4.72912">
        <ele>271.16932</ele>
        <time>2022-09-12T14:16:06.000Z</time>
      </trkpt>
      <trkpt lat="45.83458" lon="4.72918">
        <ele>271.80943</ele>
        <time>2022-09-12T14:16:07.000Z</time>
      </trkpt>
      <trkpt lat="45.83459" lon="4.72924">
        <ele>272.37321</ele>
        <time>2022-09-12T14:16:08.000Z</time>
      </trkpt>
      <trkpt lat="45.8346" lon="4.72929">
        <ele>272.84524</ele>
        <time>2022-09-12T14:16:09.000Z</time>
      </trkpt>
      <trkpt lat="45.8346" lon="4.72934">
        <ele>273.27542</ele>
        <time>2022-09-12T14:16:10.000Z</time>
      </trkpt>
      <trkpt lat="45.83461" lon="4.7294">
        <ele>273.70162</ele>
        <time>2022-09-12T14:16:11.000Z</time>
      </trkpt>
      <trkpt lat="45.83462" lon="4.72946">
        <ele>274.08955</ele>
        <time>2022-09-12T14:16:12.000Z</time>
      </trkpt>
      <trkpt lat="45.83463" lon="4.72951">
        <ele>274.44915</ele>
        <time>2022-09-12T14:16:13.000Z</time>
      </trkpt>
      <trkpt lat="45.83464" lon="4.72957">
        <ele>274.7524</ele>
        <time>2022-09-12T14:16:14.000Z</time>
      </trkpt>
      <trkpt lat="45.83465" lon="4.72962">
        <ele>275.02425</ele>
        <time>2022-09-12T14:16:15.000Z</time>
      </trkpt>
      <trkpt lat="45.83466" lon="4.72968">
        <ele>275.24662</ele>
        <time>2022-09-12T14:16:16.000Z</time>
      </trkpt>
      <trkpt lat="45.83468" lon="4.72973">
        <ele>275.38594</ele>
        <time>2022-09-12T14:16:17.000Z</time>
      </trkpt>
      <trkpt lat="45.83469" lon="4.72978">
        <ele>275.49637</ele>
        <time>2022-09-12T14:16:18.000Z</time>
      </trkpt>
      <trkpt lat="45.83471" lon="4.72983">
        <ele>275.52203</ele>
        <time>2022-09-12T14:16:19.000Z</time>
      </trkpt>
      <trkpt lat="45.83474" lon="4.72989">
        <ele>275.50276</ele>
        <time>2022-09-12T14:16:20.000Z</time>
      </trkpt>
      <trkpt lat="45.83476" lon="4.72995">
        <ele>275.52089</ele>
        <time>2022-09-12T14:16:21.000Z</time>
      </trkpt>
      <trkpt lat="45.83478" lon="4.73001">
        <ele>275.54313</ele>
        <time>2022-09-12T14:16:22.000Z</time>
      </trkpt>
      <trkpt lat="45.83481" lon="4.73007">
        <ele>275.59817</ele>
        <time>2022-09-12T14:16:23.000Z</time>
      </trkpt>
      <trkpt lat="45.83484" lon="4.73013">
        <ele>275.60911</ele>
        <time>2022-09-12T14:16:24.000Z</time>
      </trkpt>
      <trkpt lat="45.83488" lon="4.73019">
        <ele>275.5368</ele>
        <time>2022-09-12T14:16:25.000Z</time>
      </trkpt>
      <trkpt lat="45.83492" lon="4.73024">
        <ele>275.42164</ele>
        <time>2022-09-12T14:16:26.000Z</time>
      </trkpt>
      <trkpt lat="45.83496" lon="4.73028">
        <ele>275.34489</ele>
        <time>2022-09-12T14:16:27.000Z</time>
      </trkpt>
      <trkpt lat="45.835" lon="4.73033">
        <ele>275.41109</ele>
        <time>2022-09-12T14:16:28.000Z</time>
      </trkpt>
      <trkpt lat="45.83504" lon="4.73039">
        <ele>275.74189</ele>
        <time>2022-09-12T14:16:29.000Z</time>
      </trkpt>
      <trkpt lat="45.83508" lon="4.73044">
        <ele>276.17191</ele>
        <time>2022-09-12T14:16:30.000Z</time>
      </trkpt>
      <trkpt lat="45.83513" lon="4.73048">
        <ele>276.68248</ele>
        <time>2022-09-12T14:16:31.000Z</time>
      </trkpt>
      <trkpt lat="45.83517" lon="4.73052">
        <ele>277.19995</ele>
        <time>2022-09-12T14:16:32.000Z</time>
      </trkpt>
      <trkpt lat="45.8352" lon="4.73055">
        <ele>277.66135</ele>
        <time>2022-09-12T14:16:33.000Z</time>
      </trkpt>
      <trkpt lat="45.83524" lon="4.73057">
        <ele>278.04608</ele>
        <time>2022-09-12T14:16:34.000Z</time>
      </trkpt>
      <trkpt lat="45.83529" lon="4.73058">
        <ele>278.42805</ele>
        <time>2022-09-12T14:16:35.000Z</time>
      </trkpt>
      <trkpt lat="45.83533" lon="4.73059">
        <ele>278.81158</ele>
        <time>2022-09-12T14:16:36.000Z</time>
      </trkpt>
      <trkpt lat="45.83536" lon="4.7306">
        <ele>279.13689</ele>
        <time>2022-09-12T14:16:37.000Z</time>
      </trkpt>
      <trkpt lat="45.83539" lon="4.73061">
        <ele>279.42841</ele>
        <time>2022-09-12T14:16:38.000Z</time>
      </trkpt>
      <trkpt lat="45.83542" lon="4.73061">
        <ele>279.64337</ele>
        <time>2022-09-12T14:16:39.000Z</time>
      </trkpt>
      <trkpt lat="45.83544" lon="4.73061">
        <ele>279.78965</ele>
        <time>2022-09-12T14:16:40.000Z</time>
      </trkpt>
      <trkpt lat="45.83548" lon="4.73059">
        <ele>279.94062</ele>
        <time>2022-09-12T14:16:41.000Z</time>
      </trkpt>
      <trkpt lat="45.83552" lon="4.73058">
        <ele>280.10078</ele>
        <time>2022-09-12T14:16:42.000Z</time>
      </trkpt>
      <trkpt lat="45.83556" lon="4.73057">
        <ele>280.25409</ele>
        <time>2022-09-12T14:16:43.000Z</time>
      </trkpt>
      <trkpt lat="45.8356" lon="4.73056">
        <ele>280.39191</ele>
        <time>2022-09-12T14:16:44.000Z</time>
      </trkpt>
      <trkpt lat="45.83564" lon="4.73055">
        <ele>280.50399</ele>
        <time>2022-09-12T14:16:45.000Z</time>
      </trkpt>
      <trkpt lat="45.83568" lon="4.73055">
        <ele>280.57212</ele>
        <time>2022-09-12T14:16:46.000Z</time>
      </trkpt>
      <trkpt lat="45.83571" lon="4.73054">
        <ele>280.59921</ele>
        <time>2022-09-12T14:16:47.000Z</time>
      </trkpt>
      <trkpt lat="45.83574" lon="4.73054">
        <ele>280.60598</ele>
        <time>2022-09-12T14:16:48.000Z</time>
      </trkpt>
      <trkpt lat="45.83576" lon="4.73054">
        <ele>280.60082</ele>
        <time>2022-09-12T14:16:49.000Z</time>
      </trkpt>
      <trkpt lat="45.83578" lon="4.73054">
        <ele>280.57713</ele>
        <time>2022-09-12T14:16:50.000Z</time>
      </trkpt>
      <trkpt lat="45.8358" lon="4.73055">
        <ele>280.54589</ele>
        <time>2022-09-12T14:16:51.000Z</time>
      </trkpt>
      <trkpt lat="45.83582" lon="4.73055">
        <ele>280.49901</ele>
        <time>2022-09-12T14:16:52.000Z</time>
      </trkpt>
      <trkpt lat="45.83585" lon="4.73055">
        <ele>280.43537</ele>
        <time>2022-09-12T14:16:53.000Z</time>
      </trkpt>
      <trkpt lat="45.83583" lon="4.73055">
        <ele>280.49147</ele>
        <time>2022-09-12T14:16:56.000Z</time>
      </trkpt>
      <trkpt lat="45.83585" lon="4.73058">
        <ele>280.45475</ele>
        <time>2022-09-12T14:17:04.000Z</time>
      </trkpt>
      <trkpt lat="45.83587" lon="4.73059">
        <ele>280.39671</ele>
        <time>2022-09-12T14:17:05.000Z</time>
      </trkpt>
      <trkpt lat="45.8359" lon="4.7306">
        <ele>280.28079</ele>
        <time>2022-09-12T14:17:07.000Z</time>
      </trkpt>
      <trkpt lat="45.83592" lon="4.7306">
        <ele>280.19111</ele>
        <time>2022-09-12T14:17:08.000Z</time>
      </trkpt>
      <trkpt lat="45.83594" lon="4.7306">
        <ele>280.0697</ele>
        <time>2022-09-12T14:17:09.000Z</time>
      </trkpt>
      <trkpt lat="45.83597" lon="4.73059">
        <ele>279.9291</ele>
        <time>2022-09-12T14:17:10.000Z</time>
      </trkpt>
      <trkpt lat="45.836" lon="4.73057">
        <ele>279.73528</ele>
        <time>2022-09-12T14:17:11.000Z</time>
      </trkpt>
      <trkpt lat="45.83603" lon="4.73056">
        <ele>279.53998</ele>
        <time>2022-09-12T14:17:12.000Z</time>
      </trkpt>
      <trkpt lat="45.83606" lon="4.73055">
        <ele>279.30116</ele>
        <time>2022-09-12T14:17:13.000Z</time>
      </trkpt>
      <trkpt lat="45.83609" lon="4.73054">
        <ele>279.03654</ele>
        <time>2022-09-12T14:17:14.000Z</time>
      </trkpt>
      <trkpt lat="45.83612" lon="4.73053">
        <ele>278.7976</ele>
        <time>2022-09-12T14:17:15.000Z</time>
      </trkpt>
      <trkpt lat="45.83614" lon="4.73052">
        <ele>278.58279</ele>
        <time>2022-09-12T14:17:16.000Z</time>
      </trkpt>
      <trkpt lat="45.83616" lon="4.73051">
        <ele>278.39989</ele>
        <time>2022-09-12T14:17:17.000Z</time>
      </trkpt>
      <trkpt lat="45.83618" lon="4.73049">
        <ele>278.21291</ele>
        <time>2022-09-12T14:17:18.000Z</time>
      </trkpt>
      <trkpt lat="45.8362" lon="4.73047">
        <ele>278.00312</ele>
        <time>2022-09-12T14:17:19.000Z</time>
      </trkpt>
      <trkpt lat="45.83622" lon="4.73045">
        <ele>277.80775</ele>
        <time>2022-09-12T14:17:20.000Z</time>
      </trkpt>
      <trkpt lat="45.83625" lon="4.73043">
        <ele>277.52885</ele>
        <time>2022-09-12T14:17:21.000Z</time>
      </trkpt>
      <trkpt lat="45.83629" lon="4.7304">
        <ele>277.16465</ele>
        <time>2022-09-12T14:17:22.000Z</time>
      </trkpt>
      <trkpt lat="45.83632" lon="4.73038">
        <ele>276.78867</ele>
        <time>2022-09-12T14:17:23.000Z</time>
      </trkpt>
      <trkpt lat="45.83637" lon="4.73036">
        <ele>276.32873</ele>
        <time>2022-09-12T14:17:24.000Z</time>
      </trkpt>
      <trkpt lat="45.83641" lon="4.73035">
        <ele>275.80276</ele>
        <time>2022-09-12T14:17:25.000Z</time>
      </trkpt>
      <trkpt lat="45.83646" lon="4.73035">
        <ele>275.17382</ele>
        <time>2022-09-12T14:17:26.000Z</time>
      </trkpt>
      <trkpt lat="45.83651" lon="4.73034">
        <ele>274.53969</ele>
        <time>2022-09-12T14:17:27.000Z</time>
      </trkpt>
      <trkpt lat="45.83655" lon="4.73033">
        <ele>273.98246</ele>
        <time>2022-09-12T14:17:28.000Z</time>
      </trkpt>
      <trkpt lat="45.83658" lon="4.73033">
        <ele>273.50377</ele>
        <time>2022-09-12T14:17:29.000Z</time>
      </trkpt>
      <trkpt lat="45.83667" lon="4.73032">
        <ele>272.32623</ele>
        <time>2022-09-12T14:17:30.000Z</time>
      </trkpt>
      <trkpt lat="45.83671" lon="4.73032">
        <ele>271.64627</ele>
        <time>2022-09-12T14:17:31.000Z</time>
      </trkpt>
      <trkpt lat="45.83677" lon="4.73031">
        <ele>270.84241</ele>
        <time>2022-09-12T14:17:32.000Z</time>
      </trkpt>
      <trkpt lat="45.83684" lon="4.7303">
        <ele>269.99434</ele>
        <time>2022-09-12T14:17:33.000Z</time>
      </trkpt>
      <trkpt lat="45.8369" lon="4.73031">
        <ele>269.13819</ele>
        <time>2022-09-12T14:17:34.000Z</time>
      </trkpt>
      <trkpt lat="45.83696" lon="4.7303">
        <ele>268.38333</ele>
        <time>2022-09-12T14:17:35.000Z</time>
      </trkpt>
      <trkpt lat="45.83705" lon="4.73026">
        <ele>267.52952</ele>
        <time>2022-09-12T14:17:36.000Z</time>
      </trkpt>
      <trkpt lat="45.83712" lon="4.73024">
        <ele>266.86966</ele>
        <time>2022-09-12T14:17:37.000Z</time>
      </trkpt>
      <trkpt lat="45.83721" lon="4.73024">
        <ele>266.17083</ele>
        <time>2022-09-12T14:17:38.000Z</time>
      </trkpt>
      <trkpt lat="45.83724" lon="4.73024">
        <ele>265.98661</ele>
        <time>2022-09-12T14:17:39.000Z</time>
      </trkpt>
      <trkpt lat="45.8373" lon="4.73024">
        <ele>265.74413</ele>
        <time>2022-09-12T14:17:40.000Z</time>
      </trkpt>
      <trkpt lat="45.83728" lon="4.73028">
        <ele>265.87321</ele>
        <time>2022-09-12T14:17:41.000Z</time>
      </trkpt>
      <trkpt lat="45.8373" lon="4.73028">
        <ele>265.81421</ele>
        <time>2022-09-12T14:17:42.000Z</time>
      </trkpt>
      <trkpt lat="45.83732" lon="4.73029">
        <ele>265.80365</ele>
        <time>2022-09-12T14:17:44.000Z</time>
      </trkpt>
      <trkpt lat="45.83735" lon="4.7303">
        <ele>265.7984</ele>
        <time>2022-09-12T14:17:45.000Z</time>
      </trkpt>
      <trkpt lat="45.83737" lon="4.7303">
        <ele>265.75739</ele>
        <time>2022-09-12T14:17:47.000Z</time>
      </trkpt>
      <trkpt lat="45.83738" lon="4.73033">
        <ele>265.85993</ele>
        <time>2022-09-12T14:17:52.000Z</time>
      </trkpt>
      <trkpt lat="45.83739" lon="4.73035">
        <ele>265.95653</ele>
        <time>2022-09-12T14:18:02.000Z</time>
      </trkpt>
      <trkpt lat="45.83741" lon="4.73038">
        <ele>266.11627</ele>
        <time>2022-09-12T14:19:53.000Z</time>
      </trkpt>
      <trkpt lat="45.83743" lon="4.73043">
        <ele>266.38457</ele>
        <time>2022-09-12T14:19:54.000Z</time>
      </trkpt>
      <trkpt lat="45.83744" lon="4.73047">
        <ele>266.62617</ele>
        <time>2022-09-12T14:19:55.000Z</time>
      </trkpt>
      <trkpt lat="45.83745" lon="4.73052">
        <ele>266.94082</ele>
        <time>2022-09-12T14:19:56.000Z</time>
      </trkpt>
      <trkpt lat="45.83746" lon="4.73058">
        <ele>267.4008</ele>
        <time>2022-09-12T14:19:57.000Z</time>
      </trkpt>
      <trkpt lat="45.83747" lon="4.73063">
        <ele>267.89659</ele>
        <time>2022-09-12T14:19:58.000Z</time>
      </trkpt>
      <trkpt lat="45.83747" lon="4.73068">
        <ele>268.40232</ele>
        <time>2022-09-12T14:19:59.000Z</time>
      </trkpt>
      <trkpt lat="45.83747" lon="4.73073">
        <ele>268.92148</ele>
        <time>2022-09-12T14:20:00.000Z</time>
      </trkpt>
      <trkpt lat="45.83747" lon="4.73078">
        <ele>269.41552</ele>
        <time>2022-09-12T14:20:01.000Z</time>
      </trkpt>
      <trkpt lat="45.83746" lon="4.73082">
        <ele>269.92934</ele>
        <time>2022-09-12T14:20:02.000Z</time>
      </trkpt>
      <trkpt lat="45.83746" lon="4.73087">
        <ele>270.55359</ele>
        <time>2022-09-12T14:20:03.000Z</time>
      </trkpt>
      <trkpt lat="45.83747" lon="4.73093">
        <ele>271.33003</ele>
        <time>2022-09-12T14:20:04.000Z</time>
      </trkpt>
      <trkpt lat="45.83748" lon="4.73098">
        <ele>272.13203</ele>
        <time>2022-09-12T14:20:05.000Z</time>
      </trkpt>
      <trkpt lat="45.8375" lon="4.73103">
        <ele>272.93043</ele>
        <time>2022-09-12T14:20:06.000Z</time>
      </trkpt>
      <trkpt lat="45.83752" lon="4.73106">
        <ele>273.62127</ele>
        <time>2022-09-12T14:20:07.000Z</time>
      </trkpt>
      <trkpt lat="45.83754" lon="4.7311">
        <ele>274.16986</ele>
        <time>2022-09-12T14:20:08.000Z</time>
      </trkpt>
      <trkpt lat="45.83756" lon="4.73112">
        <ele>274.604</ele>
        <time>2022-09-12T14:20:09.000Z</time>
      </trkpt>
      <trkpt lat="45.83758" lon="4.73114">
        <ele>275.02308</ele>
        <time>2022-09-12T14:20:10.000Z</time>
      </trkpt>
      <trkpt lat="45.8376" lon="4.73117">
        <ele>275.4359</ele>
        <time>2022-09-12T14:20:11.000Z</time>
      </trkpt>
      <trkpt lat="45.83762" lon="4.7312">
        <ele>275.87212</ele>
        <time>2022-09-12T14:20:12.000Z</time>
      </trkpt>
      <trkpt lat="45.83764" lon="4.73123">
        <ele>276.31479</ele>
        <time>2022-09-12T14:20:13.000Z</time>
      </trkpt>
      <trkpt lat="45.83765" lon="4.73127">
        <ele>276.7267</ele>
        <time>2022-09-12T14:20:14.000Z</time>
      </trkpt>
      <trkpt lat="45.83767" lon="4.7313">
        <ele>277.09007</ele>
        <time>2022-09-12T14:20:15.000Z</time>
      </trkpt>
      <trkpt lat="45.83768" lon="4.73134">
        <ele>277.46811</ele>
        <time>2022-09-12T14:20:16.000Z</time>
      </trkpt>
      <trkpt lat="45.8377" lon="4.73138">
        <ele>277.87194</ele>
        <time>2022-09-12T14:20:17.000Z</time>
      </trkpt>
      <trkpt lat="45.83771" lon="4.73142">
        <ele>278.26331</ele>
        <time>2022-09-12T14:20:18.000Z</time>
      </trkpt>
      <trkpt lat="45.83773" lon="4.73147">
        <ele>278.70217</ele>
        <time>2022-09-12T14:20:19.000Z</time>
      </trkpt>
      <trkpt lat="45.83775" lon="4.73151">
        <ele>279.0727</ele>
        <time>2022-09-12T14:20:20.000Z</time>
      </trkpt>
      <trkpt lat="45.83776" lon="4.73156">
        <ele>279.39641</ele>
        <time>2022-09-12T14:20:21.000Z</time>
      </trkpt>
      <trkpt lat="45.83776" lon="4.7316">
        <ele>279.63289</ele>
        <time>2022-09-12T14:20:22.000Z</time>
      </trkpt>
      <trkpt lat="45.83776" lon="4.73164">
        <ele>279.83286</ele>
        <time>2022-09-12T14:20:23.000Z</time>
      </trkpt>
      <trkpt lat="45.83777" lon="4.73168">
        <ele>280.03615</ele>
        <time>2022-09-12T14:20:24.000Z</time>
      </trkpt>
      <trkpt lat="45.83778" lon="4.73172">
        <ele>280.20317</ele>
        <time>2022-09-12T14:20:25.000Z</time>
      </trkpt>
      <trkpt lat="45.83778" lon="4.73176">
        <ele>280.3248</ele>
        <time>2022-09-12T14:20:26.000Z</time>
      </trkpt>
      <trkpt lat="45.83777" lon="4.7318">
        <ele>280.42539</ele>
        <time>2022-09-12T14:20:27.000Z</time>
      </trkpt>
      <trkpt lat="45.83776" lon="4.73183">
        <ele>280.49821</ele>
        <time>2022-09-12T14:20:28.000Z</time>
      </trkpt>
      <trkpt lat="45.83775" lon="4.73185">
        <ele>280.5526</ele>
        <time>2022-09-12T14:20:29.000Z</time>
      </trkpt>
      <trkpt lat="45.83773" lon="4.73188">
        <ele>280.60011</ele>
        <time>2022-09-12T14:20:30.000Z</time>
      </trkpt>
      <trkpt lat="45.83771" lon="4.73191">
        <ele>280.64159</ele>
        <time>2022-09-12T14:20:31.000Z</time>
      </trkpt>
      <trkpt lat="45.83769" lon="4.73194">
        <ele>280.6733</ele>
        <time>2022-09-12T14:20:32.000Z</time>
      </trkpt>
      <trkpt lat="45.83767" lon="4.73196">
        <ele>280.69291</ele>
        <time>2022-09-12T14:20:33.000Z</time>
      </trkpt>
      <trkpt lat="45.83765" lon="4.73198">
        <ele>280.69611</ele>
        <time>2022-09-12T14:20:34.000Z</time>
      </trkpt>
      <trkpt lat="45.83762" lon="4.73201">
        <ele>280.69053</ele>
        <time>2022-09-12T14:20:35.000Z</time>
      </trkpt>
      <trkpt lat="45.8376" lon="4.73203">
        <ele>280.68106</ele>
        <time>2022-09-12T14:20:36.000Z</time>
      </trkpt>
      <trkpt lat="45.83757" lon="4.73206">
        <ele>280.67313</ele>
        <time>2022-09-12T14:20:37.000Z</time>
      </trkpt>
      <trkpt lat="45.83754" lon="4.73209">
        <ele>280.67146</ele>
        <time>2022-09-12T14:20:38.000Z</time>
      </trkpt>
      <trkpt lat="45.83751" lon="4.73212">
        <ele>280.68598</ele>
        <time>2022-09-12T14:20:39.000Z</time>
      </trkpt>
      <trkpt lat="45.83748" lon="4.73215">
        <ele>280.71671</ele>
        <time>2022-09-12T14:20:40.000Z</time>
      </trkpt>
      <trkpt lat="45.83745" lon="4.73219">
        <ele>280.77689</ele>
        <time>2022-09-12T14:20:41.000Z</time>
      </trkpt>
      <trkpt lat="45.83742" lon="4.73222">
        <ele>280.85764</ele>
        <time>2022-09-12T14:20:42.000Z</time>
      </trkpt>
      <trkpt lat="45.83739" lon="4.73225">
        <ele>280.95241</ele>
        <time>2022-09-12T14:20:43.000Z</time>
      </trkpt>
      <trkpt lat="45.83737" lon="4.73228">
        <ele>281.05383</ele>
        <time>2022-09-12T14:20:44.000Z</time>
      </trkpt>
      <trkpt lat="45.83735" lon="4.73231">
        <ele>281.16408</ele>
        <time>2022-09-12T14:20:45.000Z</time>
      </trkpt>
      <trkpt lat="45.83732" lon="4.73234">
        <ele>281.28646</ele>
        <time>2022-09-12T14:20:46.000Z</time>
      </trkpt>
      <trkpt lat="45.8373" lon="4.73237">
        <ele>281.42428</ele>
        <time>2022-09-12T14:20:47.000Z</time>
      </trkpt>
      <trkpt lat="45.83727" lon="4.7324">
        <ele>281.5688</ele>
        <time>2022-09-12T14:20:48.000Z</time>
      </trkpt>
      <trkpt lat="45.83725" lon="4.73243">
        <ele>281.69848</ele>
        <time>2022-09-12T14:20:49.000Z</time>
      </trkpt>
      <trkpt lat="45.83723" lon="4.73245">
        <ele>281.81428</ele>
        <time>2022-09-12T14:20:50.000Z</time>
      </trkpt>
      <trkpt lat="45.83721" lon="4.73246">
        <ele>281.91341</ele>
        <time>2022-09-12T14:20:51.000Z</time>
      </trkpt>
      <trkpt lat="45.83718" lon="4.73249">
        <ele>282.03995</ele>
        <time>2022-09-12T14:20:52.000Z</time>
      </trkpt>
      <trkpt lat="45.83716" lon="4.73251">
        <ele>282.17014</ele>
        <time>2022-09-12T14:20:53.000Z</time>
      </trkpt>
      <trkpt lat="45.83714" lon="4.73253">
        <ele>282.28727</ele>
        <time>2022-09-12T14:20:54.000Z</time>
      </trkpt>
      <trkpt lat="45.83713" lon="4.73255">
        <ele>282.37082</ele>
        <time>2022-09-12T14:20:55.000Z</time>
      </trkpt>
      <trkpt lat="45.83711" lon="4.73257">
        <ele>282.45988</ele>
        <time>2022-09-12T14:20:56.000Z</time>
      </trkpt>
      <trkpt lat="45.8371" lon="4.73259">
        <ele>282.54225</ele>
        <time>2022-09-12T14:20:57.000Z</time>
      </trkpt>
      <trkpt lat="45.83709" lon="4.73261">
        <ele>282.6309</ele>
        <time>2022-09-12T14:20:58.000Z</time>
      </trkpt>
      <trkpt lat="45.83707" lon="4.73264">
        <ele>282.72718</ele>
        <time>2022-09-12T14:20:59.000Z</time>
      </trkpt>
      <trkpt lat="45.83706" lon="4.73267">
        <ele>282.837</ele>
        <time>2022-09-12T14:21:00.000Z</time>
      </trkpt>
      <trkpt lat="45.83704" lon="4.7327">
        <ele>282.93483</ele>
        <time>2022-09-12T14:21:01.000Z</time>
      </trkpt>
      <trkpt lat="45.83703" lon="4.73272">
        <ele>283.02956</ele>
        <time>2022-09-12T14:21:02.000Z</time>
      </trkpt>
      <trkpt lat="45.83701" lon="4.73275">
        <ele>283.13788</ele>
        <time>2022-09-12T14:21:03.000Z</time>
      </trkpt>
      <trkpt lat="45.83699" lon="4.73278">
        <ele>283.25479</ele>
        <time>2022-09-12T14:21:04.000Z</time>
      </trkpt>
      <trkpt lat="45.83697" lon="4.73281">
        <ele>283.37522</ele>
        <time>2022-09-12T14:21:05.000Z</time>
      </trkpt>
      <trkpt lat="45.83695" lon="4.73283">
        <ele>283.48604</ele>
        <time>2022-09-12T14:21:06.000Z</time>
      </trkpt>
      <trkpt lat="45.83693" lon="4.73287">
        <ele>283.63308</ele>
        <time>2022-09-12T14:21:07.000Z</time>
      </trkpt>
      <trkpt lat="45.8369" lon="4.73291">
        <ele>283.79293</ele>
        <time>2022-09-12T14:21:08.000Z</time>
      </trkpt>
      <trkpt lat="45.83688" lon="4.73294">
        <ele>283.91255</ele>
        <time>2022-09-12T14:21:09.000Z</time>
      </trkpt>
      <trkpt lat="45.83686" lon="4.73298">
        <ele>284.02413</ele>
        <time>2022-09-12T14:21:10.000Z</time>
      </trkpt>
      <trkpt lat="45.83683" lon="4.73302">
        <ele>284.15507</ele>
        <time>2022-09-12T14:21:11.000Z</time>
      </trkpt>
      <trkpt lat="45.83679" lon="4.73307">
        <ele>284.30527</ele>
        <time>2022-09-12T14:21:12.000Z</time>
      </trkpt>
      <trkpt lat="45.83676" lon="4.73312">
        <ele>284.46472</ele>
        <time>2022-09-12T14:21:13.000Z</time>
      </trkpt>
      <trkpt lat="45.83673" lon="4.73318">
        <ele>284.65753</ele>
        <time>2022-09-12T14:21:14.000Z</time>
      </trkpt>
      <trkpt lat="45.83669" lon="4.73323">
        <ele>284.89037</ele>
        <time>2022-09-12T14:21:15.000Z</time>
      </trkpt>
      <trkpt lat="45.83666" lon="4.73329">
        <ele>285.09783</ele>
        <time>2022-09-12T14:21:16.000Z</time>
      </trkpt>
      <trkpt lat="45.83663" lon="4.73334">
        <ele>285.25289</ele>
        <time>2022-09-12T14:21:17.000Z</time>
      </trkpt>
      <trkpt lat="45.83661" lon="4.73339">
        <ele>285.34712</ele>
        <time>2022-09-12T14:21:18.000Z</time>
      </trkpt>
      <trkpt lat="45.83659" lon="4.73344">
        <ele>285.4026</ele>
        <time>2022-09-12T14:21:19.000Z</time>
      </trkpt>
      <trkpt lat="45.83658" lon="4.7335">
        <ele>285.43671</ele>
        <time>2022-09-12T14:21:20.000Z</time>
      </trkpt>
      <trkpt lat="45.83657" lon="4.73357">
        <ele>285.48684</ele>
        <time>2022-09-12T14:21:21.000Z</time>
      </trkpt>
      <trkpt lat="45.83655" lon="4.73363">
        <ele>285.52095</ele>
        <time>2022-09-12T14:21:22.000Z</time>
      </trkpt>
      <trkpt lat="45.83655" lon="4.73395">
        <ele>285.71509</ele>
        <time>2022-09-12T14:21:27.000Z</time>
      </trkpt>
      <trkpt lat="45.83655" lon="4.73401">
        <ele>285.82572</ele>
        <time>2022-09-12T14:21:28.000Z</time>
      </trkpt>
      <trkpt lat="45.83656" lon="4.73407">
        <ele>285.94764</ele>
        <time>2022-09-12T14:21:29.000Z</time>
      </trkpt>
      <trkpt lat="45.83657" lon="4.73414">
        <ele>286.09517</ele>
        <time>2022-09-12T14:21:30.000Z</time>
      </trkpt>
      <trkpt lat="45.83658" lon="4.73421">
        <ele>286.25421</ele>
        <time>2022-09-12T14:21:31.000Z</time>
      </trkpt>
      <trkpt lat="45.83659" lon="4.73427">
        <ele>286.41122</ele>
        <time>2022-09-12T14:21:32.000Z</time>
      </trkpt>
      <trkpt lat="45.83661" lon="4.73432">
        <ele>286.58209</ele>
        <time>2022-09-12T14:21:33.000Z</time>
      </trkpt>
      <trkpt lat="45.83662" lon="4.73439">
        <ele>286.79228</ele>
        <time>2022-09-12T14:21:34.000Z</time>
      </trkpt>
      <trkpt lat="45.83662" lon="4.73444">
        <ele>287.00326</ele>
        <time>2022-09-12T14:21:35.000Z</time>
      </trkpt>
      <trkpt lat="45.83664" lon="4.7345">
        <ele>287.20294</ele>
        <time>2022-09-12T14:21:36.000Z</time>
      </trkpt>
      <trkpt lat="45.83664" lon="4.73456">
        <ele>287.4508</ele>
        <time>2022-09-12T14:21:37.000Z</time>
      </trkpt>
      <trkpt lat="45.83665" lon="4.73462">
        <ele>287.72732</ele>
        <time>2022-09-12T14:21:38.000Z</time>
      </trkpt>
      <trkpt lat="45.83666" lon="4.73467">
        <ele>287.98756</ele>
        <time>2022-09-12T14:21:39.000Z</time>
      </trkpt>
      <trkpt lat="45.83668" lon="4.73472">
        <ele>288.22299</ele>
        <time>2022-09-12T14:21:40.000Z</time>
      </trkpt>
      <trkpt lat="45.8367" lon="4.73477">
        <ele>288.42908</ele>
        <time>2022-09-12T14:21:41.000Z</time>
      </trkpt>
      <trkpt lat="45.83671" lon="4.73481">
        <ele>288.59228</ele>
        <time>2022-09-12T14:21:42.000Z</time>
      </trkpt>
      <trkpt lat="45.83673" lon="4.73486">
        <ele>288.73041</ele>
        <time>2022-09-12T14:21:43.000Z</time>
      </trkpt>
      <trkpt lat="45.83675" lon="4.7349">
        <ele>288.84473</ele>
        <time>2022-09-12T14:21:44.000Z</time>
      </trkpt>
      <trkpt lat="45.83677" lon="4.73494">
        <ele>288.94441</ele>
        <time>2022-09-12T14:21:45.000Z</time>
      </trkpt>
      <trkpt lat="45.83679" lon="4.73498">
        <ele>289.00737</ele>
        <time>2022-09-12T14:21:46.000Z</time>
      </trkpt>
      <trkpt lat="45.83681" lon="4.73502">
        <ele>289.05992</ele>
        <time>2022-09-12T14:21:47.000Z</time>
      </trkpt>
      <trkpt lat="45.83684" lon="4.73507">
        <ele>289.0868</ele>
        <time>2022-09-12T14:21:48.000Z</time>
      </trkpt>
      <trkpt lat="45.83686" lon="4.73511">
        <ele>289.09543</ele>
        <time>2022-09-12T14:21:49.000Z</time>
      </trkpt>
      <trkpt lat="45.83688" lon="4.73516">
        <ele>289.0969</ele>
        <time>2022-09-12T14:21:50.000Z</time>
      </trkpt>
      <trkpt lat="45.83691" lon="4.73521">
        <ele>289.1143</ele>
        <time>2022-09-12T14:21:51.000Z</time>
      </trkpt>
      <trkpt lat="45.83692" lon="4.73526">
        <ele>289.14349</ele>
        <time>2022-09-12T14:21:52.000Z</time>
      </trkpt>
      <trkpt lat="45.83694" lon="4.73531">
        <ele>289.18256</ele>
        <time>2022-09-12T14:21:53.000Z</time>
      </trkpt>
      <trkpt lat="45.83696" lon="4.73536">
        <ele>289.2303</ele>
        <time>2022-09-12T14:21:54.000Z</time>
      </trkpt>
      <trkpt lat="45.83697" lon="4.73541">
        <ele>289.25319</ele>
        <time>2022-09-12T14:21:55.000Z</time>
      </trkpt>
      <trkpt lat="45.83699" lon="4.73546">
        <ele>289.27198</ele>
        <time>2022-09-12T14:21:56.000Z</time>
      </trkpt>
      <trkpt lat="45.837" lon="4.73551">
        <ele>289.27302</ele>
        <time>2022-09-12T14:21:57.000Z</time>
      </trkpt>
      <trkpt lat="45.83701" lon="4.73557">
        <ele>289.24407</ele>
        <time>2022-09-12T14:21:58.000Z</time>
      </trkpt>
      <trkpt lat="45.83703" lon="4.73562">
        <ele>289.19886</ele>
        <time>2022-09-12T14:21:59.000Z</time>
      </trkpt>
      <trkpt lat="45.83704" lon="4.73567">
        <ele>289.13355</ele>
        <time>2022-09-12T14:22:00.000Z</time>
      </trkpt>
      <trkpt lat="45.83705" lon="4.73573">
        <ele>289.07515</ele>
        <time>2022-09-12T14:22:01.000Z</time>
      </trkpt>
      <trkpt lat="45.83707" lon="4.73577">
        <ele>289.02039</ele>
        <time>2022-09-12T14:22:02.000Z</time>
      </trkpt>
      <trkpt lat="45.83708" lon="4.7358">
        <ele>288.98377</ele>
        <time>2022-09-12T14:22:03.000Z</time>
      </trkpt>
      <trkpt lat="45.83708" lon="4.73583">
        <ele>288.95664</ele>
        <time>2022-09-12T14:22:05.000Z</time>
      </trkpt>
      <trkpt lat="45.83711" lon="4.7358">
        <ele>288.76576</ele>
        <time>2022-09-12T14:22:58.000Z</time>
      </trkpt>
      <trkpt lat="45.83715" lon="4.73578">
        <ele>288.48263</ele>
        <time>2022-09-12T14:22:59.000Z</time>
      </trkpt>
      <trkpt lat="45.83719" lon="4.73577">
        <ele>288.19881</ele>
        <time>2022-09-12T14:23:00.000Z</time>
      </trkpt>
      <trkpt lat="45.83723" lon="4.73576">
        <ele>287.91712</ele>
        <time>2022-09-12T14:23:01.000Z</time>
      </trkpt>
      <trkpt lat="45.83727" lon="4.73575">
        <ele>287.62539</ele>
        <time>2022-09-12T14:23:02.000Z</time>
      </trkpt>
      <trkpt lat="45.83734" lon="4.73576">
        <ele>287.16684</ele>
        <time>2022-09-12T14:23:03.000Z</time>
      </trkpt>
      <trkpt lat="45.83739" lon="4.73578">
        <ele>286.85333</ele>
        <time>2022-09-12T14:23:04.000Z</time>
      </trkpt>
      <trkpt lat="45.83742" lon="4.7358">
        <ele>286.65177</ele>
        <time>2022-09-12T14:23:05.000Z</time>
      </trkpt>
      <trkpt lat="45.83746" lon="4.73582">
        <ele>286.44399</ele>
        <time>2022-09-12T14:23:06.000Z</time>
      </trkpt>
      <trkpt lat="45.8375" lon="4.73586">
        <ele>286.16474</ele>
        <time>2022-09-12T14:23:07.000Z</time>
      </trkpt>
      <trkpt lat="45.83754" lon="4.7359">
        <ele>285.9505</ele>
        <time>2022-09-12T14:23:08.000Z</time>
      </trkpt>
      <trkpt lat="45.83758" lon="4.73591">
        <ele>285.69391</ele>
        <time>2022-09-12T14:23:09.000Z</time>
      </trkpt>
      <trkpt lat="45.83762" lon="4.73593">
        <ele>285.42197</ele>
        <time>2022-09-12T14:23:10.000Z</time>
      </trkpt>
      <trkpt lat="45.83767" lon="4.73591">
        <ele>285.14363</ele>
        <time>2022-09-12T14:23:11.000Z</time>
      </trkpt>
      <trkpt lat="45.83771" lon="4.7359">
        <ele>284.9029</ele>
        <time>2022-09-12T14:23:12.000Z</time>
      </trkpt>
      <trkpt lat="45.83776" lon="4.73587">
        <ele>284.63218</ele>
        <time>2022-09-12T14:23:13.000Z</time>
      </trkpt>
      <trkpt lat="45.83781" lon="4.73586">
        <ele>284.38663</ele>
        <time>2022-09-12T14:23:14.000Z</time>
      </trkpt>
      <trkpt lat="45.83788" lon="4.73582">
        <ele>284.01872</ele>
        <time>2022-09-12T14:23:15.000Z</time>
      </trkpt>
      <trkpt lat="45.83795" lon="4.7358">
        <ele>283.77997</ele>
        <time>2022-09-12T14:23:16.000Z</time>
      </trkpt>
      <trkpt lat="45.83801" lon="4.73578">
        <ele>283.55368</ele>
        <time>2022-09-12T14:23:17.000Z</time>
      </trkpt>
      <trkpt lat="45.83808" lon="4.73578">
        <ele>283.28668</ele>
        <time>2022-09-12T14:23:18.000Z</time>
      </trkpt>
      <trkpt lat="45.83816" lon="4.73579">
        <ele>282.88749</ele>
        <time>2022-09-12T14:23:19.000Z</time>
      </trkpt>
      <trkpt lat="45.83821" lon="4.73577">
        <ele>282.57169</ele>
        <time>2022-09-12T14:23:20.000Z</time>
      </trkpt>
      <trkpt lat="45.83831" lon="4.73576">
        <ele>281.91835</ele>
        <time>2022-09-12T14:23:21.000Z</time>
      </trkpt>
      <trkpt lat="45.83836" lon="4.73576">
        <ele>281.33885</ele>
        <time>2022-09-12T14:23:22.000Z</time>
      </trkpt>
      <trkpt lat="45.83839" lon="4.73567">
        <ele>281.20979</ele>
        <time>2022-09-12T14:23:23.000Z</time>
      </trkpt>
      <trkpt lat="45.83842" lon="4.73562">
        <ele>281.01699</ele>
        <time>2022-09-12T14:23:24.000Z</time>
      </trkpt>
      <trkpt lat="45.83846" lon="4.73559">
        <ele>280.64956</ele>
        <time>2022-09-12T14:23:25.000Z</time>
      </trkpt>
      <trkpt lat="45.83852" lon="4.73551">
        <ele>280.38879</ele>
        <time>2022-09-12T14:23:26.000Z</time>
      </trkpt>
      <trkpt lat="45.83854" lon="4.73545">
        <ele>280.40824</ele>
        <time>2022-09-12T14:23:27.000Z</time>
      </trkpt>
      <trkpt lat="45.83859" lon="4.7354">
        <ele>280.25564</ele>
        <time>2022-09-12T14:23:28.000Z</time>
      </trkpt>
      <trkpt lat="45.83865" lon="4.73532">
        <ele>280.08998</ele>
        <time>2022-09-12T14:23:29.000Z</time>
      </trkpt>
      <trkpt lat="45.8387" lon="4.73527">
        <ele>280.01761</ele>
        <time>2022-09-12T14:23:30.000Z</time>
      </trkpt>
      <trkpt lat="45.83874" lon="4.73522">
        <ele>279.92747</ele>
        <time>2022-09-12T14:23:31.000Z</time>
      </trkpt>
      <trkpt lat="45.83879" lon="4.73517">
        <ele>279.70801</ele>
        <time>2022-09-12T14:23:32.000Z</time>
      </trkpt>
      <trkpt lat="45.83883" lon="4.73513">
        <ele>279.40597</ele>
        <time>2022-09-12T14:23:33.000Z</time>
      </trkpt>
      <trkpt lat="45.83886" lon="4.7351">
        <ele>279.17352</ele>
        <time>2022-09-12T14:23:34.000Z</time>
      </trkpt>
      <trkpt lat="45.83891" lon="4.73513">
        <ele>278.92963</ele>
        <time>2022-09-12T14:23:36.000Z</time>
      </trkpt>
      <trkpt lat="45.83893" lon="4.73516">
        <ele>278.78458</ele>
        <time>2022-09-12T14:23:37.000Z</time>
      </trkpt>
      <trkpt lat="45.83895" lon="4.73518">
        <ele>278.72689</ele>
        <time>2022-09-12T14:23:38.000Z</time>
      </trkpt>
      <trkpt lat="45.83897" lon="4.73518">
        <ele>278.60205</ele>
        <time>2022-09-12T14:23:39.000Z</time>
      </trkpt>
      <trkpt lat="45.839" lon="4.7352">
        <ele>278.56634</ele>
        <time>2022-09-12T14:23:40.000Z</time>
      </trkpt>
      <trkpt lat="45.83902" lon="4.73523">
        <ele>278.61622</ele>
        <time>2022-09-12T14:23:41.000Z</time>
      </trkpt>
      <trkpt lat="45.83905" lon="4.73523">
        <ele>278.67641</ele>
        <time>2022-09-12T14:23:42.000Z</time>
      </trkpt>
      <trkpt lat="45.83907" lon="4.73524">
        <ele>278.73318</ele>
        <time>2022-09-12T14:23:43.000Z</time>
      </trkpt>
      <trkpt lat="45.83909" lon="4.73522">
        <ele>278.74835</ele>
        <time>2022-09-12T14:23:45.000Z</time>
      </trkpt>
      <trkpt lat="45.83911" lon="4.7352">
        <ele>278.76258</ele>
        <time>2022-09-12T14:23:48.000Z</time>
      </trkpt>
      <trkpt lat="45.83914" lon="4.7352">
        <ele>278.82726</ele>
        <time>2022-09-12T14:23:50.000Z</time>
      </trkpt>
      <trkpt lat="45.83915" lon="4.73516">
        <ele>278.77389</ele>
        <time>2022-09-12T14:23:52.000Z</time>
      </trkpt>
      <trkpt lat="45.83916" lon="4.73513">
        <ele>278.72736</ele>
        <time>2022-09-12T14:23:54.000Z</time>
      </trkpt>
      <trkpt lat="45.83919" lon="4.73513">
        <ele>278.79989</ele>
        <time>2022-09-12T14:23:56.000Z</time>
      </trkpt>
      <trkpt lat="45.83921" lon="4.73516">
        <ele>278.89728</ele>
        <time>2022-09-12T14:23:58.000Z</time>
      </trkpt>
      <trkpt lat="45.83924" lon="4.73517">
        <ele>278.94168</ele>
        <time>2022-09-12T14:24:00.000Z</time>
      </trkpt>
      <trkpt lat="45.83926" lon="4.73517">
        <ele>278.91981</ele>
        <time>2022-09-12T14:24:01.000Z</time>
      </trkpt>
      <trkpt lat="45.83928" lon="4.73517">
        <ele>278.86378</ele>
        <time>2022-09-12T14:24:02.000Z</time>
      </trkpt>
      <trkpt lat="45.83931" lon="4.73516">
        <ele>278.77995</ele>
        <time>2022-09-12T14:24:03.000Z</time>
      </trkpt>
      <trkpt lat="45.83933" lon="4.73515">
        <ele>278.69491</ele>
        <time>2022-09-12T14:24:04.000Z</time>
      </trkpt>
      <trkpt lat="45.83935" lon="4.73513">
        <ele>278.59369</ele>
        <time>2022-09-12T14:24:05.000Z</time>
      </trkpt>
      <trkpt lat="45.83938" lon="4.73511">
        <ele>278.50122</ele>
        <time>2022-09-12T14:24:06.000Z</time>
      </trkpt>
      <trkpt lat="45.8394" lon="4.73508">
        <ele>278.42085</ele>
        <time>2022-09-12T14:24:07.000Z</time>
      </trkpt>
      <trkpt lat="45.83943" lon="4.73505">
        <ele>278.35046</ele>
        <time>2022-09-12T14:24:08.000Z</time>
      </trkpt>
      <trkpt lat="45.83945" lon="4.73503">
        <ele>278.29221</ele>
        <time>2022-09-12T14:24:09.000Z</time>
      </trkpt>
      <trkpt lat="45.83948" lon="4.735">
        <ele>278.22361</ele>
        <time>2022-09-12T14:24:10.000Z</time>
      </trkpt>
      <trkpt lat="45.83951" lon="4.73497">
        <ele>278.12956</ele>
        <time>2022-09-12T14:24:11.000Z</time>
      </trkpt>
      <trkpt lat="45.83953" lon="4.73494">
        <ele>278.01778</ele>
        <time>2022-09-12T14:24:12.000Z</time>
      </trkpt>
      <trkpt lat="45.83956" lon="4.73492">
        <ele>277.88082</ele>
        <time>2022-09-12T14:24:13.000Z</time>
      </trkpt>
      <trkpt lat="45.83959" lon="4.7349">
        <ele>277.73625</ele>
        <time>2022-09-12T14:24:14.000Z</time>
      </trkpt>
      <trkpt lat="45.83962" lon="4.73487">
        <ele>277.58114</ele>
        <time>2022-09-12T14:24:15.000Z</time>
      </trkpt>
      <trkpt lat="45.83966" lon="4.73484">
        <ele>277.41713</ele>
        <time>2022-09-12T14:24:16.000Z</time>
      </trkpt>
      <trkpt lat="45.83968" lon="4.73481">
        <ele>277.27911</ele>
        <time>2022-09-12T14:24:17.000Z</time>
      </trkpt>
      <trkpt lat="45.83971" lon="4.73478">
        <ele>277.16052</ele>
        <time>2022-09-12T14:24:18.000Z</time>
      </trkpt>
      <trkpt lat="45.83973" lon="4.73474">
        <ele>277.05625</ele>
        <time>2022-09-12T14:24:19.000Z</time>
      </trkpt>
      <trkpt lat="45.83975" lon="4.7347">
        <ele>276.95435</ele>
        <time>2022-09-12T14:24:20.000Z</time>
      </trkpt>
      <trkpt lat="45.83976" lon="4.73467">
        <ele>276.86974</ele>
        <time>2022-09-12T14:24:21.000Z</time>
      </trkpt>
      <trkpt lat="45.83979" lon="4.73464">
        <ele>276.74133</ele>
        <time>2022-09-12T14:24:22.000Z</time>
      </trkpt>
      <trkpt lat="45.83981" lon="4.73462">
        <ele>276.59555</ele>
        <time>2022-09-12T14:24:23.000Z</time>
      </trkpt>
      <trkpt lat="45.83984" lon="4.73462">
        <ele>276.44478</ele>
        <time>2022-09-12T14:24:24.000Z</time>
      </trkpt>
      <trkpt lat="45.83987" lon="4.73463">
        <ele>276.26085</ele>
        <time>2022-09-12T14:24:25.000Z</time>
      </trkpt>
      <trkpt lat="45.8399" lon="4.73464">
        <ele>276.08175</ele>
        <time>2022-09-12T14:24:26.000Z</time>
      </trkpt>
      <trkpt lat="45.83992" lon="4.73464">
        <ele>275.94222</ele>
        <time>2022-09-12T14:24:27.000Z</time>
      </trkpt>
      <trkpt lat="45.83994" lon="4.73461">
        <ele>275.88405</ele>
        <time>2022-09-12T14:24:28.000Z</time>
      </trkpt>
      <trkpt lat="45.83995" lon="4.73457">
        <ele>275.96403</ele>
        <time>2022-09-12T14:24:29.000Z</time>
      </trkpt>
      <trkpt lat="45.83993" lon="4.73453">
        <ele>276.18478</ele>
        <time>2022-09-12T14:24:30.000Z</time>
      </trkpt>
      <trkpt lat="45.83991" lon="4.73451">
        <ele>276.40788</ele>
        <time>2022-09-12T14:24:31.000Z</time>
      </trkpt>
      <trkpt lat="45.83988" lon="4.73451">
        <ele>276.51256</ele>
        <time>2022-09-12T14:24:32.000Z</time>
      </trkpt>
      <trkpt lat="45.83986" lon="4.73453">
        <ele>276.52205</ele>
        <time>2022-09-12T14:24:33.000Z</time>
      </trkpt>
      <trkpt lat="45.83984" lon="4.73456">
        <ele>276.51403</ele>
        <time>2022-09-12T14:24:34.000Z</time>
      </trkpt>
      <trkpt lat="45.83983" lon="4.73459">
        <ele>276.54445</ele>
        <time>2022-09-12T14:24:36.000Z</time>
      </trkpt>
      <trkpt lat="45.83981" lon="4.73462">
        <ele>276.60383</ele>
        <time>2022-09-12T14:24:56.000Z</time>
      </trkpt>
      <trkpt lat="45.8398" lon="4.73464">
        <ele>276.68108</ele>
        <time>2022-09-12T14:24:57.000Z</time>
      </trkpt>
      <trkpt lat="45.83978" lon="4.73466">
        <ele>276.78915</ele>
        <time>2022-09-12T14:24:58.000Z</time>
      </trkpt>
      <trkpt lat="45.83975" lon="4.73468">
        <ele>276.91245</ele>
        <time>2022-09-12T14:24:59.000Z</time>
      </trkpt>
      <trkpt lat="45.83975" lon="4.73468">
        <ele>276.91245</ele>
        <time>2022-09-12T14:24:59.000Z</time>
      </trkpt>
      <trkpt lat="45.83973" lon="4.73469">
        <ele>277.02971</ele>
        <time>2022-09-12T14:25:00.000Z</time>
      </trkpt>
      <trkpt lat="45.8397" lon="4.73468">
        <ele>277.17585</ele>
        <time>2022-09-12T14:25:01.000Z</time>
      </trkpt>
      <trkpt lat="45.83967" lon="4.73467">
        <ele>277.30586</ele>
        <time>2022-09-12T14:25:02.000Z</time>
      </trkpt>
      <trkpt lat="45.83964" lon="4.73466">
        <ele>277.41415</ele>
        <time>2022-09-12T14:25:03.000Z</time>
      </trkpt>
      <trkpt lat="45.8396" lon="4.73466">
        <ele>277.52031</ele>
        <time>2022-09-12T14:25:04.000Z</time>
      </trkpt>
      <trkpt lat="45.83956" lon="4.73468">
        <ele>277.64136</ele>
        <time>2022-09-12T14:25:05.000Z</time>
      </trkpt>
      <trkpt lat="45.83953" lon="4.73471">
        <ele>277.76907</ele>
        <time>2022-09-12T14:25:06.000Z</time>
      </trkpt>
      <trkpt lat="45.83951" lon="4.73475">
        <ele>277.88655</ele>
        <time>2022-09-12T14:25:07.000Z</time>
      </trkpt>
      <trkpt lat="45.83948" lon="4.73478">
        <ele>277.98994</ele>
        <time>2022-09-12T14:25:08.000Z</time>
      </trkpt>
      <trkpt lat="45.83945" lon="4.73481">
        <ele>278.0651</ele>
        <time>2022-09-12T14:25:09.000Z</time>
      </trkpt>
      <trkpt lat="45.83943" lon="4.73485">
        <ele>278.10656</ele>
        <time>2022-09-12T14:25:10.000Z</time>
      </trkpt>
      <trkpt lat="45.8394" lon="4.73488">
        <ele>278.12606</ele>
        <time>2022-09-12T14:25:11.000Z</time>
      </trkpt>
      <trkpt lat="45.83937" lon="4.73491">
        <ele>278.13771</ele>
        <time>2022-09-12T14:25:12.000Z</time>
      </trkpt>
      <trkpt lat="45.83935" lon="4.73493">
        <ele>278.14914</ele>
        <time>2022-09-12T14:25:13.000Z</time>
      </trkpt>
      <trkpt lat="45.83933" lon="4.73496">
        <ele>278.18723</ele>
        <time>2022-09-12T14:25:14.000Z</time>
      </trkpt>
      <trkpt lat="45.8393" lon="4.73499">
        <ele>278.24286</ele>
        <time>2022-09-12T14:25:15.000Z</time>
      </trkpt>
      <trkpt lat="45.83927" lon="4.73501">
        <ele>278.30956</ele>
        <time>2022-09-12T14:25:16.000Z</time>
      </trkpt>
      <trkpt lat="45.83925" lon="4.73503">
        <ele>278.39289</ele>
        <time>2022-09-12T14:25:17.000Z</time>
      </trkpt>
      <trkpt lat="45.83923" lon="4.73505">
        <ele>278.49899</ele>
        <time>2022-09-12T14:25:18.000Z</time>
      </trkpt>
      <trkpt lat="45.83921" lon="4.73508">
        <ele>278.59656</ele>
        <time>2022-09-12T14:25:19.000Z</time>
      </trkpt>
      <trkpt lat="45.83918" lon="4.7351">
        <ele>278.65774</ele>
        <time>2022-09-12T14:25:20.000Z</time>
      </trkpt>
      <trkpt lat="45.83916" lon="4.73512">
        <ele>278.68885</ele>
        <time>2022-09-12T14:25:21.000Z</time>
      </trkpt>
      <trkpt lat="45.83915" lon="4.73514">
        <ele>278.70391</ele>
        <time>2022-09-12T14:25:22.000Z</time>
      </trkpt>
      <trkpt lat="45.83913" lon="4.73516">
        <ele>278.70249</ele>
        <time>2022-09-12T14:25:23.000Z</time>
      </trkpt>
      <trkpt lat="45.83912" lon="4.73517">
        <ele>278.69401</ele>
        <time>2022-09-12T14:25:24.000Z</time>
      </trkpt>
      <trkpt lat="45.8391" lon="4.73519">
        <ele>278.68121</ele>
        <time>2022-09-12T14:25:25.000Z</time>
      </trkpt>
      <trkpt lat="45.83908" lon="4.73521">
        <ele>278.67722</ele>
        <time>2022-09-12T14:25:27.000Z</time>
      </trkpt>
      <trkpt lat="45.83906" lon="4.73523">
        <ele>278.66234</ele>
        <time>2022-09-12T14:25:30.000Z</time>
      </trkpt>
      <trkpt lat="45.83902" lon="4.73523">
        <ele>278.62017</ele>
        <time>2022-09-12T14:25:32.000Z</time>
      </trkpt>
      <trkpt lat="45.839" lon="4.73522">
        <ele>278.60663</ele>
        <time>2022-09-12T14:25:33.000Z</time>
      </trkpt>
      <trkpt lat="45.83898" lon="4.73519">
        <ele>278.61656</ele>
        <time>2022-09-12T14:25:35.000Z</time>
      </trkpt>
      <trkpt lat="45.83896" lon="4.73517">
        <ele>278.64349</ele>
        <time>2022-09-12T14:25:36.000Z</time>
      </trkpt>
      <trkpt lat="45.83895" lon="4.73515">
        <ele>278.68323</ele>
        <time>2022-09-12T14:25:38.000Z</time>
      </trkpt>
      <trkpt lat="45.83893" lon="4.73513">
        <ele>278.79488</ele>
        <time>2022-09-12T14:26:03.000Z</time>
      </trkpt>
      <trkpt lat="45.8389" lon="4.73514">
        <ele>279.01055</ele>
        <time>2022-09-12T14:26:05.000Z</time>
      </trkpt>
      <trkpt lat="45.83888" lon="4.73516">
        <ele>279.14442</ele>
        <time>2022-09-12T14:26:06.000Z</time>
      </trkpt>
      <trkpt lat="45.83886" lon="4.73518">
        <ele>279.28528</ele>
        <time>2022-09-12T14:26:07.000Z</time>
      </trkpt>
      <trkpt lat="45.83884" lon="4.7352">
        <ele>279.4299</ele>
        <time>2022-09-12T14:26:08.000Z</time>
      </trkpt>
      <trkpt lat="45.83882" lon="4.73522">
        <ele>279.54439</ele>
        <time>2022-09-12T14:26:09.000Z</time>
      </trkpt>
      <trkpt lat="45.8388" lon="4.73523">
        <ele>279.64371</ele>
        <time>2022-09-12T14:26:10.000Z</time>
      </trkpt>
      <trkpt lat="45.83878" lon="4.73525">
        <ele>279.73912</ele>
        <time>2022-09-12T14:26:11.000Z</time>
      </trkpt>
      <trkpt lat="45.83874" lon="4.73528">
        <ele>279.792</ele>
        <time>2022-09-12T14:26:12.000Z</time>
      </trkpt>
      <trkpt lat="45.83872" lon="4.73529">
        <ele>279.84844</ele>
        <time>2022-09-12T14:26:13.000Z</time>
      </trkpt>
      <trkpt lat="45.8387" lon="4.7353">
        <ele>279.90611</ele>
        <time>2022-09-12T14:26:14.000Z</time>
      </trkpt>
      <trkpt lat="45.83868" lon="4.73532">
        <ele>279.95183</ele>
        <time>2022-09-12T14:26:15.000Z</time>
      </trkpt>
      <trkpt lat="45.83865" lon="4.73534">
        <ele>280.00731</ele>
        <time>2022-09-12T14:26:16.000Z</time>
      </trkpt>
      <trkpt lat="45.83863" lon="4.73537">
        <ele>280.05438</ele>
        <time>2022-09-12T14:26:17.000Z</time>
      </trkpt>
      <trkpt lat="45.83861" lon="4.73539">
        <ele>280.12413</ele>
        <time>2022-09-12T14:26:18.000Z</time>
      </trkpt>
      <trkpt lat="45.83859" lon="4.73541">
        <ele>280.20359</ele>
        <time>2022-09-12T14:26:19.000Z</time>
      </trkpt>
      <trkpt lat="45.83856" lon="4.73544">
        <ele>280.27991</ele>
        <time>2022-09-12T14:26:20.000Z</time>
      </trkpt>
      <trkpt lat="45.83854" lon="4.73547">
        <ele>280.35829</ele>
        <time>2022-09-12T14:26:21.000Z</time>
      </trkpt>
      <trkpt lat="45.83852" lon="4.73549">
        <ele>280.43582</ele>
        <time>2022-09-12T14:26:22.000Z</time>
      </trkpt>
      <trkpt lat="45.83851" lon="4.73552">
        <ele>280.5062</ele>
        <time>2022-09-12T14:26:23.000Z</time>
      </trkpt>
      <trkpt lat="45.83849" lon="4.73554">
        <ele>280.57801</ele>
        <time>2022-09-12T14:26:24.000Z</time>
      </trkpt>
      <trkpt lat="45.83847" lon="4.73556">
        <ele>280.70216</ele>
        <time>2022-09-12T14:26:25.000Z</time>
      </trkpt>
      <trkpt lat="45.83844" lon="4.73558">
        <ele>280.88185</ele>
        <time>2022-09-12T14:26:26.000Z</time>
      </trkpt>
      <trkpt lat="45.83842" lon="4.73559">
        <ele>281.11244</ele>
        <time>2022-09-12T14:26:27.000Z</time>
      </trkpt>
      <trkpt lat="45.83839" lon="4.73561">
        <ele>281.40207</ele>
        <time>2022-09-12T14:26:28.000Z</time>
      </trkpt>
      <trkpt lat="45.83821" lon="4.73568">
        <ele>282.51531</ele>
        <time>2022-09-12T14:26:34.000Z</time>
      </trkpt>
      <trkpt lat="45.83817" lon="4.73569">
        <ele>282.67553</ele>
        <time>2022-09-12T14:26:35.000Z</time>
      </trkpt>
      <trkpt lat="45.83814" lon="4.7357">
        <ele>282.82693</ele>
        <time>2022-09-12T14:26:36.000Z</time>
      </trkpt>
      <trkpt lat="45.83811" lon="4.73571">
        <ele>282.96567</ele>
        <time>2022-09-12T14:26:37.000Z</time>
      </trkpt>
      <trkpt lat="45.83809" lon="4.73573">
        <ele>283.12187</ele>
        <time>2022-09-12T14:26:38.000Z</time>
      </trkpt>
      <trkpt lat="45.83806" lon="4.73574">
        <ele>283.29351</ele>
        <time>2022-09-12T14:26:39.000Z</time>
      </trkpt>
      <trkpt lat="45.83803" lon="4.73576">
        <ele>283.449</ele>
        <time>2022-09-12T14:26:40.000Z</time>
      </trkpt>
      <trkpt lat="45.83799" lon="4.73577">
        <ele>283.59382</ele>
        <time>2022-09-12T14:26:41.000Z</time>
      </trkpt>
      <trkpt lat="45.83797" lon="4.73578">
        <ele>283.6971</ele>
        <time>2022-09-12T14:26:42.000Z</time>
      </trkpt>
      <trkpt lat="45.83794" lon="4.73579">
        <ele>283.78353</ele>
        <time>2022-09-12T14:26:43.000Z</time>
      </trkpt>
      <trkpt lat="45.83792" lon="4.73579">
        <ele>283.87455</ele>
        <time>2022-09-12T14:26:44.000Z</time>
      </trkpt>
      <trkpt lat="45.83789" lon="4.7358">
        <ele>283.9771</ele>
        <time>2022-09-12T14:26:45.000Z</time>
      </trkpt>
      <trkpt lat="45.83786" lon="4.73581">
        <ele>284.11858</ele>
        <time>2022-09-12T14:26:46.000Z</time>
      </trkpt>
      <trkpt lat="45.83783" lon="4.73582">
        <ele>284.26323</ele>
        <time>2022-09-12T14:26:47.000Z</time>
      </trkpt>
      <trkpt lat="45.8378" lon="4.73583">
        <ele>284.42893</ele>
        <time>2022-09-12T14:26:48.000Z</time>
      </trkpt>
      <trkpt lat="45.83776" lon="4.73584">
        <ele>284.61634</ele>
        <time>2022-09-12T14:26:49.000Z</time>
      </trkpt>
      <trkpt lat="45.83773" lon="4.73584">
        <ele>284.79797</ele>
        <time>2022-09-12T14:26:50.000Z</time>
      </trkpt>
      <trkpt lat="45.8377" lon="4.73584">
        <ele>284.96651</ele>
        <time>2022-09-12T14:26:51.000Z</time>
      </trkpt>
      <trkpt lat="45.83767" lon="4.73584">
        <ele>285.14357</ele>
        <time>2022-09-12T14:26:52.000Z</time>
      </trkpt>
      <trkpt lat="45.83764" lon="4.73583">
        <ele>285.32042</ele>
        <time>2022-09-12T14:26:53.000Z</time>
      </trkpt>
      <trkpt lat="45.83761" lon="4.73582">
        <ele>285.48786</ele>
        <time>2022-09-12T14:26:54.000Z</time>
      </trkpt>
      <trkpt lat="45.83758" lon="4.7358">
        <ele>285.6571</ele>
        <time>2022-09-12T14:26:55.000Z</time>
      </trkpt>
      <trkpt lat="45.83755" lon="4.73579">
        <ele>285.84283</ele>
        <time>2022-09-12T14:26:56.000Z</time>
      </trkpt>
      <trkpt lat="45.83751" lon="4.73577">
        <ele>286.05757</ele>
        <time>2022-09-12T14:26:57.000Z</time>
      </trkpt>
      <trkpt lat="45.83748" lon="4.73576">
        <ele>286.29523</ele>
        <time>2022-09-12T14:26:58.000Z</time>
      </trkpt>
      <trkpt lat="45.83744" lon="4.73575">
        <ele>286.52264</ele>
        <time>2022-09-12T14:26:59.000Z</time>
      </trkpt>
      <trkpt lat="45.83741" lon="4.73575">
        <ele>286.7435</ele>
        <time>2022-09-12T14:27:00.000Z</time>
      </trkpt>
      <trkpt lat="45.83737" lon="4.73575">
        <ele>286.98644</ele>
        <time>2022-09-12T14:27:01.000Z</time>
      </trkpt>
      <trkpt lat="45.83733" lon="4.73575">
        <ele>287.22851</ele>
        <time>2022-09-12T14:27:02.000Z</time>
      </trkpt>
      <trkpt lat="45.83729" lon="4.73576">
        <ele>287.48435</ele>
        <time>2022-09-12T14:27:03.000Z</time>
      </trkpt>
      <trkpt lat="45.83726" lon="4.73577">
        <ele>287.74161</ele>
        <time>2022-09-12T14:27:04.000Z</time>
      </trkpt>
      <trkpt lat="45.83722" lon="4.73578">
        <ele>287.9816</ele>
        <time>2022-09-12T14:27:05.000Z</time>
      </trkpt>
      <trkpt lat="45.83719" lon="4.73579">
        <ele>288.20687</ele>
        <time>2022-09-12T14:27:06.000Z</time>
      </trkpt>
      <trkpt lat="45.83716" lon="4.7358">
        <ele>288.42698</ele>
        <time>2022-09-12T14:27:07.000Z</time>
      </trkpt>
      <trkpt lat="45.83713" lon="4.73582">
        <ele>288.64949</ele>
        <time>2022-09-12T14:27:08.000Z</time>
      </trkpt>
      <trkpt lat="45.8371" lon="4.73584">
        <ele>288.86463</ele>
        <time>2022-09-12T14:27:09.000Z</time>
      </trkpt>
      <trkpt lat="45.83707" lon="4.73586">
        <ele>289.08237</ele>
        <time>2022-09-12T14:27:10.000Z</time>
      </trkpt>
      <trkpt lat="45.83704" lon="4.73589">
        <ele>289.24638</ele>
        <time>2022-09-12T14:27:11.000Z</time>
      </trkpt>
      <trkpt lat="45.83702" lon="4.73592">
        <ele>289.39519</ele>
        <time>2022-09-12T14:27:12.000Z</time>
      </trkpt>
      <trkpt lat="45.837" lon="4.73595">
        <ele>289.56148</ele>
        <time>2022-09-12T14:27:13.000Z</time>
      </trkpt>
      <trkpt lat="45.83697" lon="4.73597">
        <ele>289.74101</ele>
        <time>2022-09-12T14:27:14.000Z</time>
      </trkpt>
      <trkpt lat="45.83695" lon="4.73599">
        <ele>289.90418</ele>
        <time>2022-09-12T14:27:15.000Z</time>
      </trkpt>
      <trkpt lat="45.83692" lon="4.73601">
        <ele>290.05198</ele>
        <time>2022-09-12T14:27:16.000Z</time>
      </trkpt>
      <trkpt lat="45.8369" lon="4.73603">
        <ele>290.22251</ele>
        <time>2022-09-12T14:27:17.000Z</time>
      </trkpt>
      <trkpt lat="45.83686" lon="4.73605">
        <ele>290.43382</ele>
        <time>2022-09-12T14:27:18.000Z</time>
      </trkpt>
      <trkpt lat="45.83683" lon="4.73606">
        <ele>290.6482</ele>
        <time>2022-09-12T14:27:19.000Z</time>
      </trkpt>
      <trkpt lat="45.83666" lon="4.73609">
        <ele>291.69296</ele>
        <time>2022-09-12T14:27:25.000Z</time>
      </trkpt>
      <trkpt lat="45.83663" lon="4.7361">
        <ele>291.87122</ele>
        <time>2022-09-12T14:27:26.000Z</time>
      </trkpt>
      <trkpt lat="45.83659" lon="4.73612">
        <ele>292.08877</ele>
        <time>2022-09-12T14:27:27.000Z</time>
      </trkpt>
      <trkpt lat="45.83655" lon="4.73613">
        <ele>292.30522</ele>
        <time>2022-09-12T14:27:28.000Z</time>
      </trkpt>
      <trkpt lat="45.83651" lon="4.73614">
        <ele>292.52264</ele>
        <time>2022-09-12T14:27:29.000Z</time>
      </trkpt>
      <trkpt lat="45.83647" lon="4.73615">
        <ele>292.73771</ele>
        <time>2022-09-12T14:27:30.000Z</time>
      </trkpt>
      <trkpt lat="45.83644" lon="4.73616">
        <ele>292.93674</ele>
        <time>2022-09-12T14:27:31.000Z</time>
      </trkpt>
      <trkpt lat="45.8364" lon="4.73617">
        <ele>293.11868</ele>
        <time>2022-09-12T14:27:32.000Z</time>
      </trkpt>
      <trkpt lat="45.83636" lon="4.73618">
        <ele>293.30688</ele>
        <time>2022-09-12T14:27:33.000Z</time>
      </trkpt>
      <trkpt lat="45.83632" lon="4.73619">
        <ele>293.50211</ele>
        <time>2022-09-12T14:27:34.000Z</time>
      </trkpt>
      <trkpt lat="45.83628" lon="4.7362">
        <ele>293.69502</ele>
        <time>2022-09-12T14:27:35.000Z</time>
      </trkpt>
      <trkpt lat="45.83624" lon="4.73621">
        <ele>293.88164</ele>
        <time>2022-09-12T14:27:36.000Z</time>
      </trkpt>
      <trkpt lat="45.8362" lon="4.73622">
        <ele>294.05567</ele>
        <time>2022-09-12T14:27:37.000Z</time>
      </trkpt>
      <trkpt lat="45.83616" lon="4.73624">
        <ele>294.23489</ele>
        <time>2022-09-12T14:27:38.000Z</time>
      </trkpt>
      <trkpt lat="45.83612" lon="4.73626">
        <ele>294.44595</ele>
        <time>2022-09-12T14:27:39.000Z</time>
      </trkpt>
      <trkpt lat="45.83609" lon="4.73628">
        <ele>294.66442</ele>
        <time>2022-09-12T14:27:40.000Z</time>
      </trkpt>
      <trkpt lat="45.83605" lon="4.73631">
        <ele>294.86007</ele>
        <time>2022-09-12T14:27:41.000Z</time>
      </trkpt>
      <trkpt lat="45.83602" lon="4.73633">
        <ele>294.99626</ele>
        <time>2022-09-12T14:27:42.000Z</time>
      </trkpt>
      <trkpt lat="45.83598" lon="4.73635">
        <ele>295.06512</ele>
        <time>2022-09-12T14:27:43.000Z</time>
      </trkpt>
      <trkpt lat="45.83595" lon="4.73637">
        <ele>295.06813</ele>
        <time>2022-09-12T14:27:44.000Z</time>
      </trkpt>
      <trkpt lat="45.83592" lon="4.73638">
        <ele>295.04279</ele>
        <time>2022-09-12T14:27:45.000Z</time>
      </trkpt>
      <trkpt lat="45.83589" lon="4.7364">
        <ele>294.9959</ele>
        <time>2022-09-12T14:27:46.000Z</time>
      </trkpt>
      <trkpt lat="45.83585" lon="4.73641">
        <ele>294.93561</ele>
        <time>2022-09-12T14:27:47.000Z</time>
      </trkpt>
      <trkpt lat="45.83582" lon="4.73643">
        <ele>294.88107</ele>
        <time>2022-09-12T14:27:48.000Z</time>
      </trkpt>
      <trkpt lat="45.83579" lon="4.73644">
        <ele>294.82031</ele>
        <time>2022-09-12T14:27:49.000Z</time>
      </trkpt>
      <trkpt lat="45.83575" lon="4.73646">
        <ele>294.75651</ele>
        <time>2022-09-12T14:27:50.000Z</time>
      </trkpt>
      <trkpt lat="45.83572" lon="4.73649">
        <ele>294.70057</ele>
        <time>2022-09-12T14:27:51.000Z</time>
      </trkpt>
      <trkpt lat="45.83569" lon="4.73651">
        <ele>294.65826</ele>
        <time>2022-09-12T14:27:52.000Z</time>
      </trkpt>
      <trkpt lat="45.83566" lon="4.73654">
        <ele>294.64123</ele>
        <time>2022-09-12T14:27:53.000Z</time>
      </trkpt>
      <trkpt lat="45.83563" lon="4.73656">
        <ele>294.64635</ele>
        <time>2022-09-12T14:27:54.000Z</time>
      </trkpt>
      <trkpt lat="45.8356" lon="4.7366">
        <ele>294.66961</ele>
        <time>2022-09-12T14:27:55.000Z</time>
      </trkpt>
      <trkpt lat="45.83557" lon="4.73664">
        <ele>294.70931</ele>
        <time>2022-09-12T14:27:56.000Z</time>
      </trkpt>
      <trkpt lat="45.83554" lon="4.73669">
        <ele>294.7497</ele>
        <time>2022-09-12T14:27:57.000Z</time>
      </trkpt>
      <trkpt lat="45.83552" lon="4.73673">
        <ele>294.7872</ele>
        <time>2022-09-12T14:27:58.000Z</time>
      </trkpt>
      <trkpt lat="45.83549" lon="4.73677">
        <ele>294.82085</ele>
        <time>2022-09-12T14:27:59.000Z</time>
      </trkpt>
      <trkpt lat="45.83545" lon="4.73682">
        <ele>294.85918</ele>
        <time>2022-09-12T14:28:00.000Z</time>
      </trkpt>
      <trkpt lat="45.83542" lon="4.73687">
        <ele>294.89186</ele>
        <time>2022-09-12T14:28:01.000Z</time>
      </trkpt>
      <trkpt lat="45.83538" lon="4.73692">
        <ele>294.9149</ele>
        <time>2022-09-12T14:28:02.000Z</time>
      </trkpt>
      <trkpt lat="45.83534" lon="4.73696">
        <ele>294.9339</ele>
        <time>2022-09-12T14:28:03.000Z</time>
      </trkpt>
      <trkpt lat="45.8353" lon="4.73699">
        <ele>294.95525</ele>
        <time>2022-09-12T14:28:04.000Z</time>
      </trkpt>
      <trkpt lat="45.83526" lon="4.73702">
        <ele>294.9607</ele>
        <time>2022-09-12T14:28:05.000Z</time>
      </trkpt>
      <trkpt lat="45.83522" lon="4.73705">
        <ele>294.95402</ele>
        <time>2022-09-12T14:28:06.000Z</time>
      </trkpt>
      <trkpt lat="45.83519" lon="4.73708">
        <ele>294.9247</ele>
        <time>2022-09-12T14:28:07.000Z</time>
      </trkpt>
      <trkpt lat="45.83514" lon="4.73711">
        <ele>294.89581</ele>
        <time>2022-09-12T14:28:08.000Z</time>
      </trkpt>
      <trkpt lat="45.83508" lon="4.73715">
        <ele>294.87139</ele>
        <time>2022-09-12T14:28:09.000Z</time>
      </trkpt>
      <trkpt lat="45.83502" lon="4.73717">
        <ele>294.88995</ele>
        <time>2022-09-12T14:28:10.000Z</time>
      </trkpt>
      <trkpt lat="45.83498" lon="4.73719">
        <ele>294.89055</ele>
        <time>2022-09-12T14:28:11.000Z</time>
      </trkpt>
      <trkpt lat="45.83494" lon="4.7372">
        <ele>294.93718</ele>
        <time>2022-09-12T14:28:12.000Z</time>
      </trkpt>
      <trkpt lat="45.83489" lon="4.73721">
        <ele>294.96428</ele>
        <time>2022-09-12T14:28:13.000Z</time>
      </trkpt>
      <trkpt lat="45.83485" lon="4.73723">
        <ele>295.00042</ele>
        <time>2022-09-12T14:28:14.000Z</time>
      </trkpt>
      <trkpt lat="45.8348" lon="4.73724">
        <ele>295.04772</ele>
        <time>2022-09-12T14:28:15.000Z</time>
      </trkpt>
      <trkpt lat="45.83475" lon="4.73724">
        <ele>295.12194</ele>
        <time>2022-09-12T14:28:16.000Z</time>
      </trkpt>
      <trkpt lat="45.8347" lon="4.73725">
        <ele>295.20506</ele>
        <time>2022-09-12T14:28:17.000Z</time>
      </trkpt>
      <trkpt lat="45.83466" lon="4.73725">
        <ele>295.32311</ele>
        <time>2022-09-12T14:28:18.000Z</time>
      </trkpt>
      <trkpt lat="45.83461" lon="4.73725">
        <ele>295.45496</ele>
        <time>2022-09-12T14:28:19.000Z</time>
      </trkpt>
      <trkpt lat="45.83456" lon="4.73725">
        <ele>295.60373</ele>
        <time>2022-09-12T14:28:20.000Z</time>
      </trkpt>
      <trkpt lat="45.83452" lon="4.73726">
        <ele>295.708</ele>
        <time>2022-09-12T14:28:21.000Z</time>
      </trkpt>
      <trkpt lat="45.83447" lon="4.73725">
        <ele>295.86705</ele>
        <time>2022-09-12T14:28:22.000Z</time>
      </trkpt>
      <trkpt lat="45.83443" lon="4.73724">
        <ele>295.97416</ele>
        <time>2022-09-12T14:28:23.000Z</time>
      </trkpt>
      <trkpt lat="45.83438" lon="4.73724">
        <ele>296.05655</ele>
        <time>2022-09-12T14:28:24.000Z</time>
      </trkpt>
      <trkpt lat="45.83433" lon="4.73724">
        <ele>296.13904</ele>
        <time>2022-09-12T14:28:25.000Z</time>
      </trkpt>
      <trkpt lat="45.83429" lon="4.73724">
        <ele>296.21911</ele>
        <time>2022-09-12T14:28:26.000Z</time>
      </trkpt>
      <trkpt lat="45.83424" lon="4.73725">
        <ele>296.2602</ele>
        <time>2022-09-12T14:28:27.000Z</time>
      </trkpt>
      <trkpt lat="45.83419" lon="4.73725">
        <ele>296.32527</ele>
        <time>2022-09-12T14:28:28.000Z</time>
      </trkpt>
      <trkpt lat="45.83414" lon="4.73725">
        <ele>296.40777</ele>
        <time>2022-09-12T14:28:29.000Z</time>
      </trkpt>
      <trkpt lat="45.83409" lon="4.73725">
        <ele>296.46546</ele>
        <time>2022-09-12T14:28:30.000Z</time>
      </trkpt>
      <trkpt lat="45.83404" lon="4.73726">
        <ele>296.53245</ele>
        <time>2022-09-12T14:28:31.000Z</time>
      </trkpt>
      <trkpt lat="45.83399" lon="4.73726">
        <ele>296.6485</ele>
        <time>2022-09-12T14:28:32.000Z</time>
      </trkpt>
      <trkpt lat="45.83396" lon="4.73726">
        <ele>296.72376</ele>
        <time>2022-09-12T14:28:33.000Z</time>
      </trkpt>
      <trkpt lat="45.83391" lon="4.73727">
        <ele>296.83572</ele>
        <time>2022-09-12T14:28:34.000Z</time>
      </trkpt>
      <trkpt lat="45.83387" lon="4.73728">
        <ele>296.91201</ele>
        <time>2022-09-12T14:28:35.000Z</time>
      </trkpt>
      <trkpt lat="45.83382" lon="4.73727">
        <ele>297.07585</ele>
        <time>2022-09-12T14:28:36.000Z</time>
      </trkpt>
      <trkpt lat="45.83377" lon="4.73729">
        <ele>297.23124</ele>
        <time>2022-09-12T14:28:37.000Z</time>
      </trkpt>
      <trkpt lat="45.83372" lon="4.7373">
        <ele>297.42622</ele>
        <time>2022-09-12T14:28:38.000Z</time>
      </trkpt>
      <trkpt lat="45.83367" lon="4.73729">
        <ele>297.66179</ele>
        <time>2022-09-12T14:28:39.000Z</time>
      </trkpt>
      <trkpt lat="45.83363" lon="4.73729">
        <ele>297.85471</ele>
        <time>2022-09-12T14:28:40.000Z</time>
      </trkpt>
      <trkpt lat="45.83358" lon="4.7373">
        <ele>298.01926</ele>
        <time>2022-09-12T14:28:41.000Z</time>
      </trkpt>
      <trkpt lat="45.83354" lon="4.73731">
        <ele>298.16449</ele>
        <time>2022-09-12T14:28:42.000Z</time>
      </trkpt>
      <trkpt lat="45.83349" lon="4.73731">
        <ele>298.30289</ele>
        <time>2022-09-12T14:28:43.000Z</time>
      </trkpt>
      <trkpt lat="45.83345" lon="4.73731">
        <ele>298.41705</ele>
        <time>2022-09-12T14:28:44.000Z</time>
      </trkpt>
      <trkpt lat="45.83341" lon="4.73732">
        <ele>298.52169</ele>
        <time>2022-09-12T14:28:45.000Z</time>
      </trkpt>
      <trkpt lat="45.83337" lon="4.73733">
        <ele>298.63017</ele>
        <time>2022-09-12T14:28:46.000Z</time>
      </trkpt>
      <trkpt lat="45.83332" lon="4.73734">
        <ele>298.80751</ele>
        <time>2022-09-12T14:28:47.000Z</time>
      </trkpt>
      <trkpt lat="45.83329" lon="4.73735">
        <ele>298.97862</ele>
        <time>2022-09-12T14:28:48.000Z</time>
      </trkpt>
      <trkpt lat="45.83324" lon="4.73737">
        <ele>299.20514</ele>
        <time>2022-09-12T14:28:49.000Z</time>
      </trkpt>
      <trkpt lat="45.8332" lon="4.73737">
        <ele>299.45476</ele>
        <time>2022-09-12T14:28:50.000Z</time>
      </trkpt>
      <trkpt lat="45.83316" lon="4.73737">
        <ele>299.71023</ele>
        <time>2022-09-12T14:28:51.000Z</time>
      </trkpt>
      <trkpt lat="45.83313" lon="4.73738">
        <ele>299.87818</ele>
        <time>2022-09-12T14:28:52.000Z</time>
      </trkpt>
      <trkpt lat="45.83309" lon="4.73738">
        <ele>300.06765</ele>
        <time>2022-09-12T14:28:53.000Z</time>
      </trkpt>
      <trkpt lat="45.83305" lon="4.73739">
        <ele>300.22817</ele>
        <time>2022-09-12T14:28:54.000Z</time>
      </trkpt>
      <trkpt lat="45.83301" lon="4.73739">
        <ele>300.38519</ele>
        <time>2022-09-12T14:28:55.000Z</time>
      </trkpt>
      <trkpt lat="45.83297" lon="4.73739">
        <ele>300.51952</ele>
        <time>2022-09-12T14:28:56.000Z</time>
      </trkpt>
      <trkpt lat="45.83294" lon="4.7374">
        <ele>300.62574</ele>
        <time>2022-09-12T14:28:57.000Z</time>
      </trkpt>
      <trkpt lat="45.8329" lon="4.73739">
        <ele>300.79791</ele>
        <time>2022-09-12T14:28:58.000Z</time>
      </trkpt>
      <trkpt lat="45.83286" lon="4.73739">
        <ele>301.00096</ele>
        <time>2022-09-12T14:28:59.000Z</time>
      </trkpt>
      <trkpt lat="45.83282" lon="4.73739">
        <ele>301.2108</ele>
        <time>2022-09-12T14:29:00.000Z</time>
      </trkpt>
      <trkpt lat="45.83278" lon="4.73739">
        <ele>301.42845</ele>
        <time>2022-09-12T14:29:01.000Z</time>
      </trkpt>
      <trkpt lat="45.83274" lon="4.73738">
        <ele>301.64768</ele>
        <time>2022-09-12T14:29:02.000Z</time>
      </trkpt>
      <trkpt lat="45.8327" lon="4.73738">
        <ele>301.8583</ele>
        <time>2022-09-12T14:29:03.000Z</time>
      </trkpt>
      <trkpt lat="45.83266" lon="4.73738">
        <ele>302.07511</ele>
        <time>2022-09-12T14:29:04.000Z</time>
      </trkpt>
      <trkpt lat="45.83262" lon="4.73738">
        <ele>302.30227</ele>
        <time>2022-09-12T14:29:05.000Z</time>
      </trkpt>
      <trkpt lat="45.83258" lon="4.73737">
        <ele>302.54789</ele>
        <time>2022-09-12T14:29:06.000Z</time>
      </trkpt>
      <trkpt lat="45.83254" lon="4.73738">
        <ele>302.79511</ele>
        <time>2022-09-12T14:29:07.000Z</time>
      </trkpt>
      <trkpt lat="45.8325" lon="4.73739">
        <ele>302.99257</ele>
        <time>2022-09-12T14:29:08.000Z</time>
      </trkpt>
      <trkpt lat="45.83246" lon="4.7374">
        <ele>303.11945</ele>
        <time>2022-09-12T14:29:09.000Z</time>
      </trkpt>
      <trkpt lat="45.83243" lon="4.7374">
        <ele>303.20057</ele>
        <time>2022-09-12T14:29:10.000Z</time>
      </trkpt>
      <trkpt lat="45.83239" lon="4.7374">
        <ele>303.23444</ele>
        <time>2022-09-12T14:29:11.000Z</time>
      </trkpt>
      <trkpt lat="45.83236" lon="4.7374">
        <ele>303.24416</ele>
        <time>2022-09-12T14:29:12.000Z</time>
      </trkpt>
      <trkpt lat="45.83233" lon="4.73739">
        <ele>303.24047</ele>
        <time>2022-09-12T14:29:13.000Z</time>
      </trkpt>
      <trkpt lat="45.8323" lon="4.73739">
        <ele>303.24407</ele>
        <time>2022-09-12T14:29:14.000Z</time>
      </trkpt>
      <trkpt lat="45.83227" lon="4.73739">
        <ele>303.26836</ele>
        <time>2022-09-12T14:29:15.000Z</time>
      </trkpt>
      <trkpt lat="45.83224" lon="4.73738">
        <ele>303.35304</ele>
        <time>2022-09-12T14:29:16.000Z</time>
      </trkpt>
      <trkpt lat="45.8322" lon="4.73738">
        <ele>303.42996</ele>
        <time>2022-09-12T14:29:17.000Z</time>
      </trkpt>
      <trkpt lat="45.83217" lon="4.73738">
        <ele>303.5196</ele>
        <time>2022-09-12T14:29:18.000Z</time>
      </trkpt>
      <trkpt lat="45.83214" lon="4.73739">
        <ele>303.62417</ele>
        <time>2022-09-12T14:29:19.000Z</time>
      </trkpt>
      <trkpt lat="45.8321" lon="4.73739">
        <ele>303.79699</ele>
        <time>2022-09-12T14:29:20.000Z</time>
      </trkpt>
      <trkpt lat="45.83207" lon="4.73739">
        <ele>304.00418</ele>
        <time>2022-09-12T14:29:21.000Z</time>
      </trkpt>
      <trkpt lat="45.83204" lon="4.73739">
        <ele>304.21475</ele>
        <time>2022-09-12T14:29:22.000Z</time>
      </trkpt>
      <trkpt lat="45.832" lon="4.73739">
        <ele>304.41953</ele>
        <time>2022-09-12T14:29:23.000Z</time>
      </trkpt>
      <trkpt lat="45.83197" lon="4.73739">
        <ele>304.67166</ele>
        <time>2022-09-12T14:29:24.000Z</time>
      </trkpt>
      <trkpt lat="45.83193" lon="4.7374">
        <ele>304.96477</ele>
        <time>2022-09-12T14:29:25.000Z</time>
      </trkpt>
      <trkpt lat="45.8319" lon="4.7374">
        <ele>305.31628</ele>
        <time>2022-09-12T14:29:26.000Z</time>
      </trkpt>
      <trkpt lat="45.83186" lon="4.73739">
        <ele>305.69417</ele>
        <time>2022-09-12T14:29:27.000Z</time>
      </trkpt>
      <trkpt lat="45.83182" lon="4.73739">
        <ele>306.06816</ele>
        <time>2022-09-12T14:29:28.000Z</time>
      </trkpt>
      <trkpt lat="45.83178" lon="4.73739">
        <ele>306.4128</ele>
        <time>2022-09-12T14:29:29.000Z</time>
      </trkpt>
      <trkpt lat="45.83175" lon="4.73739">
        <ele>306.68355</ele>
        <time>2022-09-12T14:29:30.000Z</time>
      </trkpt>
      <trkpt lat="45.83171" lon="4.73739">
        <ele>306.91209</ele>
        <time>2022-09-12T14:29:31.000Z</time>
      </trkpt>
      <trkpt lat="45.83167" lon="4.73739">
        <ele>307.09975</ele>
        <time>2022-09-12T14:29:32.000Z</time>
      </trkpt>
      <trkpt lat="45.83163" lon="4.73738">
        <ele>307.26195</ele>
        <time>2022-09-12T14:29:33.000Z</time>
      </trkpt>
      <trkpt lat="45.83159" lon="4.73738">
        <ele>307.43426</ele>
        <time>2022-09-12T14:29:34.000Z</time>
      </trkpt>
      <trkpt lat="45.83155" lon="4.73738">
        <ele>307.64439</ele>
        <time>2022-09-12T14:29:35.000Z</time>
      </trkpt>
      <trkpt lat="45.8315" lon="4.73737">
        <ele>307.88085</ele>
        <time>2022-09-12T14:29:36.000Z</time>
      </trkpt>
      <trkpt lat="45.83146" lon="4.73737">
        <ele>308.12628</ele>
        <time>2022-09-12T14:29:37.000Z</time>
      </trkpt>
      <trkpt lat="45.83142" lon="4.73737">
        <ele>308.36493</ele>
        <time>2022-09-12T14:29:38.000Z</time>
      </trkpt>
      <trkpt lat="45.83138" lon="4.73738">
        <ele>308.60415</ele>
        <time>2022-09-12T14:29:39.000Z</time>
      </trkpt>
      <trkpt lat="45.83134" lon="4.73738">
        <ele>308.8384</ele>
        <time>2022-09-12T14:29:40.000Z</time>
      </trkpt>
      <trkpt lat="45.8313" lon="4.73738">
        <ele>309.06979</ele>
        <time>2022-09-12T14:29:41.000Z</time>
      </trkpt>
      <trkpt lat="45.83126" lon="4.73738">
        <ele>309.29725</ele>
        <time>2022-09-12T14:29:42.000Z</time>
      </trkpt>
      <trkpt lat="45.83122" lon="4.73738">
        <ele>309.51097</ele>
        <time>2022-09-12T14:29:43.000Z</time>
      </trkpt>
      <trkpt lat="45.83118" lon="4.73739">
        <ele>309.73276</ele>
        <time>2022-09-12T14:29:44.000Z</time>
      </trkpt>
      <trkpt lat="45.83114" lon="4.73739">
        <ele>309.96933</ele>
        <time>2022-09-12T14:29:45.000Z</time>
      </trkpt>
      <trkpt lat="45.8311" lon="4.73739">
        <ele>310.23508</ele>
        <time>2022-09-12T14:29:46.000Z</time>
      </trkpt>
      <trkpt lat="45.83105" lon="4.7374">
        <ele>310.56743</ele>
        <time>2022-09-12T14:29:47.000Z</time>
      </trkpt>
      <trkpt lat="45.831" lon="4.73741">
        <ele>311.01189</ele>
        <time>2022-09-12T14:29:48.000Z</time>
      </trkpt>
      <trkpt lat="45.83095" lon="4.73737">
        <ele>311.36539</ele>
        <time>2022-09-12T14:29:49.000Z</time>
      </trkpt>
      <trkpt lat="45.83091" lon="4.73738">
        <ele>311.74637</ele>
        <time>2022-09-12T14:29:50.000Z</time>
      </trkpt>
      <trkpt lat="45.83085" lon="4.73737">
        <ele>312.19834</ele>
        <time>2022-09-12T14:29:51.000Z</time>
      </trkpt>
      <trkpt lat="45.83081" lon="4.73738">
        <ele>312.50293</ele>
        <time>2022-09-12T14:29:52.000Z</time>
      </trkpt>
      <trkpt lat="45.83078" lon="4.73739">
        <ele>312.76864</ele>
        <time>2022-09-12T14:29:53.000Z</time>
      </trkpt>
      <trkpt lat="45.83075" lon="4.7374">
        <ele>313.02335</ele>
        <time>2022-09-12T14:29:54.000Z</time>
      </trkpt>
      <trkpt lat="45.8307" lon="4.73739">
        <ele>313.32092</ele>
        <time>2022-09-12T14:29:55.000Z</time>
      </trkpt>
      <trkpt lat="45.83066" lon="4.73739">
        <ele>313.63367</ele>
        <time>2022-09-12T14:29:56.000Z</time>
      </trkpt>
      <trkpt lat="45.83062" lon="4.73738">
        <ele>313.92029</ele>
        <time>2022-09-12T14:29:57.000Z</time>
      </trkpt>
      <trkpt lat="45.83057" lon="4.73738">
        <ele>314.22986</ele>
        <time>2022-09-12T14:29:58.000Z</time>
      </trkpt>
      <trkpt lat="45.83052" lon="4.73739">
        <ele>314.63366</ele>
        <time>2022-09-12T14:29:59.000Z</time>
      </trkpt>
      <trkpt lat="45.83048" lon="4.73739">
        <ele>314.9684</ele>
        <time>2022-09-12T14:30:00.000Z</time>
      </trkpt>
      <trkpt lat="45.83043" lon="4.7374">
        <ele>315.31325</ele>
        <time>2022-09-12T14:30:01.000Z</time>
      </trkpt>
      <trkpt lat="45.83038" lon="4.73738">
        <ele>315.53857</ele>
        <time>2022-09-12T14:30:02.000Z</time>
      </trkpt>
      <trkpt lat="45.83034" lon="4.7374">
        <ele>315.75135</ele>
        <time>2022-09-12T14:30:03.000Z</time>
      </trkpt>
      <trkpt lat="45.8303" lon="4.73739">
        <ele>315.89751</ele>
        <time>2022-09-12T14:30:04.000Z</time>
      </trkpt>
      <trkpt lat="45.83025" lon="4.73739">
        <ele>316.09885</ele>
        <time>2022-09-12T14:30:05.000Z</time>
      </trkpt>
      <trkpt lat="45.8302" lon="4.73738">
        <ele>316.33683</ele>
        <time>2022-09-12T14:30:06.000Z</time>
      </trkpt>
      <trkpt lat="45.83016" lon="4.73737">
        <ele>316.61677</ele>
        <time>2022-09-12T14:30:07.000Z</time>
      </trkpt>
      <trkpt lat="45.83011" lon="4.73737">
        <ele>316.94363</ele>
        <time>2022-09-12T14:30:08.000Z</time>
      </trkpt>
      <trkpt lat="45.83007" lon="4.73735">
        <ele>317.30748</ele>
        <time>2022-09-12T14:30:09.000Z</time>
      </trkpt>
      <trkpt lat="45.83002" lon="4.73736">
        <ele>317.68442</ele>
        <time>2022-09-12T14:30:10.000Z</time>
      </trkpt>
      <trkpt lat="45.82997" lon="4.73736">
        <ele>318.06934</ele>
        <time>2022-09-12T14:30:11.000Z</time>
      </trkpt>
      <trkpt lat="45.82992" lon="4.73735">
        <ele>318.4446</ele>
        <time>2022-09-12T14:30:12.000Z</time>
      </trkpt>
      <trkpt lat="45.82988" lon="4.73736">
        <ele>318.76489</ele>
        <time>2022-09-12T14:30:13.000Z</time>
      </trkpt>
      <trkpt lat="45.82982" lon="4.73734">
        <ele>319.16664</ele>
        <time>2022-09-12T14:30:14.000Z</time>
      </trkpt>
      <trkpt lat="45.82977" lon="4.73735">
        <ele>319.55781</ele>
        <time>2022-09-12T14:30:15.000Z</time>
      </trkpt>
      <trkpt lat="45.82973" lon="4.73734">
        <ele>319.86756</ele>
        <time>2022-09-12T14:30:16.000Z</time>
      </trkpt>
      <trkpt lat="45.82969" lon="4.73734">
        <ele>320.22109</ele>
        <time>2022-09-12T14:30:17.000Z</time>
      </trkpt>
      <trkpt lat="45.82964" lon="4.73734">
        <ele>320.58765</ele>
        <time>2022-09-12T14:30:18.000Z</time>
      </trkpt>
      <trkpt lat="45.82959" lon="4.73733">
        <ele>320.95733</ele>
        <time>2022-09-12T14:30:19.000Z</time>
      </trkpt>
      <trkpt lat="45.82953" lon="4.73732">
        <ele>321.32109</ele>
        <time>2022-09-12T14:30:20.000Z</time>
      </trkpt>
      <trkpt lat="45.82948" lon="4.73734">
        <ele>321.65395</ele>
        <time>2022-09-12T14:30:21.000Z</time>
      </trkpt>
      <trkpt lat="45.82943" lon="4.73733">
        <ele>321.94849</ele>
        <time>2022-09-12T14:30:22.000Z</time>
      </trkpt>
      <trkpt lat="45.82938" lon="4.73733">
        <ele>322.21871</ele>
        <time>2022-09-12T14:30:23.000Z</time>
      </trkpt>
      <trkpt lat="45.82933" lon="4.73732">
        <ele>322.53995</ele>
        <time>2022-09-12T14:30:24.000Z</time>
      </trkpt>
      <trkpt lat="45.82927" lon="4.73732">
        <ele>322.98601</ele>
        <time>2022-09-12T14:30:25.000Z</time>
      </trkpt>
      <trkpt lat="45.82922" lon="4.73732">
        <ele>323.43558</ele>
        <time>2022-09-12T14:30:26.000Z</time>
      </trkpt>
      <trkpt lat="45.82918" lon="4.73733">
        <ele>323.80384</ele>
        <time>2022-09-12T14:30:27.000Z</time>
      </trkpt>
      <trkpt lat="45.82913" lon="4.73731">
        <ele>324.28151</ele>
        <time>2022-09-12T14:30:28.000Z</time>
      </trkpt>
      <trkpt lat="45.82907" lon="4.7373">
        <ele>324.72866</ele>
        <time>2022-09-12T14:30:29.000Z</time>
      </trkpt>
      <trkpt lat="45.82903" lon="4.73729">
        <ele>325.10446</ele>
        <time>2022-09-12T14:30:30.000Z</time>
      </trkpt>
      <trkpt lat="45.82896" lon="4.73729">
        <ele>325.57559</ele>
        <time>2022-09-12T14:30:31.000Z</time>
      </trkpt>
      <trkpt lat="45.8289" lon="4.73729">
        <ele>326.00792</ele>
        <time>2022-09-12T14:30:32.000Z</time>
      </trkpt>
      <trkpt lat="45.82886" lon="4.73728">
        <ele>326.32233</ele>
        <time>2022-09-12T14:30:33.000Z</time>
      </trkpt>
      <trkpt lat="45.82881" lon="4.73731">
        <ele>326.69104</ele>
        <time>2022-09-12T14:30:34.000Z</time>
      </trkpt>
      <trkpt lat="45.82876" lon="4.73729">
        <ele>326.96067</ele>
        <time>2022-09-12T14:30:35.000Z</time>
      </trkpt>
      <trkpt lat="45.82872" lon="4.73728">
        <ele>327.23586</ele>
        <time>2022-09-12T14:30:36.000Z</time>
      </trkpt>
      <trkpt lat="45.82867" lon="4.73729">
        <ele>327.52679</ele>
        <time>2022-09-12T14:30:37.000Z</time>
      </trkpt>
      <trkpt lat="45.82863" lon="4.73729">
        <ele>327.8034</ele>
        <time>2022-09-12T14:30:38.000Z</time>
      </trkpt>
      <trkpt lat="45.82859" lon="4.73729">
        <ele>328.11972</ele>
        <time>2022-09-12T14:30:39.000Z</time>
      </trkpt>
      <trkpt lat="45.82855" lon="4.73729">
        <ele>328.40886</ele>
        <time>2022-09-12T14:30:40.000Z</time>
      </trkpt>
      <trkpt lat="45.82851" lon="4.73728">
        <ele>328.76099</ele>
        <time>2022-09-12T14:30:41.000Z</time>
      </trkpt>
      <trkpt lat="45.82846" lon="4.73728">
        <ele>329.14043</ele>
        <time>2022-09-12T14:30:42.000Z</time>
      </trkpt>
      <trkpt lat="45.82841" lon="4.73727">
        <ele>329.53238</ele>
        <time>2022-09-12T14:30:43.000Z</time>
      </trkpt>
      <trkpt lat="45.82835" lon="4.73727">
        <ele>330.00337</ele>
        <time>2022-09-12T14:30:44.000Z</time>
      </trkpt>
      <trkpt lat="45.8283" lon="4.73727">
        <ele>330.42148</ele>
        <time>2022-09-12T14:30:45.000Z</time>
      </trkpt>
      <trkpt lat="45.82826" lon="4.73726">
        <ele>330.84513</ele>
        <time>2022-09-12T14:30:46.000Z</time>
      </trkpt>
      <trkpt lat="45.82821" lon="4.73726">
        <ele>331.2737</ele>
        <time>2022-09-12T14:30:47.000Z</time>
      </trkpt>
      <trkpt lat="45.82817" lon="4.73725">
        <ele>331.6065</ele>
        <time>2022-09-12T14:30:48.000Z</time>
      </trkpt>
      <trkpt lat="45.82812" lon="4.73726">
        <ele>331.92887</ele>
        <time>2022-09-12T14:30:49.000Z</time>
      </trkpt>
      <trkpt lat="45.82808" lon="4.73723">
        <ele>332.30875</ele>
        <time>2022-09-12T14:30:50.000Z</time>
      </trkpt>
      <trkpt lat="45.82804" lon="4.73721">
        <ele>332.61297</ele>
        <time>2022-09-12T14:30:51.000Z</time>
      </trkpt>
      <trkpt lat="45.828" lon="4.73723">
        <ele>332.87444</ele>
        <time>2022-09-12T14:30:52.000Z</time>
      </trkpt>
      <trkpt lat="45.82797" lon="4.73723">
        <ele>333.15404</ele>
        <time>2022-09-12T14:30:53.000Z</time>
      </trkpt>
      <trkpt lat="45.82792" lon="4.73722">
        <ele>333.54333</ele>
        <time>2022-09-12T14:30:54.000Z</time>
      </trkpt>
      <trkpt lat="45.82788" lon="4.73722">
        <ele>333.87696</ele>
        <time>2022-09-12T14:30:55.000Z</time>
      </trkpt>
      <trkpt lat="45.82784" lon="4.73723">
        <ele>334.22574</ele>
        <time>2022-09-12T14:30:56.000Z</time>
      </trkpt>
      <trkpt lat="45.82779" lon="4.73725">
        <ele>334.59294</ele>
        <time>2022-09-12T14:30:57.000Z</time>
      </trkpt>
      <trkpt lat="45.82775" lon="4.73724">
        <ele>334.9025</ele>
        <time>2022-09-12T14:30:58.000Z</time>
      </trkpt>
      <trkpt lat="45.8277" lon="4.73721">
        <ele>335.34254</ele>
        <time>2022-09-12T14:30:59.000Z</time>
      </trkpt>
      <trkpt lat="45.82765" lon="4.7372">
        <ele>335.71736</ele>
        <time>2022-09-12T14:31:00.000Z</time>
      </trkpt>
      <trkpt lat="45.82759" lon="4.7372">
        <ele>335.98493</ele>
        <time>2022-09-12T14:31:01.000Z</time>
      </trkpt>
      <trkpt lat="45.82753" lon="4.7372">
        <ele>336.27746</ele>
        <time>2022-09-12T14:31:02.000Z</time>
      </trkpt>
      <trkpt lat="45.82746" lon="4.7372">
        <ele>336.62631</ele>
        <time>2022-09-12T14:31:03.000Z</time>
      </trkpt>
      <trkpt lat="45.82741" lon="4.73719">
        <ele>337.02083</ele>
        <time>2022-09-12T14:31:04.000Z</time>
      </trkpt>
      <trkpt lat="45.82735" lon="4.73719">
        <ele>337.40067</ele>
        <time>2022-09-12T14:31:05.000Z</time>
      </trkpt>
      <trkpt lat="45.82731" lon="4.73719">
        <ele>337.68858</ele>
        <time>2022-09-12T14:31:06.000Z</time>
      </trkpt>
      <trkpt lat="45.82726" lon="4.73719">
        <ele>337.94027</ele>
        <time>2022-09-12T14:31:07.000Z</time>
      </trkpt>
      <trkpt lat="45.82721" lon="4.7372">
        <ele>338.11787</ele>
        <time>2022-09-12T14:31:08.000Z</time>
      </trkpt>
      <trkpt lat="45.82717" lon="4.73719">
        <ele>338.40753</ele>
        <time>2022-09-12T14:31:09.000Z</time>
      </trkpt>
      <trkpt lat="45.82713" lon="4.73719">
        <ele>338.6438</ele>
        <time>2022-09-12T14:31:10.000Z</time>
      </trkpt>
      <trkpt lat="45.82708" lon="4.73717">
        <ele>338.93975</ele>
        <time>2022-09-12T14:31:11.000Z</time>
      </trkpt>
      <trkpt lat="45.82704" lon="4.73717">
        <ele>339.14322</ele>
        <time>2022-09-12T14:31:12.000Z</time>
      </trkpt>
      <trkpt lat="45.82699" lon="4.73719">
        <ele>339.13927</ele>
        <time>2022-09-12T14:31:13.000Z</time>
      </trkpt>
      <trkpt lat="45.82696" lon="4.7372">
        <ele>339.15848</ele>
        <time>2022-09-12T14:31:14.000Z</time>
      </trkpt>
      <trkpt lat="45.82691" lon="4.7372">
        <ele>339.27552</ele>
        <time>2022-09-12T14:31:15.000Z</time>
      </trkpt>
      <trkpt lat="45.82687" lon="4.73721">
        <ele>339.28868</ele>
        <time>2022-09-12T14:31:16.000Z</time>
      </trkpt>
      <trkpt lat="45.82683" lon="4.7372">
        <ele>339.39632</ele>
        <time>2022-09-12T14:31:17.000Z</time>
      </trkpt>
      <trkpt lat="45.82679" lon="4.73719">
        <ele>339.51814</ele>
        <time>2022-09-12T14:31:18.000Z</time>
      </trkpt>
      <trkpt lat="45.82676" lon="4.73719">
        <ele>339.55611</ele>
        <time>2022-09-12T14:31:19.000Z</time>
      </trkpt>
      <trkpt lat="45.82673" lon="4.73719">
        <ele>339.57893</ele>
        <time>2022-09-12T14:31:20.000Z</time>
      </trkpt>
      <trkpt lat="45.8267" lon="4.73719">
        <ele>339.5593</ele>
        <time>2022-09-12T14:31:21.000Z</time>
      </trkpt>
      <trkpt lat="45.82667" lon="4.73719">
        <ele>339.51629</ele>
        <time>2022-09-12T14:31:22.000Z</time>
      </trkpt>
      <trkpt lat="45.82665" lon="4.7372">
        <ele>339.47101</ele>
        <time>2022-09-12T14:31:23.000Z</time>
      </trkpt>
      <trkpt lat="45.82663" lon="4.7372">
        <ele>339.41917</ele>
        <time>2022-09-12T14:31:24.000Z</time>
      </trkpt>
      <trkpt lat="45.82663" lon="4.7372">
        <ele>339.41917</ele>
        <time>2022-09-12T14:31:24.000Z</time>
      </trkpt>
      <trkpt lat="45.82661" lon="4.73721">
        <ele>339.36665</ele>
        <time>2022-09-12T14:31:25.000Z</time>
      </trkpt>
      <trkpt lat="45.82659" lon="4.73721">
        <ele>339.33563</ele>
        <time>2022-09-12T14:31:26.000Z</time>
      </trkpt>
      <trkpt lat="45.82657" lon="4.73719">
        <ele>339.46228</ele>
        <time>2022-09-12T14:31:28.000Z</time>
      </trkpt>
      <trkpt lat="45.82658" lon="4.73715">
        <ele>339.73163</ele>
        <time>2022-09-12T14:31:30.000Z</time>
      </trkpt>
      <trkpt lat="45.82661" lon="4.73712">
        <ele>339.91097</ele>
        <time>2022-09-12T14:31:31.000Z</time>
      </trkpt>
      <trkpt lat="45.82665" lon="4.7371">
        <ele>340.10155</ele>
        <time>2022-09-12T14:31:32.000Z</time>
      </trkpt>
      <trkpt lat="45.82673" lon="4.73707">
        <ele>340.30264</ele>
        <time>2022-09-12T14:31:33.000Z</time>
      </trkpt>
      <trkpt lat="45.82678" lon="4.73704">
        <ele>340.53655</ele>
        <time>2022-09-12T14:31:34.000Z</time>
      </trkpt>
      <trkpt lat="45.82682" lon="4.737">
        <ele>340.70938</ele>
        <time>2022-09-12T14:31:35.000Z</time>
      </trkpt>
      <trkpt lat="45.82686" lon="4.73696">
        <ele>340.85744</ele>
        <time>2022-09-12T14:31:36.000Z</time>
      </trkpt>
      <trkpt lat="45.8269" lon="4.73693">
        <ele>340.97701</ele>
        <time>2022-09-12T14:31:37.000Z</time>
      </trkpt>
      <trkpt lat="45.82694" lon="4.73689">
        <ele>341.05013</ele>
        <time>2022-09-12T14:31:38.000Z</time>
      </trkpt>
      <trkpt lat="45.82698" lon="4.73687">
        <ele>341.09905</ele>
        <time>2022-09-12T14:31:39.000Z</time>
      </trkpt>
      <trkpt lat="45.82701" lon="4.73684">
        <ele>341.12227</ele>
        <time>2022-09-12T14:31:40.000Z</time>
      </trkpt>
      <trkpt lat="45.82704" lon="4.7368">
        <ele>341.15448</ele>
        <time>2022-09-12T14:31:41.000Z</time>
      </trkpt>
      <trkpt lat="45.82707" lon="4.73677">
        <ele>341.16188</ele>
        <time>2022-09-12T14:31:42.000Z</time>
      </trkpt>
      <trkpt lat="45.82711" lon="4.73673">
        <ele>341.15644</ele>
        <time>2022-09-12T14:31:43.000Z</time>
      </trkpt>
      <trkpt lat="45.82714" lon="4.7367">
        <ele>341.09837</ele>
        <time>2022-09-12T14:31:44.000Z</time>
      </trkpt>
      <trkpt lat="45.82717" lon="4.73666">
        <ele>341.10834</ele>
        <time>2022-09-12T14:31:45.000Z</time>
      </trkpt>
      <trkpt lat="45.82721" lon="4.73664">
        <ele>340.94372</ele>
        <time>2022-09-12T14:31:46.000Z</time>
      </trkpt>
      <trkpt lat="45.82725" lon="4.73661">
        <ele>340.89076</ele>
        <time>2022-09-12T14:31:47.000Z</time>
      </trkpt>
      <trkpt lat="45.82728" lon="4.73657">
        <ele>340.78735</ele>
        <time>2022-09-12T14:31:48.000Z</time>
      </trkpt>
      <trkpt lat="45.82732" lon="4.73654">
        <ele>340.65096</ele>
        <time>2022-09-12T14:31:49.000Z</time>
      </trkpt>
      <trkpt lat="45.82735" lon="4.73651">
        <ele>340.46835</ele>
        <time>2022-09-12T14:31:50.000Z</time>
      </trkpt>
      <trkpt lat="45.82738" lon="4.73648">
        <ele>340.27293</ele>
        <time>2022-09-12T14:31:51.000Z</time>
      </trkpt>
      <trkpt lat="45.82741" lon="4.73645">
        <ele>340.04997</ele>
        <time>2022-09-12T14:31:52.000Z</time>
      </trkpt>
      <trkpt lat="45.82744" lon="4.73642">
        <ele>339.84239</ele>
        <time>2022-09-12T14:31:53.000Z</time>
      </trkpt>
      <trkpt lat="45.82746" lon="4.7364">
        <ele>339.66862</ele>
        <time>2022-09-12T14:31:54.000Z</time>
      </trkpt>
      <trkpt lat="45.82749" lon="4.73638">
        <ele>339.53406</ele>
        <time>2022-09-12T14:31:55.000Z</time>
      </trkpt>
      <trkpt lat="45.82751" lon="4.73635">
        <ele>339.43838</ele>
        <time>2022-09-12T14:31:56.000Z</time>
      </trkpt>
      <trkpt lat="45.82753" lon="4.73632">
        <ele>339.38832</ele>
        <time>2022-09-12T14:31:57.000Z</time>
      </trkpt>
      <trkpt lat="45.82756" lon="4.73629">
        <ele>339.2968</ele>
        <time>2022-09-12T14:31:58.000Z</time>
      </trkpt>
      <trkpt lat="45.82758" lon="4.73627">
        <ele>339.11307</ele>
        <time>2022-09-12T14:31:59.000Z</time>
      </trkpt>
      <trkpt lat="45.82761" lon="4.73623">
        <ele>338.88575</ele>
        <time>2022-09-12T14:32:00.000Z</time>
      </trkpt>
      <trkpt lat="45.82764" lon="4.73619">
        <ele>338.64701</ele>
        <time>2022-09-12T14:32:01.000Z</time>
      </trkpt>
      <trkpt lat="45.82767" lon="4.73615">
        <ele>338.42778</ele>
        <time>2022-09-12T14:32:02.000Z</time>
      </trkpt>
      <trkpt lat="45.82769" lon="4.73611">
        <ele>338.22011</ele>
        <time>2022-09-12T14:32:03.000Z</time>
      </trkpt>
      <trkpt lat="45.82771" lon="4.73607">
        <ele>337.99911</ele>
        <time>2022-09-12T14:32:04.000Z</time>
      </trkpt>
      <trkpt lat="45.82774" lon="4.73604">
        <ele>337.75588</ele>
        <time>2022-09-12T14:32:05.000Z</time>
      </trkpt>
      <trkpt lat="45.82776" lon="4.73601">
        <ele>337.53428</ele>
        <time>2022-09-12T14:32:06.000Z</time>
      </trkpt>
      <trkpt lat="45.82778" lon="4.73599">
        <ele>337.3999</ele>
        <time>2022-09-12T14:32:07.000Z</time>
      </trkpt>
      <trkpt lat="45.8278" lon="4.73595">
        <ele>337.29429</ele>
        <time>2022-09-12T14:32:09.000Z</time>
      </trkpt>
      <trkpt lat="45.82781" lon="4.73592">
        <ele>337.18072</ele>
        <time>2022-09-12T14:32:11.000Z</time>
      </trkpt>
      <trkpt lat="45.82783" lon="4.7359">
        <ele>337.02661</ele>
        <time>2022-09-12T14:32:13.000Z</time>
      </trkpt>
      <trkpt lat="45.82785" lon="4.73589">
        <ele>336.80442</ele>
        <time>2022-09-12T14:32:20.000Z</time>
      </trkpt>
      <trkpt lat="45.82788" lon="4.73586">
        <ele>336.50862</ele>
        <time>2022-09-12T14:32:29.000Z</time>
      </trkpt>
      <trkpt lat="45.82789" lon="4.73582">
        <ele>336.38646</ele>
        <time>2022-09-12T14:32:30.000Z</time>
      </trkpt>
      <trkpt lat="45.82792" lon="4.73578">
        <ele>336.16249</ele>
        <time>2022-09-12T14:32:31.000Z</time>
      </trkpt>
      <trkpt lat="45.82795" lon="4.73574">
        <ele>335.85686</ele>
        <time>2022-09-12T14:32:32.000Z</time>
      </trkpt>
      <trkpt lat="45.82798" lon="4.73569">
        <ele>335.48716</ele>
        <time>2022-09-12T14:32:33.000Z</time>
      </trkpt>
      <trkpt lat="45.82802" lon="4.73564">
        <ele>335.05672</ele>
        <time>2022-09-12T14:32:34.000Z</time>
      </trkpt>
      <trkpt lat="45.82806" lon="4.73561">
        <ele>334.62124</ele>
        <time>2022-09-12T14:32:35.000Z</time>
      </trkpt>
      <trkpt lat="45.82808" lon="4.73559">
        <ele>334.31902</ele>
        <time>2022-09-12T14:32:36.000Z</time>
      </trkpt>
      <trkpt lat="45.8281" lon="4.73558">
        <ele>334.04072</ele>
        <time>2022-09-12T14:32:37.000Z</time>
      </trkpt>
      <trkpt lat="45.82812" lon="4.73557">
        <ele>333.78789</ele>
        <time>2022-09-12T14:32:38.000Z</time>
      </trkpt>
      <trkpt lat="45.82815" lon="4.73555">
        <ele>333.41671</ele>
        <time>2022-09-12T14:32:40.000Z</time>
      </trkpt>
      <trkpt lat="45.82818" lon="4.73553">
        <ele>333.10729</ele>
        <time>2022-09-12T14:32:45.000Z</time>
      </trkpt>
      <trkpt lat="45.82819" lon="4.73553">
        <ele>332.86226</ele>
        <time>2022-09-12T14:32:47.000Z</time>
      </trkpt>
      <trkpt lat="45.82822" lon="4.73552">
        <ele>332.55432</ele>
        <time>2022-09-12T14:32:50.000Z</time>
      </trkpt>
      <trkpt lat="45.82824" lon="4.73552">
        <ele>332.24066</ele>
        <time>2022-09-12T14:32:54.000Z</time>
      </trkpt>
      <trkpt lat="45.82823" lon="4.7355">
        <ele>332.46809</ele>
        <time>2022-09-12T14:34:24.000Z</time>
      </trkpt>
      <trkpt lat="45.82824" lon="4.73552">
        <ele>332.28325</ele>
        <time>2022-09-12T14:34:34.000Z</time>
      </trkpt>
      <trkpt lat="45.82823" lon="4.73549">
        <ele>332.41179</ele>
        <time>2022-09-12T14:37:49.000Z</time>
      </trkpt>
      <trkpt lat="45.82824" lon="4.73547">
        <ele>332.35046</ele>
        <time>2022-09-12T14:37:55.000Z</time>
      </trkpt>
      <trkpt lat="45.82826" lon="4.73545">
        <ele>332.14204</ele>
        <time>2022-09-12T14:38:03.000Z</time>
      </trkpt>
      <trkpt lat="45.82828" lon="4.73542">
        <ele>331.96048</ele>
        <time>2022-09-12T14:38:04.000Z</time>
      </trkpt>
      <trkpt lat="45.8283" lon="4.73538">
        <ele>331.76397</ele>
        <time>2022-09-12T14:38:05.000Z</time>
      </trkpt>
      <trkpt lat="45.82833" lon="4.73534">
        <ele>331.48239</ele>
        <time>2022-09-12T14:38:06.000Z</time>
      </trkpt>
      <trkpt lat="45.82836" lon="4.73531">
        <ele>331.12075</ele>
        <time>2022-09-12T14:38:07.000Z</time>
      </trkpt>
      <trkpt lat="45.8284" lon="4.73527">
        <ele>330.70633</ele>
        <time>2022-09-12T14:38:08.000Z</time>
      </trkpt>
      <trkpt lat="45.82844" lon="4.73524">
        <ele>330.28686</ele>
        <time>2022-09-12T14:38:09.000Z</time>
      </trkpt>
      <trkpt lat="45.82848" lon="4.7352">
        <ele>329.86758</ele>
        <time>2022-09-12T14:38:10.000Z</time>
      </trkpt>
      <trkpt lat="45.8285" lon="4.73516">
        <ele>329.52922</ele>
        <time>2022-09-12T14:38:11.000Z</time>
      </trkpt>
      <trkpt lat="45.82853" lon="4.73513">
        <ele>329.22092</ele>
        <time>2022-09-12T14:38:12.000Z</time>
      </trkpt>
      <trkpt lat="45.82856" lon="4.73509">
        <ele>328.89069</ele>
        <time>2022-09-12T14:38:13.000Z</time>
      </trkpt>
      <trkpt lat="45.82859" lon="4.73504">
        <ele>328.57547</ele>
        <time>2022-09-12T14:38:14.000Z</time>
      </trkpt>
      <trkpt lat="45.82862" lon="4.73499">
        <ele>328.28749</ele>
        <time>2022-09-12T14:38:15.000Z</time>
      </trkpt>
      <trkpt lat="45.82865" lon="4.73495">
        <ele>328.03079</ele>
        <time>2022-09-12T14:38:16.000Z</time>
      </trkpt>
      <trkpt lat="45.82868" lon="4.73491">
        <ele>327.73514</ele>
        <time>2022-09-12T14:38:17.000Z</time>
      </trkpt>
      <trkpt lat="45.82871" lon="4.73488">
        <ele>327.42695</ele>
        <time>2022-09-12T14:38:18.000Z</time>
      </trkpt>
      <trkpt lat="45.82873" lon="4.73485">
        <ele>327.1109</ele>
        <time>2022-09-12T14:38:19.000Z</time>
      </trkpt>
      <trkpt lat="45.82876" lon="4.73481">
        <ele>326.74212</ele>
        <time>2022-09-12T14:38:20.000Z</time>
      </trkpt>
      <trkpt lat="45.82879" lon="4.73477">
        <ele>326.34463</ele>
        <time>2022-09-12T14:38:21.000Z</time>
      </trkpt>
      <trkpt lat="45.82882" lon="4.73474">
        <ele>325.93855</ele>
        <time>2022-09-12T14:38:22.000Z</time>
      </trkpt>
      <trkpt lat="45.82885" lon="4.7347">
        <ele>325.57329</ele>
        <time>2022-09-12T14:38:23.000Z</time>
      </trkpt>
      <trkpt lat="45.82888" lon="4.73467">
        <ele>325.1743</ele>
        <time>2022-09-12T14:38:24.000Z</time>
      </trkpt>
      <trkpt lat="45.82892" lon="4.73464">
        <ele>324.78028</ele>
        <time>2022-09-12T14:38:25.000Z</time>
      </trkpt>
      <trkpt lat="45.82894" lon="4.73461">
        <ele>324.4334</ele>
        <time>2022-09-12T14:38:26.000Z</time>
      </trkpt>
      <trkpt lat="45.82898" lon="4.73458">
        <ele>324.00904</ele>
        <time>2022-09-12T14:38:27.000Z</time>
      </trkpt>
      <trkpt lat="45.82902" lon="4.73454">
        <ele>323.53461</ele>
        <time>2022-09-12T14:38:28.000Z</time>
      </trkpt>
      <trkpt lat="45.82906" lon="4.73451">
        <ele>323.07952</ele>
        <time>2022-09-12T14:38:29.000Z</time>
      </trkpt>
      <trkpt lat="45.82909" lon="4.73447">
        <ele>322.63435</ele>
        <time>2022-09-12T14:38:30.000Z</time>
      </trkpt>
      <trkpt lat="45.82913" lon="4.73443">
        <ele>322.17972</ele>
        <time>2022-09-12T14:38:31.000Z</time>
      </trkpt>
      <trkpt lat="45.82923" lon="4.73436">
        <ele>321.19438</ele>
        <time>2022-09-12T14:38:32.000Z</time>
      </trkpt>
      <trkpt lat="45.82927" lon="4.73432">
        <ele>320.76442</ele>
        <time>2022-09-12T14:38:33.000Z</time>
      </trkpt>
      <trkpt lat="45.82931" lon="4.73427">
        <ele>320.31778</ele>
        <time>2022-09-12T14:38:34.000Z</time>
      </trkpt>
      <trkpt lat="45.82938" lon="4.73421">
        <ele>319.7404</ele>
        <time>2022-09-12T14:38:35.000Z</time>
      </trkpt>
      <trkpt lat="45.82943" lon="4.73416">
        <ele>319.34997</ele>
        <time>2022-09-12T14:38:36.000Z</time>
      </trkpt>
      <trkpt lat="45.82949" lon="4.73413">
        <ele>318.90043</ele>
        <time>2022-09-12T14:38:37.000Z</time>
      </trkpt>
      <trkpt lat="45.82955" lon="4.7341">
        <ele>318.50605</ele>
        <time>2022-09-12T14:38:38.000Z</time>
      </trkpt>
      <trkpt lat="45.82961" lon="4.73404">
        <ele>318.11671</ele>
        <time>2022-09-12T14:38:39.000Z</time>
      </trkpt>
      <trkpt lat="45.82968" lon="4.73401">
        <ele>317.71209</ele>
        <time>2022-09-12T14:38:40.000Z</time>
      </trkpt>
      <trkpt lat="45.82975" lon="4.73395">
        <ele>317.27939</ele>
        <time>2022-09-12T14:38:41.000Z</time>
      </trkpt>
      <trkpt lat="45.82981" lon="4.73389">
        <ele>316.76139</ele>
        <time>2022-09-12T14:38:42.000Z</time>
      </trkpt>
      <trkpt lat="45.82987" lon="4.73384">
        <ele>316.15334</ele>
        <time>2022-09-12T14:38:43.000Z</time>
      </trkpt>
      <trkpt lat="45.82991" lon="4.73379">
        <ele>315.71396</ele>
        <time>2022-09-12T14:38:44.000Z</time>
      </trkpt>
      <trkpt lat="45.82997" lon="4.73374">
        <ele>315.23641</ele>
        <time>2022-09-12T14:38:45.000Z</time>
      </trkpt>
      <trkpt lat="45.83003" lon="4.73368">
        <ele>314.75496</ele>
        <time>2022-09-12T14:38:46.000Z</time>
      </trkpt>
      <trkpt lat="45.8301" lon="4.73364">
        <ele>314.31472</ele>
        <time>2022-09-12T14:38:47.000Z</time>
      </trkpt>
      <trkpt lat="45.83016" lon="4.73358">
        <ele>313.80509</ele>
        <time>2022-09-12T14:38:48.000Z</time>
      </trkpt>
      <trkpt lat="45.83021" lon="4.73352">
        <ele>313.30862</ele>
        <time>2022-09-12T14:38:49.000Z</time>
      </trkpt>
      <trkpt lat="45.83028" lon="4.73345">
        <ele>312.60678</ele>
        <time>2022-09-12T14:38:50.000Z</time>
      </trkpt>
      <trkpt lat="45.83036" lon="4.73338">
        <ele>311.87791</ele>
        <time>2022-09-12T14:38:51.000Z</time>
      </trkpt>
      <trkpt lat="45.83043" lon="4.73332">
        <ele>311.15955</ele>
        <time>2022-09-12T14:38:52.000Z</time>
      </trkpt>
      <trkpt lat="45.83051" lon="4.73325">
        <ele>310.38017</ele>
        <time>2022-09-12T14:38:53.000Z</time>
      </trkpt>
      <trkpt lat="45.83057" lon="4.73318">
        <ele>309.66594</ele>
        <time>2022-09-12T14:38:54.000Z</time>
      </trkpt>
      <trkpt lat="45.83064" lon="4.73313">
        <ele>308.97777</ele>
        <time>2022-09-12T14:38:55.000Z</time>
      </trkpt>
      <trkpt lat="45.83071" lon="4.73306">
        <ele>308.22842</ele>
        <time>2022-09-12T14:38:56.000Z</time>
      </trkpt>
      <trkpt lat="45.83077" lon="4.73301">
        <ele>307.59384</ele>
        <time>2022-09-12T14:38:57.000Z</time>
      </trkpt>
      <trkpt lat="45.83084" lon="4.73293">
        <ele>306.80817</ele>
        <time>2022-09-12T14:38:58.000Z</time>
      </trkpt>
      <trkpt lat="45.83092" lon="4.73289">
        <ele>306.06458</ele>
        <time>2022-09-12T14:38:59.000Z</time>
      </trkpt>
      <trkpt lat="45.83099" lon="4.73282">
        <ele>305.22867</ele>
        <time>2022-09-12T14:39:00.000Z</time>
      </trkpt>
      <trkpt lat="45.83104" lon="4.73273">
        <ele>304.56802</ele>
        <time>2022-09-12T14:39:01.000Z</time>
      </trkpt>
      <trkpt lat="45.83111" lon="4.73266">
        <ele>303.88941</ele>
        <time>2022-09-12T14:39:02.000Z</time>
      </trkpt>
      <trkpt lat="45.8312" lon="4.73258">
        <ele>302.89352</ele>
        <time>2022-09-12T14:39:03.000Z</time>
      </trkpt>
      <trkpt lat="45.83127" lon="4.7325">
        <ele>302.04075</ele>
        <time>2022-09-12T14:39:04.000Z</time>
      </trkpt>
      <trkpt lat="45.83135" lon="4.73244">
        <ele>301.22254</ele>
        <time>2022-09-12T14:39:05.000Z</time>
      </trkpt>
      <trkpt lat="45.83138" lon="4.73242">
        <ele>300.97231</ele>
        <time>2022-09-12T14:39:06.000Z</time>
      </trkpt>
      <trkpt lat="45.8314" lon="4.73237">
        <ele>300.68593</ele>
        <time>2022-09-12T14:39:07.000Z</time>
      </trkpt>
      <trkpt lat="45.83144" lon="4.73234">
        <ele>300.29227</ele>
        <time>2022-09-12T14:39:08.000Z</time>
      </trkpt>
      <trkpt lat="45.83148" lon="4.73231">
        <ele>299.87746</ele>
        <time>2022-09-12T14:39:09.000Z</time>
      </trkpt>
      <trkpt lat="45.83152" lon="4.73228">
        <ele>299.43663</ele>
        <time>2022-09-12T14:39:10.000Z</time>
      </trkpt>
      <trkpt lat="45.83157" lon="4.73223">
        <ele>298.93455</ele>
        <time>2022-09-12T14:39:11.000Z</time>
      </trkpt>
      <trkpt lat="45.83162" lon="4.73218">
        <ele>298.48595</ele>
        <time>2022-09-12T14:39:12.000Z</time>
      </trkpt>
      <trkpt lat="45.83166" lon="4.73215">
        <ele>298.15285</ele>
        <time>2022-09-12T14:39:13.000Z</time>
      </trkpt>
      <trkpt lat="45.83172" lon="4.73208">
        <ele>297.66459</ele>
        <time>2022-09-12T14:39:14.000Z</time>
      </trkpt>
      <trkpt lat="45.83174" lon="4.73204">
        <ele>297.43591</ele>
        <time>2022-09-12T14:39:15.000Z</time>
      </trkpt>
      <trkpt lat="45.83179" lon="4.73199">
        <ele>297.11277</ele>
        <time>2022-09-12T14:39:16.000Z</time>
      </trkpt>
      <trkpt lat="45.83182" lon="4.73193">
        <ele>296.85023</ele>
        <time>2022-09-12T14:39:17.000Z</time>
      </trkpt>
      <trkpt lat="45.83188" lon="4.73186">
        <ele>296.52111</ele>
        <time>2022-09-12T14:39:18.000Z</time>
      </trkpt>
      <trkpt lat="45.83188" lon="4.7318">
        <ele>296.34284</ele>
        <time>2022-09-12T14:39:19.000Z</time>
      </trkpt>
      <trkpt lat="45.8319" lon="4.73174">
        <ele>296.14081</ele>
        <time>2022-09-12T14:39:20.000Z</time>
      </trkpt>
      <trkpt lat="45.83191" lon="4.73168">
        <ele>295.89697</ele>
        <time>2022-09-12T14:39:21.000Z</time>
      </trkpt>
      <trkpt lat="45.83195" lon="4.7316">
        <ele>295.60832</ele>
        <time>2022-09-12T14:39:22.000Z</time>
      </trkpt>
      <trkpt lat="45.83197" lon="4.73153">
        <ele>295.39416</ele>
        <time>2022-09-12T14:39:23.000Z</time>
      </trkpt>
      <trkpt lat="45.83199" lon="4.73145">
        <ele>295.15511</ele>
        <time>2022-09-12T14:39:24.000Z</time>
      </trkpt>
      <trkpt lat="45.83198" lon="4.73136">
        <ele>294.82067</ele>
        <time>2022-09-12T14:39:25.000Z</time>
      </trkpt>
      <trkpt lat="45.83196" lon="4.73129">
        <ele>294.44347</ele>
        <time>2022-09-12T14:39:26.000Z</time>
      </trkpt>
      <trkpt lat="45.83197" lon="4.7312">
        <ele>294.11872</ele>
        <time>2022-09-12T14:39:27.000Z</time>
      </trkpt>
      <trkpt lat="45.83194" lon="4.73114">
        <ele>293.70832</ele>
        <time>2022-09-12T14:39:28.000Z</time>
      </trkpt>
      <trkpt lat="45.83198" lon="4.73108">
        <ele>293.5628</ele>
        <time>2022-09-12T14:39:29.000Z</time>
      </trkpt>
      <trkpt lat="45.83203" lon="4.73104">
        <ele>293.59682</ele>
        <time>2022-09-12T14:39:30.000Z</time>
      </trkpt>
      <trkpt lat="45.83205" lon="4.73098">
        <ele>293.40229</ele>
        <time>2022-09-12T14:39:31.000Z</time>
      </trkpt>
      <trkpt lat="45.83208" lon="4.73091">
        <ele>293.16129</ele>
        <time>2022-09-12T14:39:32.000Z</time>
      </trkpt>
      <trkpt lat="45.83213" lon="4.73086">
        <ele>293.12604</ele>
        <time>2022-09-12T14:39:33.000Z</time>
      </trkpt>
      <trkpt lat="45.83217" lon="4.7308">
        <ele>293.02337</ele>
        <time>2022-09-12T14:39:34.000Z</time>
      </trkpt>
      <trkpt lat="45.8322" lon="4.73072">
        <ele>292.91743</ele>
        <time>2022-09-12T14:39:35.000Z</time>
      </trkpt>
      <trkpt lat="45.83224" lon="4.73065">
        <ele>292.88095</ele>
        <time>2022-09-12T14:39:36.000Z</time>
      </trkpt>
      <trkpt lat="45.83226" lon="4.73058">
        <ele>292.81903</ele>
        <time>2022-09-12T14:39:37.000Z</time>
      </trkpt>
      <trkpt lat="45.83229" lon="4.73054">
        <ele>292.89662</ele>
        <time>2022-09-12T14:39:38.000Z</time>
      </trkpt>
      <trkpt lat="45.83232" lon="4.73048">
        <ele>292.99133</ele>
        <time>2022-09-12T14:39:39.000Z</time>
      </trkpt>
      <trkpt lat="45.83235" lon="4.73043">
        <ele>293.05681</ele>
        <time>2022-09-12T14:39:40.000Z</time>
      </trkpt>
      <trkpt lat="45.83236" lon="4.73038">
        <ele>293.07431</ele>
        <time>2022-09-12T14:39:41.000Z</time>
      </trkpt>
      <trkpt lat="45.83238" lon="4.73034">
        <ele>293.14965</ele>
        <time>2022-09-12T14:39:42.000Z</time>
      </trkpt>
      <trkpt lat="45.8324" lon="4.73028">
        <ele>293.19447</ele>
        <time>2022-09-12T14:39:43.000Z</time>
      </trkpt>
      <trkpt lat="45.83242" lon="4.73023">
        <ele>293.22713</ele>
        <time>2022-09-12T14:39:44.000Z</time>
      </trkpt>
      <trkpt lat="45.83242" lon="4.73019">
        <ele>293.2558</ele>
        <time>2022-09-12T14:39:45.000Z</time>
      </trkpt>
      <trkpt lat="45.83244" lon="4.73015">
        <ele>293.2479</ele>
        <time>2022-09-12T14:39:46.000Z</time>
      </trkpt>
      <trkpt lat="45.83246" lon="4.73014">
        <ele>293.20244</ele>
        <time>2022-09-12T14:39:58.000Z</time>
      </trkpt>
      <trkpt lat="45.83247" lon="4.73011">
        <ele>293.18787</ele>
        <time>2022-09-12T14:40:02.000Z</time>
      </trkpt>
      <trkpt lat="45.83248" lon="4.73007">
        <ele>293.17593</ele>
        <time>2022-09-12T14:40:03.000Z</time>
      </trkpt>
      <trkpt lat="45.8325" lon="4.73004">
        <ele>293.1587</ele>
        <time>2022-09-12T14:40:04.000Z</time>
      </trkpt>
      <trkpt lat="45.83251" lon="4.73">
        <ele>293.11662</ele>
        <time>2022-09-12T14:40:05.000Z</time>
      </trkpt>
      <trkpt lat="45.83253" lon="4.72996">
        <ele>293.05246</ele>
        <time>2022-09-12T14:40:06.000Z</time>
      </trkpt>
      <trkpt lat="45.83255" lon="4.72991">
        <ele>292.97401</ele>
        <time>2022-09-12T14:40:07.000Z</time>
      </trkpt>
      <trkpt lat="45.83256" lon="4.72986">
        <ele>292.87463</ele>
        <time>2022-09-12T14:40:08.000Z</time>
      </trkpt>
      <trkpt lat="45.83258" lon="4.72983">
        <ele>292.76859</ele>
        <time>2022-09-12T14:40:09.000Z</time>
      </trkpt>
      <trkpt lat="45.83259" lon="4.72981">
        <ele>292.65952</ele>
        <time>2022-09-12T14:40:11.000Z</time>
      </trkpt>
      <trkpt lat="45.83261" lon="4.72979">
        <ele>292.54309</ele>
        <time>2022-09-12T14:40:14.000Z</time>
      </trkpt>
      <trkpt lat="45.83262" lon="4.72977">
        <ele>292.42237</ele>
        <time>2022-09-12T14:40:19.000Z</time>
      </trkpt>
      <trkpt lat="45.83264" lon="4.72974">
        <ele>292.21284</ele>
        <time>2022-09-12T14:40:53.000Z</time>
      </trkpt>
      <trkpt lat="45.83266" lon="4.7297">
        <ele>291.96728</ele>
        <time>2022-09-12T14:40:54.000Z</time>
      </trkpt>
      <trkpt lat="45.83268" lon="4.72965">
        <ele>291.70356</ele>
        <time>2022-09-12T14:40:55.000Z</time>
      </trkpt>
      <trkpt lat="45.8327" lon="4.72959">
        <ele>291.35755</ele>
        <time>2022-09-12T14:40:56.000Z</time>
      </trkpt>
      <trkpt lat="45.83272" lon="4.72948">
        <ele>290.79434</ele>
        <time>2022-09-12T14:40:57.000Z</time>
      </trkpt>
      <trkpt lat="45.83274" lon="4.72944">
        <ele>290.42893</ele>
        <time>2022-09-12T14:40:58.000Z</time>
      </trkpt>
      <trkpt lat="45.83276" lon="4.72934">
        <ele>289.83153</ele>
        <time>2022-09-12T14:40:59.000Z</time>
      </trkpt>
      <trkpt lat="45.83279" lon="4.72926">
        <ele>289.13283</ele>
        <time>2022-09-12T14:41:00.000Z</time>
      </trkpt>
      <trkpt lat="45.83283" lon="4.72919">
        <ele>288.4676</ele>
        <time>2022-09-12T14:41:01.000Z</time>
      </trkpt>
      <trkpt lat="45.83287" lon="4.7291">
        <ele>287.66838</ele>
        <time>2022-09-12T14:41:02.000Z</time>
      </trkpt>
      <trkpt lat="45.8329" lon="4.72903">
        <ele>286.93842</ele>
        <time>2022-09-12T14:41:03.000Z</time>
      </trkpt>
      <trkpt lat="45.8329" lon="4.72895">
        <ele>286.32985</ele>
        <time>2022-09-12T14:41:04.000Z</time>
      </trkpt>
      <trkpt lat="45.83289" lon="4.7289">
        <ele>285.82832</ele>
        <time>2022-09-12T14:41:05.000Z</time>
      </trkpt>
      <trkpt lat="45.83288" lon="4.72886">
        <ele>285.41025</ele>
        <time>2022-09-12T14:41:06.000Z</time>
      </trkpt>
      <trkpt lat="45.83287" lon="4.72882">
        <ele>284.9186</ele>
        <time>2022-09-12T14:41:08.000Z</time>
      </trkpt>
      <trkpt lat="45.83285" lon="4.72876">
        <ele>284.17666</ele>
        <time>2022-09-12T14:41:10.000Z</time>
      </trkpt>
      <trkpt lat="45.83284" lon="4.72872">
        <ele>283.67791</ele>
        <time>2022-09-12T14:41:11.000Z</time>
      </trkpt>
      <trkpt lat="45.83283" lon="4.72867">
        <ele>283.05368</ele>
        <time>2022-09-12T14:41:13.000Z</time>
      </trkpt>
      <trkpt lat="45.83282" lon="4.72865">
        <ele>282.83518</ele>
        <time>2022-09-12T14:41:14.000Z</time>
      </trkpt>
      <trkpt lat="45.8328" lon="4.72863">
        <ele>282.57047</ele>
        <time>2022-09-12T14:41:15.000Z</time>
      </trkpt>
      <trkpt lat="45.83278" lon="4.72861">
        <ele>282.29089</ele>
        <time>2022-09-12T14:41:16.000Z</time>
      </trkpt>
      <trkpt lat="45.83277" lon="4.72859">
        <ele>282.01448</ele>
        <time>2022-09-12T14:41:18.000Z</time>
      </trkpt>
      <trkpt lat="45.83275" lon="4.72857">
        <ele>281.81042</ele>
        <time>2022-09-12T14:41:23.000Z</time>
      </trkpt>
      <trkpt lat="45.83274" lon="4.72855">
        <ele>281.60167</ele>
        <time>2022-09-12T14:41:24.000Z</time>
      </trkpt>
      <trkpt lat="45.83272" lon="4.72854">
        <ele>281.39178</ele>
        <time>2022-09-12T14:41:25.000Z</time>
      </trkpt>
      <trkpt lat="45.83269" lon="4.72852">
        <ele>281.20441</ele>
        <time>2022-09-12T14:41:26.000Z</time>
      </trkpt>
      <trkpt lat="45.83266" lon="4.72851">
        <ele>281.05634</ele>
        <time>2022-09-12T14:41:27.000Z</time>
      </trkpt>
      <trkpt lat="45.83262" lon="4.7285">
        <ele>280.75674</ele>
        <time>2022-09-12T14:41:28.000Z</time>
      </trkpt>
      <trkpt lat="45.83258" lon="4.72848">
        <ele>280.34138</ele>
        <time>2022-09-12T14:41:29.000Z</time>
      </trkpt>
      <trkpt lat="45.83254" lon="4.72847">
        <ele>279.7621</ele>
        <time>2022-09-12T14:41:30.000Z</time>
      </trkpt>
      <trkpt lat="45.8325" lon="4.72845">
        <ele>278.98612</ele>
        <time>2022-09-12T14:41:31.000Z</time>
      </trkpt>
      <trkpt lat="45.83245" lon="4.72843">
        <ele>278.22749</ele>
        <time>2022-09-12T14:41:32.000Z</time>
      </trkpt>
      <trkpt lat="45.8324" lon="4.72844">
        <ele>277.93521</ele>
        <time>2022-09-12T14:41:33.000Z</time>
      </trkpt>
      <trkpt lat="45.83236" lon="4.7284">
        <ele>276.91175</ele>
        <time>2022-09-12T14:41:34.000Z</time>
      </trkpt>
      <trkpt lat="45.83232" lon="4.72838">
        <ele>276.41284</ele>
        <time>2022-09-12T14:41:35.000Z</time>
      </trkpt>
      <trkpt lat="45.83228" lon="4.72838">
        <ele>276.27317</ele>
        <time>2022-09-12T14:41:36.000Z</time>
      </trkpt>
      <trkpt lat="45.83225" lon="4.72836">
        <ele>275.88476</ele>
        <time>2022-09-12T14:41:37.000Z</time>
      </trkpt>
      <trkpt lat="45.83222" lon="4.72835">
        <ele>275.66045</ele>
        <time>2022-09-12T14:41:38.000Z</time>
      </trkpt>
      <trkpt lat="45.83219" lon="4.72835">
        <ele>275.62486</ele>
        <time>2022-09-12T14:41:39.000Z</time>
      </trkpt>
      <trkpt lat="45.83215" lon="4.72831">
        <ele>274.93032</ele>
        <time>2022-09-12T14:41:40.000Z</time>
      </trkpt>
      <trkpt lat="45.83213" lon="4.72828">
        <ele>274.51186</ele>
        <time>2022-09-12T14:41:41.000Z</time>
      </trkpt>
      <trkpt lat="45.83211" lon="4.72822">
        <ele>273.89551</ele>
        <time>2022-09-12T14:41:42.000Z</time>
      </trkpt>
      <trkpt lat="45.83212" lon="4.72816">
        <ele>273.45839</ele>
        <time>2022-09-12T14:41:43.000Z</time>
      </trkpt>
      <trkpt lat="45.83211" lon="4.72809">
        <ele>273.22341</ele>
        <time>2022-09-12T14:41:44.000Z</time>
      </trkpt>
      <trkpt lat="45.83212" lon="4.72802">
        <ele>273.15252</ele>
        <time>2022-09-12T14:41:45.000Z</time>
      </trkpt>
      <trkpt lat="45.83212" lon="4.72796">
        <ele>273.18157</ele>
        <time>2022-09-12T14:41:46.000Z</time>
      </trkpt>
      <trkpt lat="45.83213" lon="4.72791">
        <ele>273.2512</ele>
        <time>2022-09-12T14:41:47.000Z</time>
      </trkpt>
      <trkpt lat="45.83214" lon="4.72786">
        <ele>273.33936</ele>
        <time>2022-09-12T14:41:48.000Z</time>
      </trkpt>
      <trkpt lat="45.83215" lon="4.72781">
        <ele>273.48399</ele>
        <time>2022-09-12T14:41:49.000Z</time>
      </trkpt>
      <trkpt lat="45.83216" lon="4.72776">
        <ele>273.64396</ele>
        <time>2022-09-12T14:41:50.000Z</time>
      </trkpt>
      <trkpt lat="45.83217" lon="4.72771">
        <ele>273.85311</ele>
        <time>2022-09-12T14:41:51.000Z</time>
      </trkpt>
      <trkpt lat="45.83219" lon="4.72766">
        <ele>274.07941</ele>
        <time>2022-09-12T14:41:52.000Z</time>
      </trkpt>
      <trkpt lat="45.83221" lon="4.72762">
        <ele>274.3383</ele>
        <time>2022-09-12T14:41:53.000Z</time>
      </trkpt>
      <trkpt lat="45.83223" lon="4.72758">
        <ele>274.58294</ele>
        <time>2022-09-12T14:41:54.000Z</time>
      </trkpt>
      <trkpt lat="45.83226" lon="4.72754">
        <ele>274.87674</ele>
        <time>2022-09-12T14:41:55.000Z</time>
      </trkpt>
      <trkpt lat="45.83228" lon="4.72751">
        <ele>275.24886</ele>
        <time>2022-09-12T14:41:56.000Z</time>
      </trkpt>
      <trkpt lat="45.8323" lon="4.72748">
        <ele>275.65037</ele>
        <time>2022-09-12T14:41:57.000Z</time>
      </trkpt>
      <trkpt lat="45.83232" lon="4.72745">
        <ele>276.03394</ele>
        <time>2022-09-12T14:41:58.000Z</time>
      </trkpt>
      <trkpt lat="45.83234" lon="4.72744">
        <ele>276.31496</ele>
        <time>2022-09-12T14:41:59.000Z</time>
      </trkpt>
      <trkpt lat="45.83236" lon="4.72742">
        <ele>276.54047</ele>
        <time>2022-09-12T14:42:00.000Z</time>
      </trkpt>
      <trkpt lat="45.83239" lon="4.72741">
        <ele>276.74807</ele>
        <time>2022-09-12T14:42:01.000Z</time>
      </trkpt>
      <trkpt lat="45.83241" lon="4.7274">
        <ele>276.94528</ele>
        <time>2022-09-12T14:42:02.000Z</time>
      </trkpt>
      <trkpt lat="45.83244" lon="4.7274">
        <ele>277.02525</ele>
        <time>2022-09-12T14:42:03.000Z</time>
      </trkpt>
      <trkpt lat="45.83245" lon="4.7274">
        <ele>276.9862</ele>
        <time>2022-09-12T14:42:04.000Z</time>
      </trkpt>
      <trkpt lat="45.83249" lon="4.7274">
        <ele>277.03208</ele>
        <time>2022-09-12T14:42:06.000Z</time>
      </trkpt>
      <trkpt lat="45.8325" lon="4.72739">
        <ele>277.45111</ele>
        <time>2022-09-12T14:42:07.000Z</time>
      </trkpt>
      <trkpt lat="45.83251" lon="4.72737">
        <ele>278.17381</ele>
        <time>2022-09-12T14:42:08.000Z</time>
      </trkpt>
      <trkpt lat="45.8325" lon="4.72734">
        <ele>279.00053</ele>
        <time>2022-09-12T14:42:09.000Z</time>
      </trkpt>
      <trkpt lat="45.83249" lon="4.7273">
        <ele>279.67729</ele>
        <time>2022-09-12T14:42:10.000Z</time>
      </trkpt>
      <trkpt lat="45.83245" lon="4.72729">
        <ele>279.81143</ele>
        <time>2022-09-12T14:42:11.000Z</time>
      </trkpt>
      <trkpt lat="45.83242" lon="4.72728">
        <ele>279.70518</ele>
        <time>2022-09-12T14:42:12.000Z</time>
      </trkpt>
      <trkpt lat="45.83239" lon="4.72729">
        <ele>279.46911</ele>
        <time>2022-09-12T14:42:13.000Z</time>
      </trkpt>
      <trkpt lat="45.83236" lon="4.7273">
        <ele>279.24343</ele>
        <time>2022-09-12T14:42:14.000Z</time>
      </trkpt>
      <trkpt lat="45.83233" lon="4.72731">
        <ele>279.04901</ele>
        <time>2022-09-12T14:42:15.000Z</time>
      </trkpt>
      <trkpt lat="45.8323" lon="4.72732">
        <ele>278.8626</ele>
        <time>2022-09-12T14:42:16.000Z</time>
      </trkpt>
      <trkpt lat="45.83228" lon="4.72733">
        <ele>278.76286</ele>
        <time>2022-09-12T14:42:17.000Z</time>
      </trkpt>
      <trkpt lat="45.83225" lon="4.72734">
        <ele>278.58627</ele>
        <time>2022-09-12T14:42:18.000Z</time>
      </trkpt>
      <trkpt lat="45.83222" lon="4.72735">
        <ele>278.52763</ele>
        <time>2022-09-12T14:42:19.000Z</time>
      </trkpt>
      <trkpt lat="45.83219" lon="4.72735">
        <ele>278.62623</ele>
        <time>2022-09-12T14:42:20.000Z</time>
      </trkpt>
      <trkpt lat="45.83216" lon="4.72735">
        <ele>278.71756</ele>
        <time>2022-09-12T14:42:21.000Z</time>
      </trkpt>
      <trkpt lat="45.83214" lon="4.72735">
        <ele>278.97413</ele>
        <time>2022-09-12T14:42:22.000Z</time>
      </trkpt>
      <trkpt lat="45.83212" lon="4.72734">
        <ele>279.25984</ele>
        <time>2022-09-12T14:42:23.000Z</time>
      </trkpt>
      <trkpt lat="45.8321" lon="4.72733">
        <ele>279.59092</ele>
        <time>2022-09-12T14:42:24.000Z</time>
      </trkpt>
      <trkpt lat="45.83208" lon="4.72732">
        <ele>279.94798</ele>
        <time>2022-09-12T14:42:25.000Z</time>
      </trkpt>
      <trkpt lat="45.83206" lon="4.72731">
        <ele>280.31364</ele>
        <time>2022-09-12T14:42:26.000Z</time>
      </trkpt>
      <trkpt lat="45.83204" lon="4.72729">
        <ele>280.71875</ele>
        <time>2022-09-12T14:42:27.000Z</time>
      </trkpt>
      <trkpt lat="45.83203" lon="4.72724">
        <ele>281.38695</ele>
        <time>2022-09-12T14:42:29.000Z</time>
      </trkpt>
      <trkpt lat="45.83204" lon="4.7272">
        <ele>281.90777</ele>
        <time>2022-09-12T14:42:30.000Z</time>
      </trkpt>
      <trkpt lat="45.83205" lon="4.72715">
        <ele>282.41055</ele>
        <time>2022-09-12T14:42:31.000Z</time>
      </trkpt>
      <trkpt lat="45.83207" lon="4.7271">
        <ele>282.90301</ele>
        <time>2022-09-12T14:42:32.000Z</time>
      </trkpt>
      <trkpt lat="45.83208" lon="4.72705">
        <ele>283.37139</ele>
        <time>2022-09-12T14:42:33.000Z</time>
      </trkpt>
      <trkpt lat="45.83209" lon="4.72701">
        <ele>283.81661</ele>
        <time>2022-09-12T14:42:34.000Z</time>
      </trkpt>
      <trkpt lat="45.8321" lon="4.72696">
        <ele>284.17796</ele>
        <time>2022-09-12T14:42:35.000Z</time>
      </trkpt>
      <trkpt lat="45.83211" lon="4.72692">
        <ele>284.48612</ele>
        <time>2022-09-12T14:42:36.000Z</time>
      </trkpt>
      <trkpt lat="45.83212" lon="4.72687">
        <ele>284.784</ele>
        <time>2022-09-12T14:42:37.000Z</time>
      </trkpt>
      <trkpt lat="45.83213" lon="4.72682">
        <ele>285.05104</ele>
        <time>2022-09-12T14:42:38.000Z</time>
      </trkpt>
      <trkpt lat="45.83213" lon="4.72677">
        <ele>285.2778</ele>
        <time>2022-09-12T14:42:39.000Z</time>
      </trkpt>
      <trkpt lat="45.83213" lon="4.72672">
        <ele>285.44635</ele>
        <time>2022-09-12T14:42:40.000Z</time>
      </trkpt>
      <trkpt lat="45.83213" lon="4.72667">
        <ele>285.56797</ele>
        <time>2022-09-12T14:42:41.000Z</time>
      </trkpt>
      <trkpt lat="45.83213" lon="4.72663">
        <ele>285.66134</ele>
        <time>2022-09-12T14:42:42.000Z</time>
      </trkpt>
      <trkpt lat="45.83213" lon="4.72658">
        <ele>285.69315</ele>
        <time>2022-09-12T14:42:43.000Z</time>
      </trkpt>
      <trkpt lat="45.83213" lon="4.72653">
        <ele>285.63299</ele>
        <time>2022-09-12T14:42:44.000Z</time>
      </trkpt>
      <trkpt lat="45.83214" lon="4.72648">
        <ele>285.50226</ele>
        <time>2022-09-12T14:42:45.000Z</time>
      </trkpt>
      <trkpt lat="45.83214" lon="4.72642">
        <ele>285.32999</ele>
        <time>2022-09-12T14:42:46.000Z</time>
      </trkpt>
      <trkpt lat="45.83215" lon="4.72637">
        <ele>285.16192</ele>
        <time>2022-09-12T14:42:47.000Z</time>
      </trkpt>
      <trkpt lat="45.83215" lon="4.72631">
        <ele>285.03623</ele>
        <time>2022-09-12T14:42:48.000Z</time>
      </trkpt>
      <trkpt lat="45.83215" lon="4.72625">
        <ele>285.01323</ele>
        <time>2022-09-12T14:42:49.000Z</time>
      </trkpt>
      <trkpt lat="45.83216" lon="4.72618">
        <ele>285.00283</ele>
        <time>2022-09-12T14:42:50.000Z</time>
      </trkpt>
      <trkpt lat="45.83217" lon="4.72611">
        <ele>285.00447</ele>
        <time>2022-09-12T14:42:51.000Z</time>
      </trkpt>
      <trkpt lat="45.83219" lon="4.72604">
        <ele>284.96951</ele>
        <time>2022-09-12T14:42:52.000Z</time>
      </trkpt>
      <trkpt lat="45.8322" lon="4.72597">
        <ele>284.86944</ele>
        <time>2022-09-12T14:42:53.000Z</time>
      </trkpt>
      <trkpt lat="45.83222" lon="4.72587">
        <ele>284.61196</ele>
        <time>2022-09-12T14:42:54.000Z</time>
      </trkpt>
      <trkpt lat="45.83223" lon="4.72581">
        <ele>284.3598</ele>
        <time>2022-09-12T14:42:55.000Z</time>
      </trkpt>
      <trkpt lat="45.83226" lon="4.72572">
        <ele>283.85642</ele>
        <time>2022-09-12T14:42:56.000Z</time>
      </trkpt>
      <trkpt lat="45.83226" lon="4.72565">
        <ele>283.54987</ele>
        <time>2022-09-12T14:42:57.000Z</time>
      </trkpt>
      <trkpt lat="45.83229" lon="4.72554">
        <ele>282.73349</ele>
        <time>2022-09-12T14:42:58.000Z</time>
      </trkpt>
      <trkpt lat="45.83231" lon="4.72544">
        <ele>281.9282</ele>
        <time>2022-09-12T14:42:59.000Z</time>
      </trkpt>
      <trkpt lat="45.83234" lon="4.72535">
        <ele>281.28358</ele>
        <time>2022-09-12T14:43:00.000Z</time>
      </trkpt>
      <trkpt lat="45.83236" lon="4.72525">
        <ele>280.7786</ele>
        <time>2022-09-12T14:43:01.000Z</time>
      </trkpt>
      <trkpt lat="45.83237" lon="4.72515">
        <ele>280.51432</ele>
        <time>2022-09-12T14:43:02.000Z</time>
      </trkpt>
      <trkpt lat="45.83237" lon="4.72505">
        <ele>280.39011</ele>
        <time>2022-09-12T14:43:03.000Z</time>
      </trkpt>
      <trkpt lat="45.83238" lon="4.72495">
        <ele>280.31169</ele>
        <time>2022-09-12T14:43:04.000Z</time>
      </trkpt>
      <trkpt lat="45.83238" lon="4.72485">
        <ele>280.41441</ele>
        <time>2022-09-12T14:43:05.000Z</time>
      </trkpt>
      <trkpt lat="45.83236" lon="4.72477">
        <ele>280.67664</ele>
        <time>2022-09-12T14:43:06.000Z</time>
      </trkpt>
      <trkpt lat="45.83235" lon="4.72468">
        <ele>280.74691</ele>
        <time>2022-09-12T14:43:07.000Z</time>
      </trkpt>
      <trkpt lat="45.83235" lon="4.72459">
        <ele>280.63241</ele>
        <time>2022-09-12T14:43:08.000Z</time>
      </trkpt>
      <trkpt lat="45.83234" lon="4.72449">
        <ele>280.44788</ele>
        <time>2022-09-12T14:43:09.000Z</time>
      </trkpt>
      <trkpt lat="45.83234" lon="4.72442">
        <ele>280.45732</ele>
        <time>2022-09-12T14:43:10.000Z</time>
      </trkpt>
      <trkpt lat="45.83234" lon="4.72434">
        <ele>280.82797</ele>
        <time>2022-09-12T14:43:11.000Z</time>
      </trkpt>
      <trkpt lat="45.83233" lon="4.72426">
        <ele>281.44754</ele>
        <time>2022-09-12T14:43:12.000Z</time>
      </trkpt>
      <trkpt lat="45.83233" lon="4.72419">
        <ele>282.14697</ele>
        <time>2022-09-12T14:43:13.000Z</time>
      </trkpt>
      <trkpt lat="45.83233" lon="4.72411">
        <ele>283.12339</ele>
        <time>2022-09-12T14:43:14.000Z</time>
      </trkpt>
      <trkpt lat="45.83233" lon="4.72402">
        <ele>283.90355</ele>
        <time>2022-09-12T14:43:15.000Z</time>
      </trkpt>
      <trkpt lat="45.83233" lon="4.72393">
        <ele>284.71637</ele>
        <time>2022-09-12T14:43:16.000Z</time>
      </trkpt>
      <trkpt lat="45.83233" lon="4.72386">
        <ele>285.39131</ele>
        <time>2022-09-12T14:43:17.000Z</time>
      </trkpt>
      <trkpt lat="45.83231" lon="4.72377">
        <ele>286.28023</ele>
        <time>2022-09-12T14:43:18.000Z</time>
      </trkpt>
      <trkpt lat="45.8323" lon="4.72368">
        <ele>286.76774</ele>
        <time>2022-09-12T14:43:19.000Z</time>
      </trkpt>
      <trkpt lat="45.83229" lon="4.72361">
        <ele>287.03419</ele>
        <time>2022-09-12T14:43:20.000Z</time>
      </trkpt>
      <trkpt lat="45.83225" lon="4.72355">
        <ele>287.3398</ele>
        <time>2022-09-12T14:43:21.000Z</time>
      </trkpt>
      <trkpt lat="45.83224" lon="4.72347">
        <ele>287.39236</ele>
        <time>2022-09-12T14:43:22.000Z</time>
      </trkpt>
      <trkpt lat="45.83225" lon="4.72343">
        <ele>287.35097</ele>
        <time>2022-09-12T14:43:23.000Z</time>
      </trkpt>
      <trkpt lat="45.83224" lon="4.72336">
        <ele>287.61058</ele>
        <time>2022-09-12T14:43:24.000Z</time>
      </trkpt>
      <trkpt lat="45.83223" lon="4.72331">
        <ele>287.91817</ele>
        <time>2022-09-12T14:43:25.000Z</time>
      </trkpt>
      <trkpt lat="45.83222" lon="4.72327">
        <ele>288.14504</ele>
        <time>2022-09-12T14:43:26.000Z</time>
      </trkpt>
      <trkpt lat="45.83221" lon="4.72324">
        <ele>288.3172</ele>
        <time>2022-09-12T14:43:27.000Z</time>
      </trkpt>
      <trkpt lat="45.83222" lon="4.7232">
        <ele>288.4201</ele>
        <time>2022-09-12T14:43:28.000Z</time>
      </trkpt>
      <trkpt lat="45.83224" lon="4.72317">
        <ele>288.44678</ele>
        <time>2022-09-12T14:43:29.000Z</time>
      </trkpt>
      <trkpt lat="45.83226" lon="4.72314">
        <ele>288.50469</ele>
        <time>2022-09-12T14:43:30.000Z</time>
      </trkpt>
      <trkpt lat="45.83227" lon="4.72311">
        <ele>288.53268</ele>
        <time>2022-09-12T14:43:31.000Z</time>
      </trkpt>
      <trkpt lat="45.83229" lon="4.72307">
        <ele>288.58391</ele>
        <time>2022-09-12T14:43:32.000Z</time>
      </trkpt>
      <trkpt lat="45.83231" lon="4.72306">
        <ele>288.49802</ele>
        <time>2022-09-12T14:43:33.000Z</time>
      </trkpt>
      <trkpt lat="45.83234" lon="4.72302">
        <ele>288.46328</ele>
        <time>2022-09-12T14:43:34.000Z</time>
      </trkpt>
      <trkpt lat="45.83236" lon="4.72302">
        <ele>288.39566</ele>
        <time>2022-09-12T14:43:35.000Z</time>
      </trkpt>
      <trkpt lat="45.83238" lon="4.723">
        <ele>288.31453</ele>
        <time>2022-09-12T14:43:36.000Z</time>
      </trkpt>
      <trkpt lat="45.83241" lon="4.72299">
        <ele>288.21664</ele>
        <time>2022-09-12T14:43:37.000Z</time>
      </trkpt>
      <trkpt lat="45.83243" lon="4.72298">
        <ele>288.13723</ele>
        <time>2022-09-12T14:43:38.000Z</time>
      </trkpt>
      <trkpt lat="45.83246" lon="4.72296">
        <ele>288.09901</ele>
        <time>2022-09-12T14:43:39.000Z</time>
      </trkpt>
      <trkpt lat="45.83248" lon="4.72294">
        <ele>288.07652</ele>
        <time>2022-09-12T14:43:40.000Z</time>
      </trkpt>
      <trkpt lat="45.8325" lon="4.72291">
        <ele>288.06332</ele>
        <time>2022-09-12T14:43:41.000Z</time>
      </trkpt>
      <trkpt lat="45.83252" lon="4.72288">
        <ele>288.04615</ele>
        <time>2022-09-12T14:43:42.000Z</time>
      </trkpt>
      <trkpt lat="45.83255" lon="4.72285">
        <ele>288.01143</ele>
        <time>2022-09-12T14:43:43.000Z</time>
      </trkpt>
      <trkpt lat="45.83257" lon="4.72281">
        <ele>287.95028</ele>
        <time>2022-09-12T14:43:44.000Z</time>
      </trkpt>
      <trkpt lat="45.8326" lon="4.72278">
        <ele>287.86279</ele>
        <time>2022-09-12T14:43:45.000Z</time>
      </trkpt>
      <trkpt lat="45.83263" lon="4.72274">
        <ele>287.77804</ele>
        <time>2022-09-12T14:43:46.000Z</time>
      </trkpt>
      <trkpt lat="45.83266" lon="4.72271">
        <ele>287.6997</ele>
        <time>2022-09-12T14:43:47.000Z</time>
      </trkpt>
      <trkpt lat="45.83268" lon="4.72268">
        <ele>287.62773</ele>
        <time>2022-09-12T14:43:48.000Z</time>
      </trkpt>
      <trkpt lat="45.83271" lon="4.72264">
        <ele>287.55536</ele>
        <time>2022-09-12T14:43:49.000Z</time>
      </trkpt>
      <trkpt lat="45.83273" lon="4.7226">
        <ele>287.47727</ele>
        <time>2022-09-12T14:43:50.000Z</time>
      </trkpt>
      <trkpt lat="45.83286" lon="4.72248">
        <ele>287.0212</ele>
        <time>2022-09-12T14:43:56.000Z</time>
      </trkpt>
      <trkpt lat="45.83288" lon="4.72247">
        <ele>286.95389</ele>
        <time>2022-09-12T14:43:57.000Z</time>
      </trkpt>
      <trkpt lat="45.8329" lon="4.72246">
        <ele>286.88814</ele>
        <time>2022-09-12T14:43:58.000Z</time>
      </trkpt>
      <trkpt lat="45.8329" lon="4.72241">
        <ele>286.79562</ele>
        <time>2022-09-12T14:44:00.000Z</time>
      </trkpt>
      <trkpt lat="45.83288" lon="4.7224">
        <ele>286.80664</ele>
        <time>2022-09-12T14:44:01.000Z</time>
      </trkpt>
      <trkpt lat="45.83286" lon="4.72241">
        <ele>286.86999</ele>
        <time>2022-09-12T14:44:02.000Z</time>
      </trkpt>
      <trkpt lat="45.83284" lon="4.72243">
        <ele>286.97031</ele>
        <time>2022-09-12T14:44:03.000Z</time>
      </trkpt>
      <trkpt lat="45.83281" lon="4.72246">
        <ele>287.08872</ele>
        <time>2022-09-12T14:44:04.000Z</time>
      </trkpt>
      <trkpt lat="45.83278" lon="4.72249">
        <ele>287.21404</ele>
        <time>2022-09-12T14:44:05.000Z</time>
      </trkpt>
      <trkpt lat="45.83275" lon="4.72252">
        <ele>287.33448</ele>
        <time>2022-09-12T14:44:06.000Z</time>
      </trkpt>
      <trkpt lat="45.83272" lon="4.72256">
        <ele>287.44632</ele>
        <time>2022-09-12T14:44:07.000Z</time>
      </trkpt>
      <trkpt lat="45.83269" lon="4.72259">
        <ele>287.5488</ele>
        <time>2022-09-12T14:44:08.000Z</time>
      </trkpt>
      <trkpt lat="45.83266" lon="4.72262">
        <ele>287.65022</ele>
        <time>2022-09-12T14:44:09.000Z</time>
      </trkpt>
      <trkpt lat="45.83263" lon="4.72265">
        <ele>287.74758</ele>
        <time>2022-09-12T14:44:10.000Z</time>
      </trkpt>
      <trkpt lat="45.8326" lon="4.72268">
        <ele>287.84792</ele>
        <time>2022-09-12T14:44:11.000Z</time>
      </trkpt>
      <trkpt lat="45.83258" lon="4.72271">
        <ele>287.94221</ele>
        <time>2022-09-12T14:44:12.000Z</time>
      </trkpt>
      <trkpt lat="45.83255" lon="4.72274">
        <ele>288.04283</ele>
        <time>2022-09-12T14:44:13.000Z</time>
      </trkpt>
      <trkpt lat="45.83252" lon="4.72277">
        <ele>288.14568</ele>
        <time>2022-09-12T14:44:14.000Z</time>
      </trkpt>
      <trkpt lat="45.83249" lon="4.7228">
        <ele>288.24391</ele>
        <time>2022-09-12T14:44:15.000Z</time>
      </trkpt>
      <trkpt lat="45.83246" lon="4.72283">
        <ele>288.33722</ele>
        <time>2022-09-12T14:44:16.000Z</time>
      </trkpt>
      <trkpt lat="45.83243" lon="4.72285">
        <ele>288.43096</ele>
        <time>2022-09-12T14:44:17.000Z</time>
      </trkpt>
      <trkpt lat="45.8324" lon="4.72287">
        <ele>288.53474</ele>
        <time>2022-09-12T14:44:18.000Z</time>
      </trkpt>
      <trkpt lat="45.83237" lon="4.7229">
        <ele>288.66667</ele>
        <time>2022-09-12T14:44:19.000Z</time>
      </trkpt>
      <trkpt lat="45.83234" lon="4.72291">
        <ele>288.81011</ele>
        <time>2022-09-12T14:44:20.000Z</time>
      </trkpt>
      <trkpt lat="45.8323" lon="4.72293">
        <ele>288.96732</ele>
        <time>2022-09-12T14:44:21.000Z</time>
      </trkpt>
      <trkpt lat="45.83227" lon="4.72295">
        <ele>289.09938</ele>
        <time>2022-09-12T14:44:22.000Z</time>
      </trkpt>
      <trkpt lat="45.83223" lon="4.72297">
        <ele>289.20324</ele>
        <time>2022-09-12T14:44:23.000Z</time>
      </trkpt>
      <trkpt lat="45.8322" lon="4.72299">
        <ele>289.27782</ele>
        <time>2022-09-12T14:44:24.000Z</time>
      </trkpt>
      <trkpt lat="45.83217" lon="4.72301">
        <ele>289.33064</ele>
        <time>2022-09-12T14:44:25.000Z</time>
      </trkpt>
      <trkpt lat="45.83214" lon="4.72302">
        <ele>289.42438</ele>
        <time>2022-09-12T14:44:26.000Z</time>
      </trkpt>
      <trkpt lat="45.8321" lon="4.72302">
        <ele>289.55027</ele>
        <time>2022-09-12T14:44:27.000Z</time>
      </trkpt>
      <trkpt lat="45.83207" lon="4.72301">
        <ele>289.68744</ele>
        <time>2022-09-12T14:44:28.000Z</time>
      </trkpt>
      <trkpt lat="45.83203" lon="4.72299">
        <ele>289.81259</ele>
        <time>2022-09-12T14:44:29.000Z</time>
      </trkpt>
      <trkpt lat="45.832" lon="4.72297">
        <ele>289.92418</ele>
        <time>2022-09-12T14:44:30.000Z</time>
      </trkpt>
      <trkpt lat="45.83197" lon="4.72296">
        <ele>290.033</ele>
        <time>2022-09-12T14:44:31.000Z</time>
      </trkpt>
      <trkpt lat="45.83193" lon="4.72295">
        <ele>290.13772</ele>
        <time>2022-09-12T14:44:32.000Z</time>
      </trkpt>
      <trkpt lat="45.83189" lon="4.72294">
        <ele>290.24411</ele>
        <time>2022-09-12T14:44:33.000Z</time>
      </trkpt>
      <trkpt lat="45.83186" lon="4.72293">
        <ele>290.36512</ele>
        <time>2022-09-12T14:44:34.000Z</time>
      </trkpt>
      <trkpt lat="45.83182" lon="4.72292">
        <ele>290.49727</ele>
        <time>2022-09-12T14:44:35.000Z</time>
      </trkpt>
      <trkpt lat="45.83178" lon="4.72291">
        <ele>290.64104</ele>
        <time>2022-09-12T14:44:36.000Z</time>
      </trkpt>
      <trkpt lat="45.83174" lon="4.72291">
        <ele>290.78694</ele>
        <time>2022-09-12T14:44:37.000Z</time>
      </trkpt>
      <trkpt lat="45.8317" lon="4.7229">
        <ele>290.95484</ele>
        <time>2022-09-12T14:44:38.000Z</time>
      </trkpt>
      <trkpt lat="45.83166" lon="4.72289">
        <ele>291.14092</ele>
        <time>2022-09-12T14:44:39.000Z</time>
      </trkpt>
      <trkpt lat="45.83161" lon="4.72289">
        <ele>291.34738</ele>
        <time>2022-09-12T14:44:40.000Z</time>
      </trkpt>
      <trkpt lat="45.83157" lon="4.72288">
        <ele>291.55465</ele>
        <time>2022-09-12T14:44:41.000Z</time>
      </trkpt>
      <trkpt lat="45.83153" lon="4.72288">
        <ele>291.7626</ele>
        <time>2022-09-12T14:44:42.000Z</time>
      </trkpt>
      <trkpt lat="45.83149" lon="4.72288">
        <ele>291.97969</ele>
        <time>2022-09-12T14:44:43.000Z</time>
      </trkpt>
      <trkpt lat="45.83144" lon="4.72287">
        <ele>292.21412</ele>
        <time>2022-09-12T14:44:44.000Z</time>
      </trkpt>
      <trkpt lat="45.8314" lon="4.72287">
        <ele>292.44022</ele>
        <time>2022-09-12T14:44:45.000Z</time>
      </trkpt>
      <trkpt lat="45.83136" lon="4.72287">
        <ele>292.67374</ele>
        <time>2022-09-12T14:44:46.000Z</time>
      </trkpt>
      <trkpt lat="45.83132" lon="4.72288">
        <ele>292.87894</ele>
        <time>2022-09-12T14:44:47.000Z</time>
      </trkpt>
      <trkpt lat="45.83127" lon="4.72289">
        <ele>293.06493</ele>
        <time>2022-09-12T14:44:48.000Z</time>
      </trkpt>
      <trkpt lat="45.83123" lon="4.7229">
        <ele>293.23464</ele>
        <time>2022-09-12T14:44:49.000Z</time>
      </trkpt>
      <trkpt lat="45.8312" lon="4.72291">
        <ele>293.38204</ele>
        <time>2022-09-12T14:44:50.000Z</time>
      </trkpt>
      <trkpt lat="45.83116" lon="4.72293">
        <ele>293.52399</ele>
        <time>2022-09-12T14:44:51.000Z</time>
      </trkpt>
      <trkpt lat="45.83112" lon="4.72294">
        <ele>293.65724</ele>
        <time>2022-09-12T14:44:52.000Z</time>
      </trkpt>
      <trkpt lat="45.83108" lon="4.72296">
        <ele>293.77231</ele>
        <time>2022-09-12T14:44:53.000Z</time>
      </trkpt>
      <trkpt lat="45.83104" lon="4.72297">
        <ele>293.85729</ele>
        <time>2022-09-12T14:44:54.000Z</time>
      </trkpt>
      <trkpt lat="45.831" lon="4.72298">
        <ele>293.91868</ele>
        <time>2022-09-12T14:44:55.000Z</time>
      </trkpt>
      <trkpt lat="45.83096" lon="4.72299">
        <ele>293.96762</ele>
        <time>2022-09-12T14:44:56.000Z</time>
      </trkpt>
      <trkpt lat="45.83092" lon="4.723">
        <ele>294.01139</ele>
        <time>2022-09-12T14:44:57.000Z</time>
      </trkpt>
      <trkpt lat="45.83088" lon="4.72302">
        <ele>294.06663</ele>
        <time>2022-09-12T14:44:58.000Z</time>
      </trkpt>
      <trkpt lat="45.83084" lon="4.72303">
        <ele>294.15059</ele>
        <time>2022-09-12T14:44:59.000Z</time>
      </trkpt>
      <trkpt lat="45.8308" lon="4.72305">
        <ele>294.24688</ele>
        <time>2022-09-12T14:45:00.000Z</time>
      </trkpt>
      <trkpt lat="45.83076" lon="4.72306">
        <ele>294.36474</ele>
        <time>2022-09-12T14:45:01.000Z</time>
      </trkpt>
      <trkpt lat="45.83071" lon="4.72306">
        <ele>294.49824</ele>
        <time>2022-09-12T14:45:02.000Z</time>
      </trkpt>
      <trkpt lat="45.83067" lon="4.72307">
        <ele>294.64512</ele>
        <time>2022-09-12T14:45:03.000Z</time>
      </trkpt>
      <trkpt lat="45.83063" lon="4.72308">
        <ele>294.80135</ele>
        <time>2022-09-12T14:45:04.000Z</time>
      </trkpt>
      <trkpt lat="45.83059" lon="4.72308">
        <ele>294.96943</ele>
        <time>2022-09-12T14:45:05.000Z</time>
      </trkpt>
      <trkpt lat="45.83054" lon="4.72309">
        <ele>295.15376</ele>
        <time>2022-09-12T14:45:06.000Z</time>
      </trkpt>
      <trkpt lat="45.8305" lon="4.72309">
        <ele>295.33664</ele>
        <time>2022-09-12T14:45:07.000Z</time>
      </trkpt>
      <trkpt lat="45.83046" lon="4.7231">
        <ele>295.51572</ele>
        <time>2022-09-12T14:45:08.000Z</time>
      </trkpt>
      <trkpt lat="45.83042" lon="4.7231">
        <ele>295.68161</ele>
        <time>2022-09-12T14:45:09.000Z</time>
      </trkpt>
      <trkpt lat="45.83038" lon="4.72311">
        <ele>295.83026</ele>
        <time>2022-09-12T14:45:10.000Z</time>
      </trkpt>
      <trkpt lat="45.83034" lon="4.72311">
        <ele>295.96083</ele>
        <time>2022-09-12T14:45:11.000Z</time>
      </trkpt>
      <trkpt lat="45.8303" lon="4.72313">
        <ele>296.07307</ele>
        <time>2022-09-12T14:45:12.000Z</time>
      </trkpt>
      <trkpt lat="45.83026" lon="4.72314">
        <ele>296.18572</ele>
        <time>2022-09-12T14:45:13.000Z</time>
      </trkpt>
      <trkpt lat="45.83023" lon="4.72316">
        <ele>296.30081</ele>
        <time>2022-09-12T14:45:14.000Z</time>
      </trkpt>
      <trkpt lat="45.83019" lon="4.72317">
        <ele>296.42238</ele>
        <time>2022-09-12T14:45:15.000Z</time>
      </trkpt>
      <trkpt lat="45.83015" lon="4.72319">
        <ele>296.54408</ele>
        <time>2022-09-12T14:45:16.000Z</time>
      </trkpt>
      <trkpt lat="45.83011" lon="4.7232">
        <ele>296.63086</ele>
        <time>2022-09-12T14:45:17.000Z</time>
      </trkpt>
      <trkpt lat="45.83007" lon="4.72322">
        <ele>296.67912</ele>
        <time>2022-09-12T14:45:18.000Z</time>
      </trkpt>
      <trkpt lat="45.83002" lon="4.72326">
        <ele>296.68417</ele>
        <time>2022-09-12T14:45:19.000Z</time>
      </trkpt>
      <trkpt lat="45.82997" lon="4.72329">
        <ele>296.74905</ele>
        <time>2022-09-12T14:45:20.000Z</time>
      </trkpt>
      <trkpt lat="45.82994" lon="4.72331">
        <ele>296.81079</ele>
        <time>2022-09-12T14:45:21.000Z</time>
      </trkpt>
      <trkpt lat="45.82989" lon="4.72334">
        <ele>296.98832</ele>
        <time>2022-09-12T14:45:22.000Z</time>
      </trkpt>
      <trkpt lat="45.82984" lon="4.72337">
        <ele>297.25116</ele>
        <time>2022-09-12T14:45:23.000Z</time>
      </trkpt>
      <trkpt lat="45.82982" lon="4.72336">
        <ele>297.48334</ele>
        <time>2022-09-12T14:45:24.000Z</time>
      </trkpt>
      <trkpt lat="45.82978" lon="4.72338">
        <ele>297.67891</ele>
        <time>2022-09-12T14:45:25.000Z</time>
      </trkpt>
      <trkpt lat="45.82975" lon="4.7234">
        <ele>297.8643</ele>
        <time>2022-09-12T14:45:26.000Z</time>
      </trkpt>
      <trkpt lat="45.8297" lon="4.72342">
        <ele>298.09304</ele>
        <time>2022-09-12T14:45:27.000Z</time>
      </trkpt>
      <trkpt lat="45.82967" lon="4.72345">
        <ele>298.25067</ele>
        <time>2022-09-12T14:45:28.000Z</time>
      </trkpt>
      <trkpt lat="45.82962" lon="4.72345">
        <ele>298.51247</ele>
        <time>2022-09-12T14:45:29.000Z</time>
      </trkpt>
      <trkpt lat="45.82958" lon="4.72347">
        <ele>298.70258</ele>
        <time>2022-09-12T14:45:30.000Z</time>
      </trkpt>
      <trkpt lat="45.82952" lon="4.7235">
        <ele>298.91648</ele>
        <time>2022-09-12T14:45:31.000Z</time>
      </trkpt>
      <trkpt lat="45.82948" lon="4.72352">
        <ele>299.0593</ele>
        <time>2022-09-12T14:45:32.000Z</time>
      </trkpt>
      <trkpt lat="45.82945" lon="4.72354">
        <ele>299.1837</ele>
        <time>2022-09-12T14:45:33.000Z</time>
      </trkpt>
      <trkpt lat="45.82941" lon="4.72355">
        <ele>299.38506</ele>
        <time>2022-09-12T14:45:34.000Z</time>
      </trkpt>
      <trkpt lat="45.82937" lon="4.72357">
        <ele>299.65109</ele>
        <time>2022-09-12T14:45:35.000Z</time>
      </trkpt>
      <trkpt lat="45.82933" lon="4.7236">
        <ele>299.78539</ele>
        <time>2022-09-12T14:45:36.000Z</time>
      </trkpt>
      <trkpt lat="45.82929" lon="4.72361">
        <ele>300.03945</ele>
        <time>2022-09-12T14:45:37.000Z</time>
      </trkpt>
      <trkpt lat="45.82926" lon="4.72364">
        <ele>300.15195</ele>
        <time>2022-09-12T14:45:38.000Z</time>
      </trkpt>
      <trkpt lat="45.82921" lon="4.72367">
        <ele>300.35051</ele>
        <time>2022-09-12T14:45:39.000Z</time>
      </trkpt>
      <trkpt lat="45.82917" lon="4.72371">
        <ele>300.42342</ele>
        <time>2022-09-12T14:45:40.000Z</time>
      </trkpt>
      <trkpt lat="45.82912" lon="4.72373">
        <ele>300.60004</ele>
        <time>2022-09-12T14:45:41.000Z</time>
      </trkpt>
      <trkpt lat="45.82907" lon="4.72375">
        <ele>300.88386</ele>
        <time>2022-09-12T14:45:42.000Z</time>
      </trkpt>
      <trkpt lat="45.82902" lon="4.72376">
        <ele>301.22595</ele>
        <time>2022-09-12T14:45:43.000Z</time>
      </trkpt>
      <trkpt lat="45.82898" lon="4.72379">
        <ele>301.4913</ele>
        <time>2022-09-12T14:45:44.000Z</time>
      </trkpt>
      <trkpt lat="45.82894" lon="4.72383">
        <ele>301.75587</ele>
        <time>2022-09-12T14:45:45.000Z</time>
      </trkpt>
      <trkpt lat="45.8289" lon="4.72385">
        <ele>302.01705</ele>
        <time>2022-09-12T14:45:46.000Z</time>
      </trkpt>
      <trkpt lat="45.82885" lon="4.72387">
        <ele>302.312</ele>
        <time>2022-09-12T14:45:47.000Z</time>
      </trkpt>
      <trkpt lat="45.82883" lon="4.7239">
        <ele>302.44312</ele>
        <time>2022-09-12T14:45:48.000Z</time>
      </trkpt>
      <trkpt lat="45.82878" lon="4.72394">
        <ele>302.72149</ele>
        <time>2022-09-12T14:45:49.000Z</time>
      </trkpt>
      <trkpt lat="45.82874" lon="4.72396">
        <ele>303.07983</ele>
        <time>2022-09-12T14:45:50.000Z</time>
      </trkpt>
      <trkpt lat="45.82871" lon="4.72399">
        <ele>303.24686</ele>
        <time>2022-09-12T14:45:51.000Z</time>
      </trkpt>
      <trkpt lat="45.82868" lon="4.72403">
        <ele>303.46012</ele>
        <time>2022-09-12T14:45:52.000Z</time>
      </trkpt>
      <trkpt lat="45.82865" lon="4.72406">
        <ele>303.69084</ele>
        <time>2022-09-12T14:45:53.000Z</time>
      </trkpt>
      <trkpt lat="45.82862" lon="4.72411">
        <ele>303.89806</ele>
        <time>2022-09-12T14:45:54.000Z</time>
      </trkpt>
      <trkpt lat="45.82859" lon="4.72415">
        <ele>304.07859</ele>
        <time>2022-09-12T14:45:55.000Z</time>
      </trkpt>
      <trkpt lat="45.82856" lon="4.72419">
        <ele>304.20855</ele>
        <time>2022-09-12T14:45:56.000Z</time>
      </trkpt>
      <trkpt lat="45.82854" lon="4.72423">
        <ele>304.37295</ele>
        <time>2022-09-12T14:45:57.000Z</time>
      </trkpt>
      <trkpt lat="45.82851" lon="4.72428">
        <ele>304.56689</ele>
        <time>2022-09-12T14:45:58.000Z</time>
      </trkpt>
      <trkpt lat="45.82848" lon="4.72433">
        <ele>304.7715</ele>
        <time>2022-09-12T14:45:59.000Z</time>
      </trkpt>
      <trkpt lat="45.82845" lon="4.72437">
        <ele>304.94719</ele>
        <time>2022-09-12T14:46:00.000Z</time>
      </trkpt>
      <trkpt lat="45.82842" lon="4.72441">
        <ele>305.10183</ele>
        <time>2022-09-12T14:46:01.000Z</time>
      </trkpt>
      <trkpt lat="45.82839" lon="4.72446">
        <ele>305.26321</ele>
        <time>2022-09-12T14:46:02.000Z</time>
      </trkpt>
      <trkpt lat="45.82836" lon="4.7245">
        <ele>305.41966</ele>
        <time>2022-09-12T14:46:03.000Z</time>
      </trkpt>
      <trkpt lat="45.82833" lon="4.72454">
        <ele>305.58433</ele>
        <time>2022-09-12T14:46:04.000Z</time>
      </trkpt>
      <trkpt lat="45.8283" lon="4.72458">
        <ele>305.74426</ele>
        <time>2022-09-12T14:46:05.000Z</time>
      </trkpt>
      <trkpt lat="45.82826" lon="4.72461">
        <ele>305.92614</ele>
        <time>2022-09-12T14:46:06.000Z</time>
      </trkpt>
      <trkpt lat="45.82822" lon="4.72464">
        <ele>306.13491</ele>
        <time>2022-09-12T14:46:07.000Z</time>
      </trkpt>
      <trkpt lat="45.82818" lon="4.72465">
        <ele>306.37753</ele>
        <time>2022-09-12T14:46:08.000Z</time>
      </trkpt>
      <trkpt lat="45.82814" lon="4.72465">
        <ele>306.66209</ele>
        <time>2022-09-12T14:46:09.000Z</time>
      </trkpt>
      <trkpt lat="45.8281" lon="4.72465">
        <ele>306.97807</ele>
        <time>2022-09-12T14:46:10.000Z</time>
      </trkpt>
      <trkpt lat="45.82805" lon="4.72464">
        <ele>307.29936</ele>
        <time>2022-09-12T14:46:11.000Z</time>
      </trkpt>
      <trkpt lat="45.82802" lon="4.72463">
        <ele>307.59551</ele>
        <time>2022-09-12T14:46:12.000Z</time>
      </trkpt>
      <trkpt lat="45.82798" lon="4.72461">
        <ele>307.88367</ele>
        <time>2022-09-12T14:46:13.000Z</time>
      </trkpt>
      <trkpt lat="45.82794" lon="4.72458">
        <ele>308.18913</ele>
        <time>2022-09-12T14:46:14.000Z</time>
      </trkpt>
      <trkpt lat="45.82791" lon="4.72454">
        <ele>308.48463</ele>
        <time>2022-09-12T14:46:15.000Z</time>
      </trkpt>
      <trkpt lat="45.82787" lon="4.7245">
        <ele>308.85238</ele>
        <time>2022-09-12T14:46:16.000Z</time>
      </trkpt>
      <trkpt lat="45.82783" lon="4.72446">
        <ele>309.21748</ele>
        <time>2022-09-12T14:46:17.000Z</time>
      </trkpt>
      <trkpt lat="45.8278" lon="4.72441">
        <ele>309.48575</ele>
        <time>2022-09-12T14:46:18.000Z</time>
      </trkpt>
      <trkpt lat="45.82777" lon="4.72437">
        <ele>309.68622</ele>
        <time>2022-09-12T14:46:19.000Z</time>
      </trkpt>
      <trkpt lat="45.82773" lon="4.72433">
        <ele>309.82217</ele>
        <time>2022-09-12T14:46:20.000Z</time>
      </trkpt>
      <trkpt lat="45.8277" lon="4.72429">
        <ele>309.96866</ele>
        <time>2022-09-12T14:46:21.000Z</time>
      </trkpt>
      <trkpt lat="45.82765" lon="4.72426">
        <ele>310.23105</ele>
        <time>2022-09-12T14:46:22.000Z</time>
      </trkpt>
      <trkpt lat="45.8276" lon="4.72421">
        <ele>310.5009</ele>
        <time>2022-09-12T14:46:23.000Z</time>
      </trkpt>
      <trkpt lat="45.82756" lon="4.72418">
        <ele>310.76781</ele>
        <time>2022-09-12T14:46:24.000Z</time>
      </trkpt>
      <trkpt lat="45.82751" lon="4.72414">
        <ele>311.0844</ele>
        <time>2022-09-12T14:46:25.000Z</time>
      </trkpt>
      <trkpt lat="45.82747" lon="4.72411">
        <ele>311.32069</ele>
        <time>2022-09-12T14:46:26.000Z</time>
      </trkpt>
      <trkpt lat="45.82744" lon="4.72407">
        <ele>311.49664</ele>
        <time>2022-09-12T14:46:27.000Z</time>
      </trkpt>
      <trkpt lat="45.8274" lon="4.72402">
        <ele>311.64856</ele>
        <time>2022-09-12T14:46:28.000Z</time>
      </trkpt>
      <trkpt lat="45.82737" lon="4.72396">
        <ele>311.75088</ele>
        <time>2022-09-12T14:46:29.000Z</time>
      </trkpt>
      <trkpt lat="45.82733" lon="4.72391">
        <ele>311.82981</ele>
        <time>2022-09-12T14:46:30.000Z</time>
      </trkpt>
      <trkpt lat="45.82729" lon="4.72388">
        <ele>311.91664</ele>
        <time>2022-09-12T14:46:31.000Z</time>
      </trkpt>
      <trkpt lat="45.82726" lon="4.72383">
        <ele>311.98836</ele>
        <time>2022-09-12T14:46:32.000Z</time>
      </trkpt>
      <trkpt lat="45.82723" lon="4.72378">
        <ele>312.08414</ele>
        <time>2022-09-12T14:46:33.000Z</time>
      </trkpt>
      <trkpt lat="45.82719" lon="4.72372">
        <ele>312.18491</ele>
        <time>2022-09-12T14:46:34.000Z</time>
      </trkpt>
      <trkpt lat="45.82716" lon="4.72368">
        <ele>312.22827</ele>
        <time>2022-09-12T14:46:35.000Z</time>
      </trkpt>
      <trkpt lat="45.82713" lon="4.72362">
        <ele>312.17882</ele>
        <time>2022-09-12T14:46:36.000Z</time>
      </trkpt>
      <trkpt lat="45.82712" lon="4.72358">
        <ele>312.10881</ele>
        <time>2022-09-12T14:46:37.000Z</time>
      </trkpt>
      <trkpt lat="45.8271" lon="4.72352">
        <ele>311.96644</ele>
        <time>2022-09-12T14:46:38.000Z</time>
      </trkpt>
      <trkpt lat="45.8271" lon="4.72344">
        <ele>311.77689</ele>
        <time>2022-09-12T14:46:39.000Z</time>
      </trkpt>
      <trkpt lat="45.82712" lon="4.72336">
        <ele>311.54787</ele>
        <time>2022-09-12T14:46:40.000Z</time>
      </trkpt>
      <trkpt lat="45.82715" lon="4.72326">
        <ele>311.19384</ele>
        <time>2022-09-12T14:46:41.000Z</time>
      </trkpt>
      <trkpt lat="45.82716" lon="4.72316">
        <ele>310.73027</ele>
        <time>2022-09-12T14:46:42.000Z</time>
      </trkpt>
      <trkpt lat="45.82718" lon="4.72305">
        <ele>310.16844</ele>
        <time>2022-09-12T14:46:43.000Z</time>
      </trkpt>
      <trkpt lat="45.82721" lon="4.72295">
        <ele>309.61396</ele>
        <time>2022-09-12T14:46:44.000Z</time>
      </trkpt>
      <trkpt lat="45.82723" lon="4.72285">
        <ele>308.9464</ele>
        <time>2022-09-12T14:46:45.000Z</time>
      </trkpt>
      <trkpt lat="45.82726" lon="4.72273">
        <ele>308.04293</ele>
        <time>2022-09-12T14:46:46.000Z</time>
      </trkpt>
      <trkpt lat="45.82729" lon="4.72262">
        <ele>307.30007</ele>
        <time>2022-09-12T14:46:47.000Z</time>
      </trkpt>
      <trkpt lat="45.82733" lon="4.72252">
        <ele>306.91102</ele>
        <time>2022-09-12T14:46:48.000Z</time>
      </trkpt>
      <trkpt lat="45.82735" lon="4.72241">
        <ele>306.55658</ele>
        <time>2022-09-12T14:46:49.000Z</time>
      </trkpt>
      <trkpt lat="45.82738" lon="4.7223">
        <ele>306.12268</ele>
        <time>2022-09-12T14:46:50.000Z</time>
      </trkpt>
      <trkpt lat="45.82741" lon="4.72217">
        <ele>305.5286</ele>
        <time>2022-09-12T14:46:51.000Z</time>
      </trkpt>
      <trkpt lat="45.82745" lon="4.72204">
        <ele>304.90132</ele>
        <time>2022-09-12T14:46:52.000Z</time>
      </trkpt>
      <trkpt lat="45.82749" lon="4.72191">
        <ele>304.2292</ele>
        <time>2022-09-12T14:46:53.000Z</time>
      </trkpt>
      <trkpt lat="45.82753" lon="4.72178">
        <ele>303.47756</ele>
        <time>2022-09-12T14:46:54.000Z</time>
      </trkpt>
      <trkpt lat="45.82756" lon="4.72163">
        <ele>302.57667</ele>
        <time>2022-09-12T14:46:55.000Z</time>
      </trkpt>
      <trkpt lat="45.82761" lon="4.72148">
        <ele>301.91234</ele>
        <time>2022-09-12T14:46:56.000Z</time>
      </trkpt>
      <trkpt lat="45.82765" lon="4.72133">
        <ele>300.92013</ele>
        <time>2022-09-12T14:46:57.000Z</time>
      </trkpt>
      <trkpt lat="45.82769" lon="4.72117">
        <ele>299.88212</ele>
        <time>2022-09-12T14:46:58.000Z</time>
      </trkpt>
      <trkpt lat="45.82773" lon="4.72103">
        <ele>298.92252</ele>
        <time>2022-09-12T14:46:59.000Z</time>
      </trkpt>
      <trkpt lat="45.82778" lon="4.72086">
        <ele>297.72742</ele>
        <time>2022-09-12T14:47:00.000Z</time>
      </trkpt>
      <trkpt lat="45.82782" lon="4.7207">
        <ele>296.60065</ele>
        <time>2022-09-12T14:47:01.000Z</time>
      </trkpt>
      <trkpt lat="45.82786" lon="4.72055">
        <ele>295.55983</ele>
        <time>2022-09-12T14:47:02.000Z</time>
      </trkpt>
      <trkpt lat="45.8279" lon="4.72039">
        <ele>294.62493</ele>
        <time>2022-09-12T14:47:03.000Z</time>
      </trkpt>
      <trkpt lat="45.82793" lon="4.72023">
        <ele>293.68494</ele>
        <time>2022-09-12T14:47:04.000Z</time>
      </trkpt>
      <trkpt lat="45.82795" lon="4.72006">
        <ele>292.57277</ele>
        <time>2022-09-12T14:47:05.000Z</time>
      </trkpt>
      <trkpt lat="45.82797" lon="4.71989">
        <ele>291.6807</ele>
        <time>2022-09-12T14:47:06.000Z</time>
      </trkpt>
      <trkpt lat="45.82797" lon="4.71974">
        <ele>290.87051</ele>
        <time>2022-09-12T14:47:07.000Z</time>
      </trkpt>
      <trkpt lat="45.828" lon="4.71958">
        <ele>290.37564</ele>
        <time>2022-09-12T14:47:08.000Z</time>
      </trkpt>
      <trkpt lat="45.82801" lon="4.71942">
        <ele>289.87885</ele>
        <time>2022-09-12T14:47:09.000Z</time>
      </trkpt>
      <trkpt lat="45.82803" lon="4.71926">
        <ele>289.52654</ele>
        <time>2022-09-12T14:47:10.000Z</time>
      </trkpt>
      <trkpt lat="45.82805" lon="4.7191">
        <ele>289.35156</ele>
        <time>2022-09-12T14:47:11.000Z</time>
      </trkpt>
      <trkpt lat="45.82807" lon="4.71892">
        <ele>289.09201</ele>
        <time>2022-09-12T14:47:12.000Z</time>
      </trkpt>
      <trkpt lat="45.82806" lon="4.71879">
        <ele>288.97811</ele>
        <time>2022-09-12T14:47:13.000Z</time>
      </trkpt>
      <trkpt lat="45.82808" lon="4.71865">
        <ele>289.00943</ele>
        <time>2022-09-12T14:47:14.000Z</time>
      </trkpt>
      <trkpt lat="45.8281" lon="4.71853">
        <ele>289.1417</ele>
        <time>2022-09-12T14:47:15.000Z</time>
      </trkpt>
      <trkpt lat="45.82812" lon="4.71841">
        <ele>289.27829</ele>
        <time>2022-09-12T14:47:16.000Z</time>
      </trkpt>
      <trkpt lat="45.82812" lon="4.71829">
        <ele>289.44086</ele>
        <time>2022-09-12T14:47:17.000Z</time>
      </trkpt>
      <trkpt lat="45.82814" lon="4.7182">
        <ele>289.51381</ele>
        <time>2022-09-12T14:47:18.000Z</time>
      </trkpt>
      <trkpt lat="45.82814" lon="4.71811">
        <ele>289.52869</ele>
        <time>2022-09-12T14:47:19.000Z</time>
      </trkpt>
      <trkpt lat="45.82815" lon="4.71803">
        <ele>289.44091</ele>
        <time>2022-09-12T14:47:20.000Z</time>
      </trkpt>
      <trkpt lat="45.82815" lon="4.71796">
        <ele>289.40886</ele>
        <time>2022-09-12T14:47:21.000Z</time>
      </trkpt>
      <trkpt lat="45.82816" lon="4.71791">
        <ele>289.30022</ele>
        <time>2022-09-12T14:47:22.000Z</time>
      </trkpt>
      <trkpt lat="45.82819" lon="4.71788">
        <ele>289.11488</ele>
        <time>2022-09-12T14:47:23.000Z</time>
      </trkpt>
      <trkpt lat="45.82821" lon="4.71785">
        <ele>288.97028</ele>
        <time>2022-09-12T14:47:24.000Z</time>
      </trkpt>
      <trkpt lat="45.82825" lon="4.71786">
        <ele>288.89084</ele>
        <time>2022-09-12T14:47:25.000Z</time>
      </trkpt>
      <trkpt lat="45.8283" lon="4.71785">
        <ele>288.89143</ele>
        <time>2022-09-12T14:47:26.000Z</time>
      </trkpt>
      <trkpt lat="45.82833" lon="4.71785">
        <ele>288.96407</ele>
        <time>2022-09-12T14:47:27.000Z</time>
      </trkpt>
      <trkpt lat="45.82838" lon="4.71785">
        <ele>289.09724</ele>
        <time>2022-09-12T14:47:28.000Z</time>
      </trkpt>
      <trkpt lat="45.82842" lon="4.71785">
        <ele>289.24843</ele>
        <time>2022-09-12T14:47:29.000Z</time>
      </trkpt>
      <trkpt lat="45.82846" lon="4.71784">
        <ele>289.37787</ele>
        <time>2022-09-12T14:47:30.000Z</time>
      </trkpt>
      <trkpt lat="45.8285" lon="4.71783">
        <ele>289.50122</ele>
        <time>2022-09-12T14:47:31.000Z</time>
      </trkpt>
      <trkpt lat="45.82855" lon="4.71783">
        <ele>289.65491</ele>
        <time>2022-09-12T14:47:32.000Z</time>
      </trkpt>
      <trkpt lat="45.82859" lon="4.71783">
        <ele>289.80961</ele>
        <time>2022-09-12T14:47:33.000Z</time>
      </trkpt>
      <trkpt lat="45.82864" lon="4.71783">
        <ele>289.93922</ele>
        <time>2022-09-12T14:47:34.000Z</time>
      </trkpt>
      <trkpt lat="45.82868" lon="4.71783">
        <ele>290.04396</ele>
        <time>2022-09-12T14:47:35.000Z</time>
      </trkpt>
      <trkpt lat="45.82873" lon="4.71783">
        <ele>290.07419</ele>
        <time>2022-09-12T14:47:36.000Z</time>
      </trkpt>
      <trkpt lat="45.82878" lon="4.71783">
        <ele>290.07156</ele>
        <time>2022-09-12T14:47:37.000Z</time>
      </trkpt>
      <trkpt lat="45.82883" lon="4.71783">
        <ele>290.02283</ele>
        <time>2022-09-12T14:47:38.000Z</time>
      </trkpt>
      <trkpt lat="45.82888" lon="4.71783">
        <ele>289.9652</ele>
        <time>2022-09-12T14:47:39.000Z</time>
      </trkpt>
      <trkpt lat="45.82892" lon="4.71783">
        <ele>289.95444</ele>
        <time>2022-09-12T14:47:40.000Z</time>
      </trkpt>
      <trkpt lat="45.82897" lon="4.71783">
        <ele>289.94283</ele>
        <time>2022-09-12T14:47:41.000Z</time>
      </trkpt>
      <trkpt lat="45.82902" lon="4.71783">
        <ele>289.92315</ele>
        <time>2022-09-12T14:47:42.000Z</time>
      </trkpt>
      <trkpt lat="45.82905" lon="4.71783">
        <ele>289.91709</ele>
        <time>2022-09-12T14:47:43.000Z</time>
      </trkpt>
      <trkpt lat="45.82908" lon="4.71784">
        <ele>289.89239</ele>
        <time>2022-09-12T14:47:44.000Z</time>
      </trkpt>
      <trkpt lat="45.8291" lon="4.71783">
        <ele>289.91102</ele>
        <time>2022-09-12T14:47:45.000Z</time>
      </trkpt>
      <trkpt lat="45.82912" lon="4.71783">
        <ele>289.89195</ele>
        <time>2022-09-12T14:47:46.000Z</time>
      </trkpt>
      <trkpt lat="45.82914" lon="4.71783">
        <ele>289.90258</ele>
        <time>2022-09-12T14:47:47.000Z</time>
      </trkpt>
      <trkpt lat="45.82917" lon="4.71782">
        <ele>289.92192</ele>
        <time>2022-09-12T14:47:48.000Z</time>
      </trkpt>
      <trkpt lat="45.82921" lon="4.71781">
        <ele>289.94704</ele>
        <time>2022-09-12T14:47:49.000Z</time>
      </trkpt>
      <trkpt lat="45.82924" lon="4.7178">
        <ele>289.96717</ele>
        <time>2022-09-12T14:47:50.000Z</time>
      </trkpt>
      <trkpt lat="45.82928" lon="4.71779">
        <ele>289.97302</ele>
        <time>2022-09-12T14:47:51.000Z</time>
      </trkpt>
      <trkpt lat="45.82932" lon="4.71779">
        <ele>289.95921</ele>
        <time>2022-09-12T14:47:52.000Z</time>
      </trkpt>
      <trkpt lat="45.82936" lon="4.71779">
        <ele>289.92603</ele>
        <time>2022-09-12T14:47:53.000Z</time>
      </trkpt>
      <trkpt lat="45.8294" lon="4.71779">
        <ele>289.86158</ele>
        <time>2022-09-12T14:47:54.000Z</time>
      </trkpt>
      <trkpt lat="45.82944" lon="4.7178">
        <ele>289.78375</ele>
        <time>2022-09-12T14:47:55.000Z</time>
      </trkpt>
      <trkpt lat="45.82948" lon="4.71779">
        <ele>289.71162</ele>
        <time>2022-09-12T14:47:56.000Z</time>
      </trkpt>
      <trkpt lat="45.82952" lon="4.71779">
        <ele>289.66643</ele>
        <time>2022-09-12T14:47:57.000Z</time>
      </trkpt>
      <trkpt lat="45.82956" lon="4.71777">
        <ele>289.66727</ele>
        <time>2022-09-12T14:47:58.000Z</time>
      </trkpt>
      <trkpt lat="45.8296" lon="4.71774">
        <ele>289.71415</ele>
        <time>2022-09-12T14:47:59.000Z</time>
      </trkpt>
      <trkpt lat="45.82963" lon="4.71771">
        <ele>289.78766</ele>
        <time>2022-09-12T14:48:00.000Z</time>
      </trkpt>
      <trkpt lat="45.82966" lon="4.71768">
        <ele>289.852</ele>
        <time>2022-09-12T14:48:01.000Z</time>
      </trkpt>
      <trkpt lat="45.82969" lon="4.71766">
        <ele>289.89684</ele>
        <time>2022-09-12T14:48:02.000Z</time>
      </trkpt>
      <trkpt lat="45.82973" lon="4.71765">
        <ele>289.90368</ele>
        <time>2022-09-12T14:48:03.000Z</time>
      </trkpt>
      <trkpt lat="45.82977" lon="4.71764">
        <ele>289.86684</ele>
        <time>2022-09-12T14:48:04.000Z</time>
      </trkpt>
      <trkpt lat="45.82981" lon="4.71765">
        <ele>289.79382</ele>
        <time>2022-09-12T14:48:05.000Z</time>
      </trkpt>
      <trkpt lat="45.82985" lon="4.71767">
        <ele>289.69492</ele>
        <time>2022-09-12T14:48:06.000Z</time>
      </trkpt>
      <trkpt lat="45.82988" lon="4.71769">
        <ele>289.59177</ele>
        <time>2022-09-12T14:48:07.000Z</time>
      </trkpt>
      <trkpt lat="45.82991" lon="4.71771">
        <ele>289.50621</ele>
        <time>2022-09-12T14:48:08.000Z</time>
      </trkpt>
      <trkpt lat="45.82994" lon="4.71772">
        <ele>289.42304</ele>
        <time>2022-09-12T14:48:09.000Z</time>
      </trkpt>
      <trkpt lat="45.82997" lon="4.71773">
        <ele>289.33295</ele>
        <time>2022-09-12T14:48:10.000Z</time>
      </trkpt>
      <trkpt lat="45.83" lon="4.71774">
        <ele>289.23807</ele>
        <time>2022-09-12T14:48:11.000Z</time>
      </trkpt>
      <trkpt lat="45.83004" lon="4.71776">
        <ele>289.13374</ele>
        <time>2022-09-12T14:48:12.000Z</time>
      </trkpt>
      <trkpt lat="45.83008" lon="4.71778">
        <ele>289.02546</ele>
        <time>2022-09-12T14:48:13.000Z</time>
      </trkpt>
      <trkpt lat="45.83012" lon="4.71779">
        <ele>288.89899</ele>
        <time>2022-09-12T14:48:14.000Z</time>
      </trkpt>
      <trkpt lat="45.83016" lon="4.71782">
        <ele>288.74948</ele>
        <time>2022-09-12T14:48:15.000Z</time>
      </trkpt>
      <trkpt lat="45.8302" lon="4.71785">
        <ele>288.56679</ele>
        <time>2022-09-12T14:48:16.000Z</time>
      </trkpt>
      <trkpt lat="45.83024" lon="4.71789">
        <ele>288.37982</ele>
        <time>2022-09-12T14:48:17.000Z</time>
      </trkpt>
      <trkpt lat="45.83028" lon="4.71792">
        <ele>288.20333</ele>
        <time>2022-09-12T14:48:18.000Z</time>
      </trkpt>
      <trkpt lat="45.83035" lon="4.71797">
        <ele>287.84183</ele>
        <time>2022-09-12T14:48:19.000Z</time>
      </trkpt>
      <trkpt lat="45.8304" lon="4.71801">
        <ele>287.57509</ele>
        <time>2022-09-12T14:48:20.000Z</time>
      </trkpt>
      <trkpt lat="45.83046" lon="4.71805">
        <ele>287.16202</ele>
        <time>2022-09-12T14:48:21.000Z</time>
      </trkpt>
      <trkpt lat="45.83053" lon="4.71809">
        <ele>286.64533</ele>
        <time>2022-09-12T14:48:22.000Z</time>
      </trkpt>
      <trkpt lat="45.83061" lon="4.71815">
        <ele>285.88198</ele>
        <time>2022-09-12T14:48:23.000Z</time>
      </trkpt>
      <trkpt lat="45.83068" lon="4.71819">
        <ele>285.28777</ele>
        <time>2022-09-12T14:48:24.000Z</time>
      </trkpt>
      <trkpt lat="45.83074" lon="4.71823">
        <ele>284.72839</ele>
        <time>2022-09-12T14:48:25.000Z</time>
      </trkpt>
      <trkpt lat="45.83081" lon="4.71829">
        <ele>284.03196</ele>
        <time>2022-09-12T14:48:26.000Z</time>
      </trkpt>
      <trkpt lat="45.83088" lon="4.71832">
        <ele>283.56495</ele>
        <time>2022-09-12T14:48:27.000Z</time>
      </trkpt>
      <trkpt lat="45.83093" lon="4.71835">
        <ele>283.03533</ele>
        <time>2022-09-12T14:48:28.000Z</time>
      </trkpt>
      <trkpt lat="45.83096" lon="4.71838">
        <ele>282.66419</ele>
        <time>2022-09-12T14:48:29.000Z</time>
      </trkpt>
      <trkpt lat="45.83099" lon="4.71839">
        <ele>282.45047</ele>
        <time>2022-09-12T14:48:30.000Z</time>
      </trkpt>
      <trkpt lat="45.83102" lon="4.71841">
        <ele>282.14342</ele>
        <time>2022-09-12T14:48:31.000Z</time>
      </trkpt>
      <trkpt lat="45.83106" lon="4.71841">
        <ele>281.96792</ele>
        <time>2022-09-12T14:48:32.000Z</time>
      </trkpt>
      <trkpt lat="45.83108" lon="4.71842">
        <ele>281.8042</ele>
        <time>2022-09-12T14:48:33.000Z</time>
      </trkpt>
      <trkpt lat="45.83112" lon="4.71842">
        <ele>281.75271</ele>
        <time>2022-09-12T14:48:34.000Z</time>
      </trkpt>
      <trkpt lat="45.83117" lon="4.71843">
        <ele>281.4921</ele>
        <time>2022-09-12T14:48:35.000Z</time>
      </trkpt>
      <trkpt lat="45.83122" lon="4.71841">
        <ele>281.529</ele>
        <time>2022-09-12T14:48:36.000Z</time>
      </trkpt>
      <trkpt lat="45.83128" lon="4.71843">
        <ele>281.36701</ele>
        <time>2022-09-12T14:48:37.000Z</time>
      </trkpt>
      <trkpt lat="45.83133" lon="4.71843">
        <ele>281.22138</ele>
        <time>2022-09-12T14:48:38.000Z</time>
      </trkpt>
      <trkpt lat="45.83137" lon="4.71844">
        <ele>281.05121</ele>
        <time>2022-09-12T14:48:39.000Z</time>
      </trkpt>
      <trkpt lat="45.83143" lon="4.71843">
        <ele>280.87457</ele>
        <time>2022-09-12T14:48:40.000Z</time>
      </trkpt>
      <trkpt lat="45.83145" lon="4.71842">
        <ele>280.75254</ele>
        <time>2022-09-12T14:48:41.000Z</time>
      </trkpt>
      <trkpt lat="45.8315" lon="4.7184">
        <ele>280.54867</ele>
        <time>2022-09-12T14:48:42.000Z</time>
      </trkpt>
      <trkpt lat="45.83156" lon="4.71839">
        <ele>280.18384</ele>
        <time>2022-09-12T14:48:43.000Z</time>
      </trkpt>
      <trkpt lat="45.83162" lon="4.71839">
        <ele>279.87382</ele>
        <time>2022-09-12T14:48:44.000Z</time>
      </trkpt>
      <trkpt lat="45.83168" lon="4.71838">
        <ele>279.59915</ele>
        <time>2022-09-12T14:48:45.000Z</time>
      </trkpt>
      <trkpt lat="45.83176" lon="4.71842">
        <ele>278.9429</ele>
        <time>2022-09-12T14:48:46.000Z</time>
      </trkpt>
      <trkpt lat="45.83185" lon="4.71843">
        <ele>278.34901</ele>
        <time>2022-09-12T14:48:47.000Z</time>
      </trkpt>
      <trkpt lat="45.83193" lon="4.71842">
        <ele>278.02146</ele>
        <time>2022-09-12T14:48:48.000Z</time>
      </trkpt>
      <trkpt lat="45.83201" lon="4.71844">
        <ele>277.47262</ele>
        <time>2022-09-12T14:48:49.000Z</time>
      </trkpt>
      <trkpt lat="45.83208" lon="4.71846">
        <ele>276.94763</ele>
        <time>2022-09-12T14:48:50.000Z</time>
      </trkpt>
      <trkpt lat="45.83213" lon="4.7185">
        <ele>276.54696</ele>
        <time>2022-09-12T14:48:51.000Z</time>
      </trkpt>
      <trkpt lat="45.83219" lon="4.71855">
        <ele>276.19173</ele>
        <time>2022-09-12T14:48:52.000Z</time>
      </trkpt>
      <trkpt lat="45.83227" lon="4.71859">
        <ele>275.89889</ele>
        <time>2022-09-12T14:48:53.000Z</time>
      </trkpt>
      <trkpt lat="45.83233" lon="4.71864">
        <ele>275.45255</ele>
        <time>2022-09-12T14:48:54.000Z</time>
      </trkpt>
      <trkpt lat="45.83239" lon="4.71868">
        <ele>275.01489</ele>
        <time>2022-09-12T14:48:55.000Z</time>
      </trkpt>
      <trkpt lat="45.83246" lon="4.71872">
        <ele>274.4445</ele>
        <time>2022-09-12T14:48:56.000Z</time>
      </trkpt>
      <trkpt lat="45.83253" lon="4.71878">
        <ele>273.62627</ele>
        <time>2022-09-12T14:48:57.000Z</time>
      </trkpt>
      <trkpt lat="45.8326" lon="4.71881">
        <ele>272.82868</ele>
        <time>2022-09-12T14:48:58.000Z</time>
      </trkpt>
      <trkpt lat="45.83265" lon="4.71886">
        <ele>272.08189</ele>
        <time>2022-09-12T14:48:59.000Z</time>
      </trkpt>
      <trkpt lat="45.83268" lon="4.71891">
        <ele>271.60348</ele>
        <time>2022-09-12T14:49:00.000Z</time>
      </trkpt>
      <trkpt lat="45.83273" lon="4.71895">
        <ele>271.08847</ele>
        <time>2022-09-12T14:49:01.000Z</time>
      </trkpt>
      <trkpt lat="45.8328" lon="4.71899">
        <ele>270.61503</ele>
        <time>2022-09-12T14:49:02.000Z</time>
      </trkpt>
      <trkpt lat="45.83286" lon="4.71905">
        <ele>270.1882</ele>
        <time>2022-09-12T14:49:03.000Z</time>
      </trkpt>
      <trkpt lat="45.83292" lon="4.71909">
        <ele>269.90352</ele>
        <time>2022-09-12T14:49:04.000Z</time>
      </trkpt>
      <trkpt lat="45.83295" lon="4.71912">
        <ele>269.80402</ele>
        <time>2022-09-12T14:49:05.000Z</time>
      </trkpt>
      <trkpt lat="45.83299" lon="4.71917">
        <ele>269.77242</ele>
        <time>2022-09-12T14:49:06.000Z</time>
      </trkpt>
      <trkpt lat="45.83303" lon="4.71923">
        <ele>269.82868</ele>
        <time>2022-09-12T14:49:07.000Z</time>
      </trkpt>
      <trkpt lat="45.83305" lon="4.7193">
        <ele>270.06547</ele>
        <time>2022-09-12T14:49:08.000Z</time>
      </trkpt>
      <trkpt lat="45.83307" lon="4.71934">
        <ele>270.25001</ele>
        <time>2022-09-12T14:49:09.000Z</time>
      </trkpt>
      <trkpt lat="45.83311" lon="4.71941">
        <ele>270.59705</ele>
        <time>2022-09-12T14:49:10.000Z</time>
      </trkpt>
      <trkpt lat="45.83313" lon="4.71946">
        <ele>270.86738</ele>
        <time>2022-09-12T14:49:11.000Z</time>
      </trkpt>
      <trkpt lat="45.83316" lon="4.71951">
        <ele>271.12926</ele>
        <time>2022-09-12T14:49:12.000Z</time>
      </trkpt>
      <trkpt lat="45.83318" lon="4.71955">
        <ele>271.38502</ele>
        <time>2022-09-12T14:49:13.000Z</time>
      </trkpt>
      <trkpt lat="45.83319" lon="4.7196">
        <ele>271.69344</ele>
        <time>2022-09-12T14:49:14.000Z</time>
      </trkpt>
      <trkpt lat="45.83323" lon="4.71963">
        <ele>271.78901</ele>
        <time>2022-09-12T14:49:15.000Z</time>
      </trkpt>
      <trkpt lat="45.83326" lon="4.71966">
        <ele>271.94263</ele>
        <time>2022-09-12T14:49:16.000Z</time>
      </trkpt>
      <trkpt lat="45.8333" lon="4.71969">
        <ele>272.13944</ele>
        <time>2022-09-12T14:49:17.000Z</time>
      </trkpt>
      <trkpt lat="45.83333" lon="4.71971">
        <ele>272.28439</ele>
        <time>2022-09-12T14:49:18.000Z</time>
      </trkpt>
      <trkpt lat="45.83336" lon="4.71973">
        <ele>272.41552</ele>
        <time>2022-09-12T14:49:19.000Z</time>
      </trkpt>
      <trkpt lat="45.83338" lon="4.71975">
        <ele>272.55667</ele>
        <time>2022-09-12T14:49:20.000Z</time>
      </trkpt>
      <trkpt lat="45.83341" lon="4.71977">
        <ele>272.73265</ele>
        <time>2022-09-12T14:49:21.000Z</time>
      </trkpt>
      <trkpt lat="45.83344" lon="4.7198">
        <ele>272.91649</ele>
        <time>2022-09-12T14:49:22.000Z</time>
      </trkpt>
      <trkpt lat="45.8336" lon="4.71996">
        <ele>274.19149</ele>
        <time>2022-09-12T14:49:28.000Z</time>
      </trkpt>
      <trkpt lat="45.83364" lon="4.71999">
        <ele>274.46345</ele>
        <time>2022-09-12T14:49:29.000Z</time>
      </trkpt>
      <trkpt lat="45.83369" lon="4.72002">
        <ele>274.71633</ele>
        <time>2022-09-12T14:49:30.000Z</time>
      </trkpt>
      <trkpt lat="45.83373" lon="4.72005">
        <ele>274.98357</ele>
        <time>2022-09-12T14:49:31.000Z</time>
      </trkpt>
      <trkpt lat="45.83377" lon="4.72008">
        <ele>275.24735</ele>
        <time>2022-09-12T14:49:32.000Z</time>
      </trkpt>
      <trkpt lat="45.8338" lon="4.72011">
        <ele>275.47347</ele>
        <time>2022-09-12T14:49:33.000Z</time>
      </trkpt>
      <trkpt lat="45.83384" lon="4.72014">
        <ele>275.68195</ele>
        <time>2022-09-12T14:49:34.000Z</time>
      </trkpt>
      <trkpt lat="45.83387" lon="4.72016">
        <ele>275.8887</ele>
        <time>2022-09-12T14:49:35.000Z</time>
      </trkpt>
      <trkpt lat="45.83391" lon="4.72019">
        <ele>276.08813</ele>
        <time>2022-09-12T14:49:36.000Z</time>
      </trkpt>
      <trkpt lat="45.83394" lon="4.72021">
        <ele>276.28286</ele>
        <time>2022-09-12T14:49:37.000Z</time>
      </trkpt>
      <trkpt lat="45.83398" lon="4.72024">
        <ele>276.49629</ele>
        <time>2022-09-12T14:49:38.000Z</time>
      </trkpt>
      <trkpt lat="45.83402" lon="4.72027">
        <ele>276.72951</ele>
        <time>2022-09-12T14:49:39.000Z</time>
      </trkpt>
      <trkpt lat="45.83405" lon="4.7203">
        <ele>276.97576</ele>
        <time>2022-09-12T14:49:40.000Z</time>
      </trkpt>
      <trkpt lat="45.83409" lon="4.72033">
        <ele>277.21654</ele>
        <time>2022-09-12T14:49:41.000Z</time>
      </trkpt>
      <trkpt lat="45.83412" lon="4.72036">
        <ele>277.46576</ele>
        <time>2022-09-12T14:49:42.000Z</time>
      </trkpt>
      <trkpt lat="45.83416" lon="4.7204">
        <ele>277.71979</ele>
        <time>2022-09-12T14:49:43.000Z</time>
      </trkpt>
      <trkpt lat="45.8342" lon="4.72042">
        <ele>277.93869</ele>
        <time>2022-09-12T14:49:44.000Z</time>
      </trkpt>
      <trkpt lat="45.83423" lon="4.72045">
        <ele>278.13714</ele>
        <time>2022-09-12T14:49:45.000Z</time>
      </trkpt>
      <trkpt lat="45.83426" lon="4.72048">
        <ele>278.28281</ele>
        <time>2022-09-12T14:49:46.000Z</time>
      </trkpt>
      <trkpt lat="45.8343" lon="4.7205">
        <ele>278.36703</ele>
        <time>2022-09-12T14:49:47.000Z</time>
      </trkpt>
      <trkpt lat="45.83433" lon="4.72052">
        <ele>278.38087</ele>
        <time>2022-09-12T14:49:48.000Z</time>
      </trkpt>
      <trkpt lat="45.83437" lon="4.72054">
        <ele>278.32603</ele>
        <time>2022-09-12T14:49:49.000Z</time>
      </trkpt>
      <trkpt lat="45.8344" lon="4.72056">
        <ele>278.23253</ele>
        <time>2022-09-12T14:49:50.000Z</time>
      </trkpt>
      <trkpt lat="45.83444" lon="4.72057">
        <ele>278.12904</ele>
        <time>2022-09-12T14:49:51.000Z</time>
      </trkpt>
      <trkpt lat="45.83447" lon="4.72058">
        <ele>278.03652</ele>
        <time>2022-09-12T14:49:52.000Z</time>
      </trkpt>
      <trkpt lat="45.83451" lon="4.7206">
        <ele>277.9737</ele>
        <time>2022-09-12T14:49:53.000Z</time>
      </trkpt>
      <trkpt lat="45.83456" lon="4.72061">
        <ele>277.94194</ele>
        <time>2022-09-12T14:49:54.000Z</time>
      </trkpt>
      <trkpt lat="45.8346" lon="4.72062">
        <ele>277.93169</ele>
        <time>2022-09-12T14:49:55.000Z</time>
      </trkpt>
      <trkpt lat="45.83465" lon="4.72063">
        <ele>277.93263</ele>
        <time>2022-09-12T14:49:56.000Z</time>
      </trkpt>
      <trkpt lat="45.83471" lon="4.72063">
        <ele>277.91534</ele>
        <time>2022-09-12T14:49:57.000Z</time>
      </trkpt>
      <trkpt lat="45.83476" lon="4.72063">
        <ele>277.8862</ele>
        <time>2022-09-12T14:49:58.000Z</time>
      </trkpt>
      <trkpt lat="45.83482" lon="4.72064">
        <ele>277.87</ele>
        <time>2022-09-12T14:49:59.000Z</time>
      </trkpt>
      <trkpt lat="45.83488" lon="4.72064">
        <ele>277.8244</ele>
        <time>2022-09-12T14:50:00.000Z</time>
      </trkpt>
      <trkpt lat="45.83493" lon="4.72064">
        <ele>277.76576</ele>
        <time>2022-09-12T14:50:01.000Z</time>
      </trkpt>
      <trkpt lat="45.83497" lon="4.72065">
        <ele>277.72232</ele>
        <time>2022-09-12T14:50:02.000Z</time>
      </trkpt>
      <trkpt lat="45.83503" lon="4.72064">
        <ele>277.59782</ele>
        <time>2022-09-12T14:50:03.000Z</time>
      </trkpt>
      <trkpt lat="45.83509" lon="4.72063">
        <ele>277.46287</ele>
        <time>2022-09-12T14:50:04.000Z</time>
      </trkpt>
      <trkpt lat="45.83516" lon="4.72063">
        <ele>277.32415</ele>
        <time>2022-09-12T14:50:05.000Z</time>
      </trkpt>
      <trkpt lat="45.83523" lon="4.72063">
        <ele>277.19549</ele>
        <time>2022-09-12T14:50:06.000Z</time>
      </trkpt>
      <trkpt lat="45.83529" lon="4.72063">
        <ele>277.08184</ele>
        <time>2022-09-12T14:50:07.000Z</time>
      </trkpt>
      <trkpt lat="45.83535" lon="4.72061">
        <ele>276.97305</ele>
        <time>2022-09-12T14:50:08.000Z</time>
      </trkpt>
      <trkpt lat="45.83542" lon="4.7206">
        <ele>276.83309</ele>
        <time>2022-09-12T14:50:09.000Z</time>
      </trkpt>
      <trkpt lat="45.83549" lon="4.72058">
        <ele>276.68429</ele>
        <time>2022-09-12T14:50:10.000Z</time>
      </trkpt>
      <trkpt lat="45.83555" lon="4.72057">
        <ele>276.54466</ele>
        <time>2022-09-12T14:50:11.000Z</time>
      </trkpt>
      <trkpt lat="45.83561" lon="4.72057">
        <ele>276.41337</ele>
        <time>2022-09-12T14:50:12.000Z</time>
      </trkpt>
      <trkpt lat="45.83567" lon="4.72056">
        <ele>276.32992</ele>
        <time>2022-09-12T14:50:13.000Z</time>
      </trkpt>
      <trkpt lat="45.83573" lon="4.72055">
        <ele>276.27685</ele>
        <time>2022-09-12T14:50:14.000Z</time>
      </trkpt>
      <trkpt lat="45.83581" lon="4.72053">
        <ele>276.24638</ele>
        <time>2022-09-12T14:50:15.000Z</time>
      </trkpt>
      <trkpt lat="45.83587" lon="4.72052">
        <ele>276.18491</ele>
        <time>2022-09-12T14:50:16.000Z</time>
      </trkpt>
      <trkpt lat="45.83593" lon="4.72051">
        <ele>276.18052</ele>
        <time>2022-09-12T14:50:17.000Z</time>
      </trkpt>
      <trkpt lat="45.83599" lon="4.72051">
        <ele>276.15749</ele>
        <time>2022-09-12T14:50:18.000Z</time>
      </trkpt>
      <trkpt lat="45.83605" lon="4.72048">
        <ele>276.16913</ele>
        <time>2022-09-12T14:50:19.000Z</time>
      </trkpt>
      <trkpt lat="45.83612" lon="4.72047">
        <ele>276.11811</ele>
        <time>2022-09-12T14:50:20.000Z</time>
      </trkpt>
      <trkpt lat="45.83617" lon="4.72045">
        <ele>276.09434</ele>
        <time>2022-09-12T14:50:21.000Z</time>
      </trkpt>
      <trkpt lat="45.83622" lon="4.72044">
        <ele>276.05799</ele>
        <time>2022-09-12T14:50:22.000Z</time>
      </trkpt>
      <trkpt lat="45.83627" lon="4.72042">
        <ele>276.02707</ele>
        <time>2022-09-12T14:50:23.000Z</time>
      </trkpt>
      <trkpt lat="45.83632" lon="4.7204">
        <ele>275.93457</ele>
        <time>2022-09-12T14:50:24.000Z</time>
      </trkpt>
      <trkpt lat="45.83637" lon="4.72039">
        <ele>275.76709</ele>
        <time>2022-09-12T14:50:25.000Z</time>
      </trkpt>
      <trkpt lat="45.83643" lon="4.72037">
        <ele>275.54575</ele>
        <time>2022-09-12T14:50:26.000Z</time>
      </trkpt>
      <trkpt lat="45.83647" lon="4.72037">
        <ele>275.3374</ele>
        <time>2022-09-12T14:50:27.000Z</time>
      </trkpt>
      <trkpt lat="45.83651" lon="4.72034">
        <ele>275.21275</ele>
        <time>2022-09-12T14:50:28.000Z</time>
      </trkpt>
      <trkpt lat="45.83654" lon="4.72032">
        <ele>275.13106</ele>
        <time>2022-09-12T14:50:29.000Z</time>
      </trkpt>
      <trkpt lat="45.83653" lon="4.72029">
        <ele>275.23176</ele>
        <time>2022-09-12T14:50:30.000Z</time>
      </trkpt>
      <trkpt lat="45.83654" lon="4.72025">
        <ele>275.31577</ele>
        <time>2022-09-12T14:50:31.000Z</time>
      </trkpt>
      <trkpt lat="45.83655" lon="4.72019">
        <ele>275.46973</ele>
        <time>2022-09-12T14:50:32.000Z</time>
      </trkpt>
      <trkpt lat="45.83655" lon="4.72015">
        <ele>275.60885</ele>
        <time>2022-09-12T14:50:33.000Z</time>
      </trkpt>
      <trkpt lat="45.83654" lon="4.7201">
        <ele>275.79472</ele>
        <time>2022-09-12T14:50:34.000Z</time>
      </trkpt>
      <trkpt lat="45.83654" lon="4.72006">
        <ele>275.93509</ele>
        <time>2022-09-12T14:50:35.000Z</time>
      </trkpt>
      <trkpt lat="45.83654" lon="4.72002">
        <ele>276.07696</ele>
        <time>2022-09-12T14:50:36.000Z</time>
      </trkpt>
      <trkpt lat="45.83655" lon="4.71996">
        <ele>276.27306</ele>
        <time>2022-09-12T14:50:37.000Z</time>
      </trkpt>
      <trkpt lat="45.83656" lon="4.7199">
        <ele>276.4682</ele>
        <time>2022-09-12T14:50:38.000Z</time>
      </trkpt>
      <trkpt lat="45.83656" lon="4.71985">
        <ele>276.64482</ele>
        <time>2022-09-12T14:50:39.000Z</time>
      </trkpt>
      <trkpt lat="45.83657" lon="4.7198">
        <ele>276.80039</ele>
        <time>2022-09-12T14:50:40.000Z</time>
      </trkpt>
      <trkpt lat="45.83657" lon="4.71975">
        <ele>276.93897</ele>
        <time>2022-09-12T14:50:41.000Z</time>
      </trkpt>
      <trkpt lat="45.83657" lon="4.71971">
        <ele>277.08095</ele>
        <time>2022-09-12T14:50:42.000Z</time>
      </trkpt>
      <trkpt lat="45.83657" lon="4.71966">
        <ele>277.22171</ele>
        <time>2022-09-12T14:50:43.000Z</time>
      </trkpt>
      <trkpt lat="45.83656" lon="4.71961">
        <ele>277.34783</ele>
        <time>2022-09-12T14:50:44.000Z</time>
      </trkpt>
      <trkpt lat="45.83656" lon="4.71956">
        <ele>277.46807</ele>
        <time>2022-09-12T14:50:45.000Z</time>
      </trkpt>
      <trkpt lat="45.83656" lon="4.7195">
        <ele>277.59472</ele>
        <time>2022-09-12T14:50:46.000Z</time>
      </trkpt>
      <trkpt lat="45.83656" lon="4.71945">
        <ele>277.71621</ele>
        <time>2022-09-12T14:50:47.000Z</time>
      </trkpt>
      <trkpt lat="45.83655" lon="4.7194">
        <ele>277.85212</ele>
        <time>2022-09-12T14:50:48.000Z</time>
      </trkpt>
      <trkpt lat="45.83655" lon="4.71934">
        <ele>278.01337</ele>
        <time>2022-09-12T14:50:49.000Z</time>
      </trkpt>
      <trkpt lat="45.83655" lon="4.71928">
        <ele>278.19053</ele>
        <time>2022-09-12T14:50:50.000Z</time>
      </trkpt>
      <trkpt lat="45.83655" lon="4.71923">
        <ele>278.38485</ele>
        <time>2022-09-12T14:50:51.000Z</time>
      </trkpt>
      <trkpt lat="45.83655" lon="4.71917">
        <ele>278.59723</ele>
        <time>2022-09-12T14:50:52.000Z</time>
      </trkpt>
      <trkpt lat="45.83655" lon="4.71911">
        <ele>278.81076</ele>
        <time>2022-09-12T14:50:53.000Z</time>
      </trkpt>
      <trkpt lat="45.83656" lon="4.71905">
        <ele>279.03383</ele>
        <time>2022-09-12T14:50:54.000Z</time>
      </trkpt>
      <trkpt lat="45.83656" lon="4.71898">
        <ele>279.22773</ele>
        <time>2022-09-12T14:50:55.000Z</time>
      </trkpt>
      <trkpt lat="45.83656" lon="4.71892">
        <ele>279.4188</ele>
        <time>2022-09-12T14:50:56.000Z</time>
      </trkpt>
      <trkpt lat="45.83656" lon="4.71886">
        <ele>279.59306</ele>
        <time>2022-09-12T14:50:57.000Z</time>
      </trkpt>
      <trkpt lat="45.83656" lon="4.71881">
        <ele>279.70769</ele>
        <time>2022-09-12T14:50:58.000Z</time>
      </trkpt>
      <trkpt lat="45.83655" lon="4.71876">
        <ele>279.76029</ele>
        <time>2022-09-12T14:50:59.000Z</time>
      </trkpt>
      <trkpt lat="45.83655" lon="4.71872">
        <ele>279.76732</ele>
        <time>2022-09-12T14:51:00.000Z</time>
      </trkpt>
      <trkpt lat="45.83654" lon="4.71868">
        <ele>279.72467</ele>
        <time>2022-09-12T14:51:01.000Z</time>
      </trkpt>
      <trkpt lat="45.83653" lon="4.71864">
        <ele>279.64013</ele>
        <time>2022-09-12T14:51:02.000Z</time>
      </trkpt>
      <trkpt lat="45.83651" lon="4.7186">
        <ele>279.51717</ele>
        <time>2022-09-12T14:51:03.000Z</time>
      </trkpt>
      <trkpt lat="45.83649" lon="4.71857">
        <ele>279.36889</ele>
        <time>2022-09-12T14:51:04.000Z</time>
      </trkpt>
      <trkpt lat="45.83645" lon="4.71854">
        <ele>279.15561</ele>
        <time>2022-09-12T14:51:05.000Z</time>
      </trkpt>
      <trkpt lat="45.83642" lon="4.71851">
        <ele>278.93491</ele>
        <time>2022-09-12T14:51:06.000Z</time>
      </trkpt>
      <trkpt lat="45.83638" lon="4.7185">
        <ele>278.75401</ele>
        <time>2022-09-12T14:51:07.000Z</time>
      </trkpt>
      <trkpt lat="45.83634" lon="4.71848">
        <ele>278.59182</ele>
        <time>2022-09-12T14:51:08.000Z</time>
      </trkpt>
      <trkpt lat="45.83631" lon="4.71848">
        <ele>278.51347</ele>
        <time>2022-09-12T14:51:09.000Z</time>
      </trkpt>
      <trkpt lat="45.83629" lon="4.71847">
        <ele>278.45104</ele>
        <time>2022-09-12T14:51:10.000Z</time>
      </trkpt>
      <trkpt lat="45.83626" lon="4.71846">
        <ele>278.38064</ele>
        <time>2022-09-12T14:51:11.000Z</time>
      </trkpt>
      <trkpt lat="45.83624" lon="4.71843">
        <ele>278.26982</ele>
        <time>2022-09-12T14:51:12.000Z</time>
      </trkpt>
      <trkpt lat="45.83621" lon="4.71839">
        <ele>278.10666</ele>
        <time>2022-09-12T14:51:13.000Z</time>
      </trkpt>
      <trkpt lat="45.83619" lon="4.71831">
        <ele>277.83154</ele>
        <time>2022-09-12T14:51:14.000Z</time>
      </trkpt>
      <trkpt lat="45.83616" lon="4.71825">
        <ele>277.71889</ele>
        <time>2022-09-12T14:51:15.000Z</time>
      </trkpt>
      <trkpt lat="45.83613" lon="4.7182">
        <ele>277.56817</ele>
        <time>2022-09-12T14:51:16.000Z</time>
      </trkpt>
      <trkpt lat="45.8361" lon="4.71816">
        <ele>277.51107</ele>
        <time>2022-09-12T14:51:17.000Z</time>
      </trkpt>
      <trkpt lat="45.83608" lon="4.71812">
        <ele>277.37424</ele>
        <time>2022-09-12T14:51:18.000Z</time>
      </trkpt>
      <trkpt lat="45.83606" lon="4.71805">
        <ele>276.92028</ele>
        <time>2022-09-12T14:51:19.000Z</time>
      </trkpt>
      <trkpt lat="45.83603" lon="4.71802">
        <ele>276.92553</ele>
        <time>2022-09-12T14:51:20.000Z</time>
      </trkpt>
      <trkpt lat="45.83602" lon="4.71801">
        <ele>276.87747</ele>
        <time>2022-09-12T14:51:22.000Z</time>
      </trkpt>
      <trkpt lat="45.83603" lon="4.71799">
        <ele>276.5595</ele>
        <time>2022-09-12T14:51:25.000Z</time>
      </trkpt>
      <trkpt lat="45.83606" lon="4.71798">
        <ele>276.18325</ele>
        <time>2022-09-12T14:51:29.000Z</time>
      </trkpt>
      <trkpt lat="45.83609" lon="4.71798">
        <ele>275.84356</ele>
        <time>2022-09-12T14:51:31.000Z</time>
      </trkpt>
      <trkpt lat="45.83613" lon="4.71798">
        <ele>275.51216</ele>
        <time>2022-09-12T14:51:33.000Z</time>
      </trkpt>
      <trkpt lat="45.83616" lon="4.71799">
        <ele>275.37186</ele>
        <time>2022-09-12T14:51:34.000Z</time>
      </trkpt>
      <trkpt lat="45.83618" lon="4.71799">
        <ele>275.19118</ele>
        <time>2022-09-12T14:51:35.000Z</time>
      </trkpt>
      <trkpt lat="45.8362" lon="4.71799">
        <ele>274.97764</ele>
        <time>2022-09-12T14:51:36.000Z</time>
      </trkpt>
      <trkpt lat="45.83622" lon="4.71798">
        <ele>274.74455</ele>
        <time>2022-09-12T14:51:37.000Z</time>
      </trkpt>
      <trkpt lat="45.83624" lon="4.71798">
        <ele>274.43433</ele>
        <time>2022-09-12T14:51:38.000Z</time>
      </trkpt>
      <trkpt lat="45.83625" lon="4.71796">
        <ele>274.06802</ele>
        <time>2022-09-12T14:51:39.000Z</time>
      </trkpt>
      <trkpt lat="45.83627" lon="4.71795">
        <ele>273.73364</ele>
        <time>2022-09-12T14:51:40.000Z</time>
      </trkpt>
      <trkpt lat="45.83629" lon="4.71795">
        <ele>273.43823</ele>
        <time>2022-09-12T14:51:41.000Z</time>
      </trkpt>
      <trkpt lat="45.83631" lon="4.71794">
        <ele>273.21177</ele>
        <time>2022-09-12T14:51:42.000Z</time>
      </trkpt>
      <trkpt lat="45.83633" lon="4.71795">
        <ele>273.14975</ele>
        <time>2022-09-12T14:51:43.000Z</time>
      </trkpt>
      <trkpt lat="45.83635" lon="4.71795">
        <ele>273.13614</ele>
        <time>2022-09-12T14:51:44.000Z</time>
      </trkpt>
      <trkpt lat="45.83638" lon="4.71796">
        <ele>273.11294</ele>
        <time>2022-09-12T14:51:45.000Z</time>
      </trkpt>
      <trkpt lat="45.83642" lon="4.71796">
        <ele>273.03322</ele>
        <time>2022-09-12T14:51:46.000Z</time>
      </trkpt>
      <trkpt lat="45.83645" lon="4.71795">
        <ele>272.85014</ele>
        <time>2022-09-12T14:51:47.000Z</time>
      </trkpt>
      <trkpt lat="45.83647" lon="4.71795">
        <ele>272.66939</ele>
        <time>2022-09-12T14:51:48.000Z</time>
      </trkpt>
      <trkpt lat="45.83649" lon="4.71793">
        <ele>272.30923</ele>
        <time>2022-09-12T14:51:49.000Z</time>
      </trkpt>
      <trkpt lat="45.8365" lon="4.7179">
        <ele>271.74136</ele>
        <time>2022-09-12T14:51:50.000Z</time>
      </trkpt>
      <trkpt lat="45.83651" lon="4.71786">
        <ele>270.78713</ele>
        <time>2022-09-12T14:51:51.000Z</time>
      </trkpt>
      <trkpt lat="45.83652" lon="4.71782">
        <ele>269.67611</ele>
        <time>2022-09-12T14:51:52.000Z</time>
      </trkpt>
      <trkpt lat="45.83653" lon="4.71777">
        <ele>268.66833</ele>
        <time>2022-09-12T14:51:53.000Z</time>
      </trkpt>
      <trkpt lat="45.83655" lon="4.71774">
        <ele>267.80511</ele>
        <time>2022-09-12T14:51:54.000Z</time>
      </trkpt>
      <trkpt lat="45.83656" lon="4.7177">
        <ele>266.90981</ele>
        <time>2022-09-12T14:51:55.000Z</time>
      </trkpt>
      <trkpt lat="45.83657" lon="4.71767">
        <ele>266.17268</ele>
        <time>2022-09-12T14:51:56.000Z</time>
      </trkpt>
      <trkpt lat="45.83659" lon="4.71764">
        <ele>265.67642</ele>
        <time>2022-09-12T14:51:57.000Z</time>
      </trkpt>
      <trkpt lat="45.8366" lon="4.71762">
        <ele>265.22341</ele>
        <time>2022-09-12T14:51:58.000Z</time>
      </trkpt>
      <trkpt lat="45.83662" lon="4.7176">
        <ele>264.69347</ele>
        <time>2022-09-12T14:51:59.000Z</time>
      </trkpt>
      <trkpt lat="45.83664" lon="4.71758">
        <ele>264.30714</ele>
        <time>2022-09-12T14:52:00.000Z</time>
      </trkpt>
      <trkpt lat="45.83666" lon="4.71756">
        <ele>263.98766</ele>
        <time>2022-09-12T14:52:01.000Z</time>
      </trkpt>
      <trkpt lat="45.83669" lon="4.71754">
        <ele>263.59271</ele>
        <time>2022-09-12T14:52:02.000Z</time>
      </trkpt>
      <trkpt lat="45.83671" lon="4.71751">
        <ele>263.09574</ele>
        <time>2022-09-12T14:52:03.000Z</time>
      </trkpt>
      <trkpt lat="45.83674" lon="4.71747">
        <ele>262.47616</ele>
        <time>2022-09-12T14:52:04.000Z</time>
      </trkpt>
      <trkpt lat="45.83677" lon="4.71743">
        <ele>261.93083</ele>
        <time>2022-09-12T14:52:05.000Z</time>
      </trkpt>
      <trkpt lat="45.8368" lon="4.71739">
        <ele>261.4928</ele>
        <time>2022-09-12T14:52:06.000Z</time>
      </trkpt>
      <trkpt lat="45.83684" lon="4.71735">
        <ele>261.1994</ele>
        <time>2022-09-12T14:52:07.000Z</time>
      </trkpt>
      <trkpt lat="45.83689" lon="4.71732">
        <ele>260.98649</ele>
        <time>2022-09-12T14:52:08.000Z</time>
      </trkpt>
      <trkpt lat="45.83693" lon="4.71728">
        <ele>260.81194</ele>
        <time>2022-09-12T14:52:09.000Z</time>
      </trkpt>
      <trkpt lat="45.83697" lon="4.71725">
        <ele>260.55972</ele>
        <time>2022-09-12T14:52:10.000Z</time>
      </trkpt>
      <trkpt lat="45.83701" lon="4.71721">
        <ele>260.24789</ele>
        <time>2022-09-12T14:52:11.000Z</time>
      </trkpt>
      <trkpt lat="45.83704" lon="4.71717">
        <ele>259.88172</ele>
        <time>2022-09-12T14:52:12.000Z</time>
      </trkpt>
      <trkpt lat="45.83707" lon="4.71713">
        <ele>259.65709</ele>
        <time>2022-09-12T14:52:13.000Z</time>
      </trkpt>
      <trkpt lat="45.83711" lon="4.7171">
        <ele>259.49198</ele>
        <time>2022-09-12T14:52:14.000Z</time>
      </trkpt>
      <trkpt lat="45.83713" lon="4.71707">
        <ele>259.19056</ele>
        <time>2022-09-12T14:52:15.000Z</time>
      </trkpt>
      <trkpt lat="45.83714" lon="4.71704">
        <ele>258.75896</ele>
        <time>2022-09-12T14:52:17.000Z</time>
      </trkpt>
      <trkpt lat="45.83715" lon="4.71702">
        <ele>258.57831</ele>
        <time>2022-09-12T14:52:20.000Z</time>
      </trkpt>
      <trkpt lat="45.83717" lon="4.71702">
        <ele>258.62179</ele>
        <time>2022-09-12T14:52:23.000Z</time>
      </trkpt>
      <trkpt lat="45.83718" lon="4.71699">
        <ele>258.28482</ele>
        <time>2022-09-12T14:52:29.000Z</time>
      </trkpt>
      <trkpt lat="45.83718" lon="4.71696">
        <ele>257.87088</ele>
        <time>2022-09-12T14:52:57.000Z</time>
      </trkpt>
      <trkpt lat="45.83719" lon="4.71694">
        <ele>257.54844</ele>
        <time>2022-09-12T14:53:05.000Z</time>
      </trkpt>
      <trkpt lat="45.83718" lon="4.7169">
        <ele>257.07878</ele>
        <time>2022-09-12T14:53:48.000Z</time>
      </trkpt>
      <trkpt lat="45.83715" lon="4.71686">
        <ele>256.70586</ele>
        <time>2022-09-12T14:53:49.000Z</time>
      </trkpt>
      <trkpt lat="45.83713" lon="4.71682">
        <ele>256.52317</ele>
        <time>2022-09-12T14:53:50.000Z</time>
      </trkpt>
      <trkpt lat="45.83711" lon="4.71679">
        <ele>256.51319</ele>
        <time>2022-09-12T14:53:51.000Z</time>
      </trkpt>
      <trkpt lat="45.8371" lon="4.71675">
        <ele>256.63171</ele>
        <time>2022-09-12T14:53:52.000Z</time>
      </trkpt>
      <trkpt lat="45.83708" lon="4.71673">
        <ele>256.80964</ele>
        <time>2022-09-12T14:53:53.000Z</time>
      </trkpt>
      <trkpt lat="45.83707" lon="4.71671">
        <ele>257.05236</ele>
        <time>2022-09-12T14:53:54.000Z</time>
      </trkpt>
      <trkpt lat="45.83705" lon="4.71669">
        <ele>257.35398</ele>
        <time>2022-09-12T14:53:55.000Z</time>
      </trkpt>
      <trkpt lat="45.83703" lon="4.71667">
        <ele>257.74695</ele>
        <time>2022-09-12T14:53:56.000Z</time>
      </trkpt>
      <trkpt lat="45.83701" lon="4.71665">
        <ele>258.27574</ele>
        <time>2022-09-12T14:53:57.000Z</time>
      </trkpt>
      <trkpt lat="45.837" lon="4.71663">
        <ele>258.86424</ele>
        <time>2022-09-12T14:53:58.000Z</time>
      </trkpt>
      <trkpt lat="45.83698" lon="4.71661">
        <ele>259.41498</ele>
        <time>2022-09-12T14:53:59.000Z</time>
      </trkpt>
      <trkpt lat="45.83697" lon="4.71659">
        <ele>260.10775</ele>
        <time>2022-09-12T14:54:00.000Z</time>
      </trkpt>
      <trkpt lat="45.83695" lon="4.71657">
        <ele>260.91647</ele>
        <time>2022-09-12T14:54:01.000Z</time>
      </trkpt>
      <trkpt lat="45.83693" lon="4.71655">
        <ele>261.69571</ele>
        <time>2022-09-12T14:54:02.000Z</time>
      </trkpt>
      <trkpt lat="45.83691" lon="4.71654">
        <ele>262.56059</ele>
        <time>2022-09-12T14:54:03.000Z</time>
      </trkpt>
      <trkpt lat="45.83689" lon="4.71652">
        <ele>263.46775</ele>
        <time>2022-09-12T14:54:04.000Z</time>
      </trkpt>
      <trkpt lat="45.83686" lon="4.71652">
        <ele>264.24382</ele>
        <time>2022-09-12T14:54:05.000Z</time>
      </trkpt>
      <trkpt lat="45.83684" lon="4.71652">
        <ele>264.62496</ele>
        <time>2022-09-12T14:54:06.000Z</time>
      </trkpt>
      <trkpt lat="45.83681" lon="4.71653">
        <ele>264.8135</ele>
        <time>2022-09-12T14:54:08.000Z</time>
      </trkpt>
      <trkpt lat="45.83679" lon="4.71654">
        <ele>264.92236</ele>
        <time>2022-09-12T14:54:09.000Z</time>
      </trkpt>
      <trkpt lat="45.83677" lon="4.71654">
        <ele>265.13317</ele>
        <time>2022-09-12T14:54:10.000Z</time>
      </trkpt>
      <trkpt lat="45.83675" lon="4.71655">
        <ele>265.34619</ele>
        <time>2022-09-12T14:54:11.000Z</time>
      </trkpt>
      <trkpt lat="45.83673" lon="4.71655">
        <ele>265.64701</ele>
        <time>2022-09-12T14:54:12.000Z</time>
      </trkpt>
      <trkpt lat="45.83671" lon="4.71655">
        <ele>265.86719</ele>
        <time>2022-09-12T14:54:13.000Z</time>
      </trkpt>
      <trkpt lat="45.83668" lon="4.71655">
        <ele>266.28652</ele>
        <time>2022-09-12T14:54:15.000Z</time>
      </trkpt>
      <trkpt lat="45.83666" lon="4.71655">
        <ele>266.76184</ele>
        <time>2022-09-12T14:54:16.000Z</time>
      </trkpt>
      <trkpt lat="45.83664" lon="4.71654">
        <ele>267.12245</ele>
        <time>2022-09-12T14:54:17.000Z</time>
      </trkpt>
      <trkpt lat="45.8366" lon="4.71654">
        <ele>267.59375</ele>
        <time>2022-09-12T14:54:19.000Z</time>
      </trkpt>
      <trkpt lat="45.83658" lon="4.71654">
        <ele>267.72811</ele>
        <time>2022-09-12T14:54:20.000Z</time>
      </trkpt>
      <trkpt lat="45.83655" lon="4.71654">
        <ele>268.01029</ele>
        <time>2022-09-12T14:54:21.000Z</time>
      </trkpt>
      <trkpt lat="45.83653" lon="4.71653">
        <ele>268.3612</ele>
        <time>2022-09-12T14:54:22.000Z</time>
      </trkpt>
      <trkpt lat="45.83651" lon="4.71652">
        <ele>268.75816</ele>
        <time>2022-09-12T14:54:23.000Z</time>
      </trkpt>
      <trkpt lat="45.83649" lon="4.71651">
        <ele>269.42552</ele>
        <time>2022-09-12T14:54:24.000Z</time>
      </trkpt>
      <trkpt lat="45.83647" lon="4.71649">
        <ele>270.18442</ele>
        <time>2022-09-12T14:54:25.000Z</time>
      </trkpt>
      <trkpt lat="45.83645" lon="4.71647">
        <ele>270.9527</ele>
        <time>2022-09-12T14:54:26.000Z</time>
      </trkpt>
      <trkpt lat="45.83643" lon="4.71644">
        <ele>271.64278</ele>
        <time>2022-09-12T14:54:27.000Z</time>
      </trkpt>
      <trkpt lat="45.83641" lon="4.71642">
        <ele>272.21286</ele>
        <time>2022-09-12T14:54:28.000Z</time>
      </trkpt>
      <trkpt lat="45.83639" lon="4.7164">
        <ele>272.83918</ele>
        <time>2022-09-12T14:54:29.000Z</time>
      </trkpt>
      <trkpt lat="45.83636" lon="4.71638">
        <ele>273.21989</ele>
        <time>2022-09-12T14:54:30.000Z</time>
      </trkpt>
      <trkpt lat="45.83634" lon="4.71637">
        <ele>273.48483</ele>
        <time>2022-09-12T14:54:31.000Z</time>
      </trkpt>
      <trkpt lat="45.83633" lon="4.71635">
        <ele>273.74375</ele>
        <time>2022-09-12T14:54:32.000Z</time>
      </trkpt>
      <trkpt lat="45.83631" lon="4.71633">
        <ele>274.06365</ele>
        <time>2022-09-12T14:54:33.000Z</time>
      </trkpt>
      <trkpt lat="45.8363" lon="4.71631">
        <ele>274.44167</ele>
        <time>2022-09-12T14:54:34.000Z</time>
      </trkpt>
      <trkpt lat="45.83629" lon="4.71629">
        <ele>274.92781</ele>
        <time>2022-09-12T14:54:35.000Z</time>
      </trkpt>
      <trkpt lat="45.83628" lon="4.71626">
        <ele>275.62164</ele>
        <time>2022-09-12T14:54:36.000Z</time>
      </trkpt>
      <trkpt lat="45.83628" lon="4.71622">
        <ele>276.34912</ele>
        <time>2022-09-12T14:54:37.000Z</time>
      </trkpt>
      <trkpt lat="45.83627" lon="4.71619">
        <ele>277.11103</ele>
        <time>2022-09-12T14:54:38.000Z</time>
      </trkpt>
      <trkpt lat="45.83626" lon="4.71615">
        <ele>277.85608</ele>
        <time>2022-09-12T14:54:39.000Z</time>
      </trkpt>
      <trkpt lat="45.83626" lon="4.71612">
        <ele>278.4084</ele>
        <time>2022-09-12T14:54:40.000Z</time>
      </trkpt>
      <trkpt lat="45.83625" lon="4.71607">
        <ele>279.22487</ele>
        <time>2022-09-12T14:54:42.000Z</time>
      </trkpt>
      <trkpt lat="45.83623" lon="4.71603">
        <ele>279.63937</ele>
        <time>2022-09-12T14:54:44.000Z</time>
      </trkpt>
      <trkpt lat="45.83622" lon="4.71601">
        <ele>279.89796</ele>
        <time>2022-09-12T14:54:45.000Z</time>
      </trkpt>
      <trkpt lat="45.83622" lon="4.71598">
        <ele>280.21023</ele>
        <time>2022-09-12T14:54:46.000Z</time>
      </trkpt>
      <trkpt lat="45.83621" lon="4.71595">
        <ele>280.47983</ele>
        <time>2022-09-12T14:54:47.000Z</time>
      </trkpt>
      <trkpt lat="45.8362" lon="4.71593">
        <ele>280.79508</ele>
        <time>2022-09-12T14:54:48.000Z</time>
      </trkpt>
      <trkpt lat="45.8362" lon="4.71589">
        <ele>281.19273</ele>
        <time>2022-09-12T14:54:49.000Z</time>
      </trkpt>
      <trkpt lat="45.8362" lon="4.71586">
        <ele>281.69151</ele>
        <time>2022-09-12T14:54:50.000Z</time>
      </trkpt>
      <trkpt lat="45.8362" lon="4.71582">
        <ele>282.18011</ele>
        <time>2022-09-12T14:54:51.000Z</time>
      </trkpt>
      <trkpt lat="45.8362" lon="4.71579">
        <ele>282.70958</ele>
        <time>2022-09-12T14:54:52.000Z</time>
      </trkpt>
      <trkpt lat="45.8362" lon="4.71575">
        <ele>283.21492</ele>
        <time>2022-09-12T14:54:53.000Z</time>
      </trkpt>
      <trkpt lat="45.8362" lon="4.71571">
        <ele>283.62948</ele>
        <time>2022-09-12T14:54:54.000Z</time>
      </trkpt>
      <trkpt lat="45.8362" lon="4.71569">
        <ele>283.97917</ele>
        <time>2022-09-12T14:54:55.000Z</time>
      </trkpt>
      <trkpt lat="45.8362" lon="4.71566">
        <ele>284.37812</ele>
        <time>2022-09-12T14:54:58.000Z</time>
      </trkpt>
      <trkpt lat="45.8362" lon="4.71563">
        <ele>284.59244</ele>
        <time>2022-09-12T14:55:04.000Z</time>
      </trkpt>
      <trkpt lat="45.83619" lon="4.71561">
        <ele>284.79556</ele>
        <time>2022-09-12T14:55:11.000Z</time>
      </trkpt>
      <trkpt lat="45.83617" lon="4.71559">
        <ele>284.72498</ele>
        <time>2022-09-12T14:55:14.000Z</time>
      </trkpt>
      <trkpt lat="45.83615" lon="4.71558">
        <ele>284.66933</ele>
        <time>2022-09-12T14:55:16.000Z</time>
      </trkpt>
      <trkpt lat="45.83613" lon="4.71556">
        <ele>284.73346</ele>
        <time>2022-09-12T14:55:46.000Z</time>
      </trkpt>
      <trkpt lat="45.83615" lon="4.71556">
        <ele>284.94491</ele>
        <time>2022-09-12T14:56:08.000Z</time>
      </trkpt>
      <trkpt lat="45.83616" lon="4.71553">
        <ele>285.36974</ele>
        <time>2022-09-12T14:56:18.000Z</time>
      </trkpt>
      <trkpt lat="45.83616" lon="4.7155">
        <ele>285.63867</ele>
        <time>2022-09-12T14:56:19.000Z</time>
      </trkpt>
      <trkpt lat="45.83617" lon="4.71545">
        <ele>286.12109</ele>
        <time>2022-09-12T14:56:21.000Z</time>
      </trkpt>
      <trkpt lat="45.83617" lon="4.71542">
        <ele>286.42731</ele>
        <time>2022-09-12T14:56:22.000Z</time>
      </trkpt>
      <trkpt lat="45.83617" lon="4.71538">
        <ele>286.66428</ele>
        <time>2022-09-12T14:56:23.000Z</time>
      </trkpt>
      <trkpt lat="45.83616" lon="4.71536">
        <ele>286.8481</ele>
        <time>2022-09-12T14:56:24.000Z</time>
      </trkpt>
      <trkpt lat="45.83615" lon="4.71533">
        <ele>286.99815</ele>
        <time>2022-09-12T14:56:25.000Z</time>
      </trkpt>
      <trkpt lat="45.83614" lon="4.7153">
        <ele>287.11018</ele>
        <time>2022-09-12T14:56:26.000Z</time>
      </trkpt>
      <trkpt lat="45.83612" lon="4.71528">
        <ele>287.20629</ele>
        <time>2022-09-12T14:56:27.000Z</time>
      </trkpt>
      <trkpt lat="45.8361" lon="4.71526">
        <ele>287.29145</ele>
        <time>2022-09-12T14:56:28.000Z</time>
      </trkpt>
      <trkpt lat="45.83608" lon="4.71523">
        <ele>287.43231</ele>
        <time>2022-09-12T14:56:29.000Z</time>
      </trkpt>
      <trkpt lat="45.83607" lon="4.71521">
        <ele>287.60718</ele>
        <time>2022-09-12T14:56:30.000Z</time>
      </trkpt>
      <trkpt lat="45.83605" lon="4.71518">
        <ele>287.80942</ele>
        <time>2022-09-12T14:56:31.000Z</time>
      </trkpt>
      <trkpt lat="45.83604" lon="4.71515">
        <ele>288.05007</ele>
        <time>2022-09-12T14:56:32.000Z</time>
      </trkpt>
      <trkpt lat="45.83603" lon="4.71511">
        <ele>288.32093</ele>
        <time>2022-09-12T14:56:33.000Z</time>
      </trkpt>
      <trkpt lat="45.83602" lon="4.71507">
        <ele>288.59269</ele>
        <time>2022-09-12T14:56:34.000Z</time>
      </trkpt>
      <trkpt lat="45.83602" lon="4.71504">
        <ele>288.84236</ele>
        <time>2022-09-12T14:56:35.000Z</time>
      </trkpt>
      <trkpt lat="45.83601" lon="4.71501">
        <ele>289.04124</ele>
        <time>2022-09-12T14:56:36.000Z</time>
      </trkpt>
      <trkpt lat="45.83597" lon="4.71498">
        <ele>289.2979</ele>
        <time>2022-09-12T14:56:38.000Z</time>
      </trkpt>
      <trkpt lat="45.83595" lon="4.71498">
        <ele>289.37849</ele>
        <time>2022-09-12T14:56:39.000Z</time>
      </trkpt>
      <trkpt lat="45.83592" lon="4.715">
        <ele>289.32196</ele>
        <time>2022-09-12T14:56:41.000Z</time>
      </trkpt>
      <trkpt lat="45.83591" lon="4.71501">
        <ele>289.21274</ele>
        <time>2022-09-12T14:56:42.000Z</time>
      </trkpt>
      <trkpt lat="45.83589" lon="4.71503">
        <ele>289.07538</ele>
        <time>2022-09-12T14:56:43.000Z</time>
      </trkpt>
      <trkpt lat="45.83588" lon="4.71505">
        <ele>288.91754</ele>
        <time>2022-09-12T14:56:44.000Z</time>
      </trkpt>
      <trkpt lat="45.83586" lon="4.71507">
        <ele>288.73888</ele>
        <time>2022-09-12T14:56:45.000Z</time>
      </trkpt>
      <trkpt lat="45.83585" lon="4.71509">
        <ele>288.54579</ele>
        <time>2022-09-12T14:56:46.000Z</time>
      </trkpt>
      <trkpt lat="45.83583" lon="4.71512">
        <ele>288.30784</ele>
        <time>2022-09-12T14:56:47.000Z</time>
      </trkpt>
      <trkpt lat="45.83581" lon="4.71514">
        <ele>288.05317</ele>
        <time>2022-09-12T14:56:48.000Z</time>
      </trkpt>
      <trkpt lat="45.83579" lon="4.71516">
        <ele>287.83255</ele>
        <time>2022-09-12T14:56:49.000Z</time>
      </trkpt>
      <trkpt lat="45.83577" lon="4.71517">
        <ele>287.71561</ele>
        <time>2022-09-12T14:56:50.000Z</time>
      </trkpt>
      <trkpt lat="45.83575" lon="4.71516">
        <ele>287.87806</ele>
        <time>2022-09-12T14:56:51.000Z</time>
      </trkpt>
      <trkpt lat="45.83573" lon="4.71513">
        <ele>288.2726</ele>
        <time>2022-09-12T14:56:52.000Z</time>
      </trkpt>
      <trkpt lat="45.83572" lon="4.71509">
        <ele>288.7208</ele>
        <time>2022-09-12T14:56:53.000Z</time>
      </trkpt>
      <trkpt lat="45.83571" lon="4.71505">
        <ele>289.14654</ele>
        <time>2022-09-12T14:56:54.000Z</time>
      </trkpt>
      <trkpt lat="45.83569" lon="4.71502">
        <ele>289.48532</ele>
        <time>2022-09-12T14:56:55.000Z</time>
      </trkpt>
      <trkpt lat="45.83567" lon="4.715">
        <ele>289.69416</ele>
        <time>2022-09-12T14:56:56.000Z</time>
      </trkpt>
      <trkpt lat="45.83564" lon="4.715">
        <ele>289.83077</ele>
        <time>2022-09-12T14:56:57.000Z</time>
      </trkpt>
      <trkpt lat="45.83562" lon="4.71501">
        <ele>289.86862</ele>
        <time>2022-09-12T14:56:58.000Z</time>
      </trkpt>
      <trkpt lat="45.83559" lon="4.71502">
        <ele>289.88901</ele>
        <time>2022-09-12T14:56:59.000Z</time>
      </trkpt>
      <trkpt lat="45.83556" lon="4.71503">
        <ele>289.93225</ele>
        <time>2022-09-12T14:57:00.000Z</time>
      </trkpt>
      <trkpt lat="45.83554" lon="4.71503">
        <ele>289.9851</ele>
        <time>2022-09-12T14:57:01.000Z</time>
      </trkpt>
      <trkpt lat="45.83551" lon="4.71503">
        <ele>290.09362</ele>
        <time>2022-09-12T14:57:02.000Z</time>
      </trkpt>
      <trkpt lat="45.83548" lon="4.71503">
        <ele>290.21316</ele>
        <time>2022-09-12T14:57:03.000Z</time>
      </trkpt>
      <trkpt lat="45.83545" lon="4.71502">
        <ele>290.31986</ele>
        <time>2022-09-12T14:57:04.000Z</time>
      </trkpt>
      <trkpt lat="45.83543" lon="4.71502">
        <ele>290.38346</ele>
        <time>2022-09-12T14:57:05.000Z</time>
      </trkpt>
      <trkpt lat="45.8354" lon="4.71503">
        <ele>290.39548</ele>
        <time>2022-09-12T14:57:06.000Z</time>
      </trkpt>
      <trkpt lat="45.83538" lon="4.71504">
        <ele>290.38492</ele>
        <time>2022-09-12T14:57:07.000Z</time>
      </trkpt>
      <trkpt lat="45.83536" lon="4.71505">
        <ele>290.38807</ele>
        <time>2022-09-12T14:57:08.000Z</time>
      </trkpt>
      <trkpt lat="45.83533" lon="4.71505">
        <ele>290.43466</ele>
        <time>2022-09-12T14:57:09.000Z</time>
      </trkpt>
      <trkpt lat="45.83531" lon="4.71505">
        <ele>290.53801</ele>
        <time>2022-09-12T14:57:10.000Z</time>
      </trkpt>
      <trkpt lat="45.83528" lon="4.71503">
        <ele>290.66115</ele>
        <time>2022-09-12T14:57:11.000Z</time>
      </trkpt>
      <trkpt lat="45.83525" lon="4.71503">
        <ele>290.77352</ele>
        <time>2022-09-12T14:57:12.000Z</time>
      </trkpt>
      <trkpt lat="45.83522" lon="4.71502">
        <ele>290.88977</ele>
        <time>2022-09-12T14:57:13.000Z</time>
      </trkpt>
      <trkpt lat="45.8352" lon="4.715">
        <ele>291.02343</ele>
        <time>2022-09-12T14:57:14.000Z</time>
      </trkpt>
      <trkpt lat="45.83517" lon="4.71499">
        <ele>291.17805</ele>
        <time>2022-09-12T14:57:15.000Z</time>
      </trkpt>
      <trkpt lat="45.83514" lon="4.71498">
        <ele>291.33583</ele>
        <time>2022-09-12T14:57:16.000Z</time>
      </trkpt>
      <trkpt lat="45.83511" lon="4.71496">
        <ele>291.50645</ele>
        <time>2022-09-12T14:57:17.000Z</time>
      </trkpt>
      <trkpt lat="45.83507" lon="4.71496">
        <ele>291.61973</ele>
        <time>2022-09-12T14:57:18.000Z</time>
      </trkpt>
      <trkpt lat="45.83504" lon="4.71496">
        <ele>291.69522</ele>
        <time>2022-09-12T14:57:19.000Z</time>
      </trkpt>
      <trkpt lat="45.83501" lon="4.71496">
        <ele>291.75262</ele>
        <time>2022-09-12T14:57:20.000Z</time>
      </trkpt>
      <trkpt lat="45.83498" lon="4.71496">
        <ele>291.76085</ele>
        <time>2022-09-12T14:57:21.000Z</time>
      </trkpt>
      <trkpt lat="45.83495" lon="4.71497">
        <ele>291.73604</ele>
        <time>2022-09-12T14:57:22.000Z</time>
      </trkpt>
      <trkpt lat="45.83493" lon="4.71499">
        <ele>291.68155</ele>
        <time>2022-09-12T14:57:23.000Z</time>
      </trkpt>
      <trkpt lat="45.8349" lon="4.715">
        <ele>291.64485</ele>
        <time>2022-09-12T14:57:24.000Z</time>
      </trkpt>
      <trkpt lat="45.83487" lon="4.715">
        <ele>291.64662</ele>
        <time>2022-09-12T14:57:25.000Z</time>
      </trkpt>
      <trkpt lat="45.83484" lon="4.71499">
        <ele>291.71286</ele>
        <time>2022-09-12T14:57:26.000Z</time>
      </trkpt>
      <trkpt lat="45.83481" lon="4.71497">
        <ele>291.80354</ele>
        <time>2022-09-12T14:57:27.000Z</time>
      </trkpt>
      <trkpt lat="45.83478" lon="4.71497">
        <ele>291.88109</ele>
        <time>2022-09-12T14:57:28.000Z</time>
      </trkpt>
      <trkpt lat="45.83475" lon="4.71497">
        <ele>291.94302</ele>
        <time>2022-09-12T14:57:29.000Z</time>
      </trkpt>
      <trkpt lat="45.83473" lon="4.71498">
        <ele>291.9203</ele>
        <time>2022-09-12T14:57:30.000Z</time>
      </trkpt>
      <trkpt lat="45.83471" lon="4.715">
        <ele>291.93984</ele>
        <time>2022-09-12T14:57:31.000Z</time>
      </trkpt>
      <trkpt lat="45.83468" lon="4.71502">
        <ele>291.93297</ele>
        <time>2022-09-12T14:57:32.000Z</time>
      </trkpt>
      <trkpt lat="45.83465" lon="4.71504">
        <ele>291.88937</ele>
        <time>2022-09-12T14:57:33.000Z</time>
      </trkpt>
      <trkpt lat="45.83464" lon="4.71508">
        <ele>291.79949</ele>
        <time>2022-09-12T14:57:34.000Z</time>
      </trkpt>
      <trkpt lat="45.83464" lon="4.71511">
        <ele>291.67892</ele>
        <time>2022-09-12T14:57:35.000Z</time>
      </trkpt>
      <trkpt lat="45.83466" lon="4.71514">
        <ele>291.57449</ele>
        <time>2022-09-12T14:57:36.000Z</time>
      </trkpt>
      <trkpt lat="45.83467" lon="4.71515">
        <ele>291.49902</ele>
        <time>2022-09-12T14:57:37.000Z</time>
      </trkpt>
      <trkpt lat="45.8347" lon="4.71515">
        <ele>291.43861</ele>
        <time>2022-09-12T14:57:39.000Z</time>
      </trkpt>
      <trkpt lat="45.83471" lon="4.71513">
        <ele>291.48181</ele>
        <time>2022-09-12T14:57:44.000Z</time>
      </trkpt>
    </trkseg>
  </trk>
</gpx>